<?xml version="1.0" encoding="UTF-8" standalone="no" ?>
<gpx xmlns="http://www.topografix.com/GPX/1/1" xmlns:xsi="http://www.w3.org/2001/XMLSchema-instance" xsi:schemaLocation="http://www.topografix.com/GPX/1/1 http://www.topografix.com/GPX/1/1/gpx.xsd" version="1.1" creator="VisuGPX - https://www.visugpx.com">
  <metadata>
    <name>2022-10-02 Rando Frespech</name>
    <desc><![CDATA[45KM]]></desc>
  </metadata>
  <trk>
    <name><![CDATA[2022-10-02 12:27:00]]></name>
    <extensions>
      <line xmlns="http://www.topografix.com/GPX/gpx_style/0/2">
        <color>0000FF</color>
        <width>4</width>
      </line>
    </extensions>
    <trkseg>
      <trkpt lat="44.29053" lon="0.80441">
        <ele>76.56</ele>
        <time>2022-10-02T06:28:03Z</time>
      </trkpt>
      <trkpt lat="44.29042" lon="0.80408">
        <ele>81.85</ele>
        <time>2022-10-02T06:28:14Z</time>
      </trkpt>
      <trkpt lat="44.29041" lon="0.80405">
        <ele>86.18</ele>
        <time>2022-10-02T06:28:15Z</time>
      </trkpt>
      <trkpt lat="44.29039" lon="0.80402">
        <ele>90.98</ele>
        <time>2022-10-02T06:28:16Z</time>
      </trkpt>
      <trkpt lat="44.29038" lon="0.80399">
        <ele>94.83</ele>
        <time>2022-10-02T06:28:17Z</time>
      </trkpt>
      <trkpt lat="44.29037" lon="0.80396">
        <ele>98.67</ele>
        <time>2022-10-02T06:28:18Z</time>
      </trkpt>
      <trkpt lat="44.29035" lon="0.80393">
        <ele>102.52</ele>
        <time>2022-10-02T06:28:19Z</time>
      </trkpt>
      <trkpt lat="44.29034" lon="0.8039">
        <ele>106.84</ele>
        <time>2022-10-02T06:28:20Z</time>
      </trkpt>
      <trkpt lat="44.29032" lon="0.80387">
        <ele>110.69</ele>
        <time>2022-10-02T06:28:21Z</time>
      </trkpt>
      <trkpt lat="44.29031" lon="0.80384">
        <ele>114.05</ele>
        <time>2022-10-02T06:28:22Z</time>
      </trkpt>
      <trkpt lat="44.29029" lon="0.8038">
        <ele>117.42</ele>
        <time>2022-10-02T06:28:23Z</time>
      </trkpt>
      <trkpt lat="44.29028" lon="0.80377">
        <ele>120.78</ele>
        <time>2022-10-02T06:28:24Z</time>
      </trkpt>
      <trkpt lat="44.29027" lon="0.80375">
        <ele>126.55</ele>
        <time>2022-10-02T06:28:25Z</time>
      </trkpt>
      <trkpt lat="44.29024" lon="0.80369">
        <ele>132.8</ele>
        <time>2022-10-02T06:28:27Z</time>
      </trkpt>
      <trkpt lat="44.29023" lon="0.80366">
        <ele>132.8</ele>
        <time>2022-10-02T06:28:28Z</time>
      </trkpt>
      <trkpt lat="44.2902" lon="0.80361">
        <ele>138.09</ele>
        <time>2022-10-02T06:28:30Z</time>
      </trkpt>
      <trkpt lat="44.29017" lon="0.80355">
        <ele>142.89</ele>
        <time>2022-10-02T06:28:32Z</time>
      </trkpt>
      <trkpt lat="44.29014" lon="0.80349">
        <ele>147.22</ele>
        <time>2022-10-02T06:28:34Z</time>
      </trkpt>
      <trkpt lat="44.29011" lon="0.80343">
        <ele>152.51</ele>
        <time>2022-10-02T06:28:36Z</time>
      </trkpt>
      <trkpt lat="44.29008" lon="0.80337">
        <ele>156.35</ele>
        <time>2022-10-02T06:28:38Z</time>
      </trkpt>
      <trkpt lat="44.29005" lon="0.80331">
        <ele>160.2</ele>
        <time>2022-10-02T06:28:40Z</time>
      </trkpt>
      <trkpt lat="44.29002" lon="0.80325">
        <ele>164.52</ele>
        <time>2022-10-02T06:28:42Z</time>
      </trkpt>
      <trkpt lat="44.28999" lon="0.8032">
        <ele>167.89</ele>
        <time>2022-10-02T06:28:44Z</time>
      </trkpt>
      <trkpt lat="44.28996" lon="0.80314">
        <ele>170.77</ele>
        <time>2022-10-02T06:28:46Z</time>
      </trkpt>
      <trkpt lat="44.28991" lon="0.80307">
        <ele>175.1</ele>
        <time>2022-10-02T06:28:49Z</time>
      </trkpt>
      <trkpt lat="44.28989" lon="0.80303">
        <ele>178.94</ele>
        <time>2022-10-02T06:28:51Z</time>
      </trkpt>
      <trkpt lat="44.28991" lon="0.80292">
        <ele>182.79</ele>
        <time>2022-10-02T06:28:55Z</time>
      </trkpt>
      <trkpt lat="44.28993" lon="0.80289">
        <ele>183.75</ele>
        <time>2022-10-02T06:28:56Z</time>
      </trkpt>
      <trkpt lat="44.29001" lon="0.80275">
        <ele>188.08</ele>
        <time>2022-10-02T06:29:00Z</time>
      </trkpt>
      <trkpt lat="44.29009" lon="0.80258">
        <ele>191.44</ele>
        <time>2022-10-02T06:29:04Z</time>
      </trkpt>
      <trkpt lat="44.29017" lon="0.80241">
        <ele>194.8</ele>
        <time>2022-10-02T06:29:08Z</time>
      </trkpt>
      <trkpt lat="44.29025" lon="0.80216">
        <ele>198.17</ele>
        <time>2022-10-02T06:29:13Z</time>
      </trkpt>
      <trkpt lat="44.29029" lon="0.80205">
        <ele>198.65</ele>
        <time>2022-10-02T06:29:15Z</time>
      </trkpt>
      <trkpt lat="44.29039" lon="0.80167">
        <ele>202.01</ele>
        <time>2022-10-02T06:29:22Z</time>
      </trkpt>
      <trkpt lat="44.29055" lon="0.80092">
        <ele>204.9</ele>
        <time>2022-10-02T06:29:34Z</time>
      </trkpt>
      <trkpt lat="44.29065" lon="0.80046">
        <ele>206.34</ele>
        <time>2022-10-02T06:29:41Z</time>
      </trkpt>
      <trkpt lat="44.29088" lon="0.79993">
        <ele>207.78</ele>
        <time>2022-10-02T06:29:52Z</time>
      </trkpt>
      <trkpt lat="44.29141" lon="0.79884">
        <ele>207.78</ele>
        <time>2022-10-02T06:30:11Z</time>
      </trkpt>
      <trkpt lat="44.29167" lon="0.7982">
        <ele>205.86</ele>
        <time>2022-10-02T06:30:20Z</time>
      </trkpt>
      <trkpt lat="44.29175" lon="0.7979">
        <ele>205.86</ele>
        <time>2022-10-02T06:30:24Z</time>
      </trkpt>
      <trkpt lat="44.29179" lon="0.79767">
        <ele>204.9</ele>
        <time>2022-10-02T06:30:27Z</time>
      </trkpt>
      <trkpt lat="44.29184" lon="0.7972">
        <ele>204.42</ele>
        <time>2022-10-02T06:30:33Z</time>
      </trkpt>
      <trkpt lat="44.29199" lon="0.7968">
        <ele>201.53</ele>
        <time>2022-10-02T06:30:38Z</time>
      </trkpt>
      <trkpt lat="44.29224" lon="0.79634">
        <ele>197.69</ele>
        <time>2022-10-02T06:30:44Z</time>
      </trkpt>
      <trkpt lat="44.29233" lon="0.79622">
        <ele>195.28</ele>
        <time>2022-10-02T06:30:47Z</time>
      </trkpt>
      <trkpt lat="44.29242" lon="0.79615">
        <ele>193.36</ele>
        <time>2022-10-02T06:30:51Z</time>
      </trkpt>
      <trkpt lat="44.29253" lon="0.79612">
        <ele>191.92</ele>
        <time>2022-10-02T06:30:54Z</time>
      </trkpt>
      <trkpt lat="44.29262" lon="0.79612">
        <ele>191.44</ele>
        <time>2022-10-02T06:30:56Z</time>
      </trkpt>
      <trkpt lat="44.29275" lon="0.79622">
        <ele>190.48</ele>
        <time>2022-10-02T06:30:59Z</time>
      </trkpt>
      <trkpt lat="44.2929" lon="0.79636">
        <ele>190</ele>
        <time>2022-10-02T06:31:03Z</time>
      </trkpt>
      <trkpt lat="44.29338" lon="0.79631">
        <ele>189.52</ele>
        <time>2022-10-02T06:31:15Z</time>
      </trkpt>
      <trkpt lat="44.29365" lon="0.79614">
        <ele>185.67</ele>
        <time>2022-10-02T06:31:22Z</time>
      </trkpt>
      <trkpt lat="44.29386" lon="0.79604">
        <ele>181.83</ele>
        <time>2022-10-02T06:31:26Z</time>
      </trkpt>
      <trkpt lat="44.29407" lon="0.79595">
        <ele>178.46</ele>
        <time>2022-10-02T06:31:30Z</time>
      </trkpt>
      <trkpt lat="44.29412" lon="0.79593">
        <ele>178.46</ele>
        <time>2022-10-02T06:31:31Z</time>
      </trkpt>
      <trkpt lat="44.29434" lon="0.79582">
        <ele>175.1</ele>
        <time>2022-10-02T06:31:35Z</time>
      </trkpt>
      <trkpt lat="44.29477" lon="0.79584">
        <ele>171.25</ele>
        <time>2022-10-02T06:31:42Z</time>
      </trkpt>
      <trkpt lat="44.29498" lon="0.79591">
        <ele>168.37</ele>
        <time>2022-10-02T06:31:46Z</time>
      </trkpt>
      <trkpt lat="44.29514" lon="0.79595">
        <ele>165.48</ele>
        <time>2022-10-02T06:31:49Z</time>
      </trkpt>
      <trkpt lat="44.29532" lon="0.79604">
        <ele>161.64</ele>
        <time>2022-10-02T06:31:53Z</time>
      </trkpt>
      <trkpt lat="44.29547" lon="0.79614">
        <ele>158.27</ele>
        <time>2022-10-02T06:31:56Z</time>
      </trkpt>
      <trkpt lat="44.29563" lon="0.79622">
        <ele>154.91</ele>
        <time>2022-10-02T06:31:59Z</time>
      </trkpt>
      <trkpt lat="44.29593" lon="0.79633">
        <ele>152.51</ele>
        <time>2022-10-02T06:32:04Z</time>
      </trkpt>
      <trkpt lat="44.29644" lon="0.79673">
        <ele>149.14</ele>
        <time>2022-10-02T06:32:14Z</time>
      </trkpt>
      <trkpt lat="44.29648" lon="0.79678">
        <ele>149.14</ele>
        <time>2022-10-02T06:32:15Z</time>
      </trkpt>
      <trkpt lat="44.29667" lon="0.79697">
        <ele>145.78</ele>
        <time>2022-10-02T06:32:20Z</time>
      </trkpt>
      <trkpt lat="44.29673" lon="0.79699">
        <ele>144.34</ele>
        <time>2022-10-02T06:32:22Z</time>
      </trkpt>
      <trkpt lat="44.29678" lon="0.797">
        <ele>142.89</ele>
        <time>2022-10-02T06:32:24Z</time>
      </trkpt>
      <trkpt lat="44.29691" lon="0.79688">
        <ele>140.49</ele>
        <time>2022-10-02T06:32:30Z</time>
      </trkpt>
      <trkpt lat="44.29704" lon="0.79685">
        <ele>139.05</ele>
        <time>2022-10-02T06:32:33Z</time>
      </trkpt>
      <trkpt lat="44.29709" lon="0.79687">
        <ele>138.57</ele>
        <time>2022-10-02T06:32:34Z</time>
      </trkpt>
      <trkpt lat="44.29728" lon="0.79685">
        <ele>136.16</ele>
        <time>2022-10-02T06:32:38Z</time>
      </trkpt>
      <trkpt lat="44.2974" lon="0.79671">
        <ele>135.2</ele>
        <time>2022-10-02T06:32:43Z</time>
      </trkpt>
      <trkpt lat="44.29741" lon="0.79665">
        <ele>136.64</ele>
        <time>2022-10-02T06:32:45Z</time>
      </trkpt>
      <trkpt lat="44.29752" lon="0.79637">
        <ele>139.53</ele>
        <time>2022-10-02T06:32:59Z</time>
      </trkpt>
      <trkpt lat="44.29755" lon="0.79632">
        <ele>140.97</ele>
        <time>2022-10-02T06:33:02Z</time>
      </trkpt>
      <trkpt lat="44.29773" lon="0.79605">
        <ele>143.85</ele>
        <time>2022-10-02T06:33:19Z</time>
      </trkpt>
      <trkpt lat="44.29781" lon="0.7959">
        <ele>146.74</ele>
        <time>2022-10-02T06:33:31Z</time>
      </trkpt>
      <trkpt lat="44.29791" lon="0.79571">
        <ele>149.62</ele>
        <time>2022-10-02T06:33:46Z</time>
      </trkpt>
      <trkpt lat="44.298" lon="0.79548">
        <ele>153.47</ele>
        <time>2022-10-02T06:34:04Z</time>
      </trkpt>
      <trkpt lat="44.29804" lon="0.79545">
        <ele>153.95</ele>
        <time>2022-10-02T06:34:08Z</time>
      </trkpt>
      <trkpt lat="44.29808" lon="0.79545">
        <ele>155.39</ele>
        <time>2022-10-02T06:34:11Z</time>
      </trkpt>
      <trkpt lat="44.29821" lon="0.79552">
        <ele>156.35</ele>
        <time>2022-10-02T06:34:25Z</time>
      </trkpt>
      <trkpt lat="44.29842" lon="0.79603">
        <ele>153.95</ele>
        <time>2022-10-02T06:34:38Z</time>
      </trkpt>
      <trkpt lat="44.29869" lon="0.79639">
        <ele>153.47</ele>
        <time>2022-10-02T06:34:50Z</time>
      </trkpt>
      <trkpt lat="44.29872" lon="0.79639">
        <ele>153.47</ele>
        <time>2022-10-02T06:34:52Z</time>
      </trkpt>
      <trkpt lat="44.29873" lon="0.79632">
        <ele>156.35</ele>
        <time>2022-10-02T06:34:58Z</time>
      </trkpt>
      <trkpt lat="44.29868" lon="0.79618">
        <ele>159.72</ele>
        <time>2022-10-02T06:35:09Z</time>
      </trkpt>
      <trkpt lat="44.29868" lon="0.79615">
        <ele>159.72</ele>
        <time>2022-10-02T06:35:11Z</time>
      </trkpt>
      <trkpt lat="44.29865" lon="0.79589">
        <ele>164.04</ele>
        <time>2022-10-02T06:35:29Z</time>
      </trkpt>
      <trkpt lat="44.29865" lon="0.79586">
        <ele>164.04</ele>
        <time>2022-10-02T06:35:31Z</time>
      </trkpt>
      <trkpt lat="44.29863" lon="0.79571">
        <ele>165.48</ele>
        <time>2022-10-02T06:35:40Z</time>
      </trkpt>
      <trkpt lat="44.2986" lon="0.79551">
        <ele>169.33</ele>
        <time>2022-10-02T06:35:56Z</time>
      </trkpt>
      <trkpt lat="44.29853" lon="0.79531">
        <ele>171.25</ele>
        <time>2022-10-02T06:36:13Z</time>
      </trkpt>
      <trkpt lat="44.29853" lon="0.7953">
        <ele>171.25</ele>
        <time>2022-10-02T06:36:14Z</time>
      </trkpt>
      <trkpt lat="44.29851" lon="0.79521">
        <ele>172.21</ele>
        <time>2022-10-02T06:36:21Z</time>
      </trkpt>
      <trkpt lat="44.29844" lon="0.795">
        <ele>175.1</ele>
        <time>2022-10-02T06:36:40Z</time>
      </trkpt>
      <trkpt lat="44.29843" lon="0.79497">
        <ele>176.54</ele>
        <time>2022-10-02T06:36:43Z</time>
      </trkpt>
      <trkpt lat="44.29836" lon="0.79479">
        <ele>178.94</ele>
        <time>2022-10-02T06:36:59Z</time>
      </trkpt>
      <trkpt lat="44.29827" lon="0.79461">
        <ele>181.83</ele>
        <time>2022-10-02T06:37:13Z</time>
      </trkpt>
      <trkpt lat="44.29823" lon="0.79445">
        <ele>184.71</ele>
        <time>2022-10-02T06:37:25Z</time>
      </trkpt>
      <trkpt lat="44.29821" lon="0.79427">
        <ele>187.11</ele>
        <time>2022-10-02T06:37:41Z</time>
      </trkpt>
      <trkpt lat="44.29818" lon="0.79403">
        <ele>189.04</ele>
        <time>2022-10-02T06:37:59Z</time>
      </trkpt>
      <trkpt lat="44.29816" lon="0.79379">
        <ele>192.4</ele>
        <time>2022-10-02T06:38:13Z</time>
      </trkpt>
      <trkpt lat="44.29819" lon="0.79362">
        <ele>193.84</ele>
        <time>2022-10-02T06:38:24Z</time>
      </trkpt>
      <trkpt lat="44.29823" lon="0.79334">
        <ele>197.69</ele>
        <time>2022-10-02T06:38:43Z</time>
      </trkpt>
      <trkpt lat="44.29827" lon="0.79287">
        <ele>199.61</ele>
        <time>2022-10-02T06:39:02Z</time>
      </trkpt>
      <trkpt lat="44.29831" lon="0.79238">
        <ele>201.53</ele>
        <time>2022-10-02T06:39:20Z</time>
      </trkpt>
      <trkpt lat="44.29791" lon="0.79205">
        <ele>203.46</ele>
        <time>2022-10-02T06:39:39Z</time>
      </trkpt>
      <trkpt lat="44.29774" lon="0.79197">
        <ele>204.42</ele>
        <time>2022-10-02T06:39:46Z</time>
      </trkpt>
      <trkpt lat="44.29777" lon="0.79178">
        <ele>204.9</ele>
        <time>2022-10-02T06:39:52Z</time>
      </trkpt>
      <trkpt lat="44.2981" lon="0.79114">
        <ele>205.38</ele>
        <time>2022-10-02T06:40:08Z</time>
      </trkpt>
      <trkpt lat="44.2986" lon="0.79016">
        <ele>205.86</ele>
        <time>2022-10-02T06:40:28Z</time>
      </trkpt>
      <trkpt lat="44.29923" lon="0.78896">
        <ele>204.9</ele>
        <time>2022-10-02T06:40:50Z</time>
      </trkpt>
      <trkpt lat="44.2996" lon="0.78824">
        <ele>202.49</ele>
        <time>2022-10-02T06:41:02Z</time>
      </trkpt>
      <trkpt lat="44.29963" lon="0.7882">
        <ele>201.53</ele>
        <time>2022-10-02T06:41:03Z</time>
      </trkpt>
      <trkpt lat="44.29987" lon="0.78822">
        <ele>200.09</ele>
        <time>2022-10-02T06:41:09Z</time>
      </trkpt>
      <trkpt lat="44.30001" lon="0.78825">
        <ele>198.65</ele>
        <time>2022-10-02T06:41:12Z</time>
      </trkpt>
      <trkpt lat="44.30007" lon="0.78839">
        <ele>197.21</ele>
        <time>2022-10-02T06:41:15Z</time>
      </trkpt>
      <trkpt lat="44.30009" lon="0.78852">
        <ele>197.21</ele>
        <time>2022-10-02T06:41:18Z</time>
      </trkpt>
      <trkpt lat="44.30039" lon="0.78857">
        <ele>193.84</ele>
        <time>2022-10-02T06:41:26Z</time>
      </trkpt>
      <trkpt lat="44.30038" lon="0.78872">
        <ele>191.92</ele>
        <time>2022-10-02T06:41:31Z</time>
      </trkpt>
      <trkpt lat="44.30034" lon="0.78883">
        <ele>192.88</ele>
        <time>2022-10-02T06:41:35Z</time>
      </trkpt>
      <trkpt lat="44.30017" lon="0.78934">
        <ele>194.8</ele>
        <time>2022-10-02T06:41:50Z</time>
      </trkpt>
      <trkpt lat="44.30014" lon="0.78943">
        <ele>193.36</ele>
        <time>2022-10-02T06:41:52Z</time>
      </trkpt>
      <trkpt lat="44.30012" lon="0.78955">
        <ele>194.8</ele>
        <time>2022-10-02T06:41:54Z</time>
      </trkpt>
      <trkpt lat="44.3001" lon="0.78976">
        <ele>192.88</ele>
        <time>2022-10-02T06:41:57Z</time>
      </trkpt>
      <trkpt lat="44.30008" lon="0.7904">
        <ele>190</ele>
        <time>2022-10-02T06:42:05Z</time>
      </trkpt>
      <trkpt lat="44.30024" lon="0.7912">
        <ele>188.08</ele>
        <time>2022-10-02T06:42:19Z</time>
      </trkpt>
      <trkpt lat="44.30037" lon="0.79151">
        <ele>185.67</ele>
        <time>2022-10-02T06:42:24Z</time>
      </trkpt>
      <trkpt lat="44.30041" lon="0.79162">
        <ele>184.23</ele>
        <time>2022-10-02T06:42:26Z</time>
      </trkpt>
      <trkpt lat="44.30055" lon="0.79159">
        <ele>180.87</ele>
        <time>2022-10-02T06:42:31Z</time>
      </trkpt>
      <trkpt lat="44.30064" lon="0.79147">
        <ele>179.42</ele>
        <time>2022-10-02T06:42:33Z</time>
      </trkpt>
      <trkpt lat="44.30084" lon="0.79115">
        <ele>176.06</ele>
        <time>2022-10-02T06:42:37Z</time>
      </trkpt>
      <trkpt lat="44.30094" lon="0.79098">
        <ele>175.58</ele>
        <time>2022-10-02T06:42:39Z</time>
      </trkpt>
      <trkpt lat="44.30117" lon="0.79062">
        <ele>172.69</ele>
        <time>2022-10-02T06:42:43Z</time>
      </trkpt>
      <trkpt lat="44.30134" lon="0.79036">
        <ele>171.25</ele>
        <time>2022-10-02T06:42:46Z</time>
      </trkpt>
      <trkpt lat="44.30153" lon="0.79">
        <ele>167.41</ele>
        <time>2022-10-02T06:42:50Z</time>
      </trkpt>
      <trkpt lat="44.30163" lon="0.7898">
        <ele>166.93</ele>
        <time>2022-10-02T06:42:52Z</time>
      </trkpt>
      <trkpt lat="44.30188" lon="0.78944">
        <ele>163.56</ele>
        <time>2022-10-02T06:42:56Z</time>
      </trkpt>
      <trkpt lat="44.30211" lon="0.78912">
        <ele>159.72</ele>
        <time>2022-10-02T06:43:00Z</time>
      </trkpt>
      <trkpt lat="44.30229" lon="0.78893">
        <ele>156.35</ele>
        <time>2022-10-02T06:43:05Z</time>
      </trkpt>
      <trkpt lat="44.30231" lon="0.78892">
        <ele>156.35</ele>
        <time>2022-10-02T06:43:06Z</time>
      </trkpt>
      <trkpt lat="44.30232" lon="0.7889">
        <ele>156.35</ele>
        <time>2022-10-02T06:43:17Z</time>
      </trkpt>
      <trkpt lat="44.30233" lon="0.7889">
        <ele>155.87</ele>
        <time>2022-10-02T06:44:07Z</time>
      </trkpt>
      <trkpt lat="44.30234" lon="0.7889">
        <ele>156.83</ele>
        <time>2022-10-02T06:44:15Z</time>
      </trkpt>
      <trkpt lat="44.30264" lon="0.78865">
        <ele>154.91</ele>
        <time>2022-10-02T06:44:27Z</time>
      </trkpt>
      <trkpt lat="44.30311" lon="0.78816">
        <ele>153.47</ele>
        <time>2022-10-02T06:44:40Z</time>
      </trkpt>
      <trkpt lat="44.30316" lon="0.78812">
        <ele>153.47</ele>
        <time>2022-10-02T06:44:41Z</time>
      </trkpt>
      <trkpt lat="44.30331" lon="0.78802">
        <ele>152.99</ele>
        <time>2022-10-02T06:44:44Z</time>
      </trkpt>
      <trkpt lat="44.30363" lon="0.78794">
        <ele>154.91</ele>
        <time>2022-10-02T06:44:52Z</time>
      </trkpt>
      <trkpt lat="44.30388" lon="0.78785">
        <ele>158.27</ele>
        <time>2022-10-02T06:45:02Z</time>
      </trkpt>
      <trkpt lat="44.30412" lon="0.78773">
        <ele>161.64</ele>
        <time>2022-10-02T06:45:16Z</time>
      </trkpt>
      <trkpt lat="44.30439" lon="0.78767">
        <ele>165</ele>
        <time>2022-10-02T06:45:31Z</time>
      </trkpt>
      <trkpt lat="44.30451" lon="0.78768">
        <ele>165.96</ele>
        <time>2022-10-02T06:45:38Z</time>
      </trkpt>
      <trkpt lat="44.30493" lon="0.78776">
        <ele>164.52</ele>
        <time>2022-10-02T06:45:51Z</time>
      </trkpt>
      <trkpt lat="44.3053" lon="0.78786">
        <ele>162.6</ele>
        <time>2022-10-02T06:45:59Z</time>
      </trkpt>
      <trkpt lat="44.30555" lon="0.78751">
        <ele>160.68</ele>
        <time>2022-10-02T06:46:07Z</time>
      </trkpt>
      <trkpt lat="44.30563" lon="0.78737">
        <ele>160.2</ele>
        <time>2022-10-02T06:46:09Z</time>
      </trkpt>
      <trkpt lat="44.30577" lon="0.78716">
        <ele>159.24</ele>
        <time>2022-10-02T06:46:12Z</time>
      </trkpt>
      <trkpt lat="44.30622" lon="0.78696">
        <ele>157.79</ele>
        <time>2022-10-02T06:46:20Z</time>
      </trkpt>
      <trkpt lat="44.30644" lon="0.78671">
        <ele>154.43</ele>
        <time>2022-10-02T06:46:24Z</time>
      </trkpt>
      <trkpt lat="44.30648" lon="0.78652">
        <ele>152.99</ele>
        <time>2022-10-02T06:46:26Z</time>
      </trkpt>
      <trkpt lat="44.30649" lon="0.78634">
        <ele>152.99</ele>
        <time>2022-10-02T06:46:28Z</time>
      </trkpt>
      <trkpt lat="44.30644" lon="0.78589">
        <ele>148.18</ele>
        <time>2022-10-02T06:46:32Z</time>
      </trkpt>
      <trkpt lat="44.30639" lon="0.78548">
        <ele>144.34</ele>
        <time>2022-10-02T06:46:35Z</time>
      </trkpt>
      <trkpt lat="44.30633" lon="0.78508">
        <ele>140.97</ele>
        <time>2022-10-02T06:46:38Z</time>
      </trkpt>
      <trkpt lat="44.3063" lon="0.78483">
        <ele>137.61</ele>
        <time>2022-10-02T06:46:40Z</time>
      </trkpt>
      <trkpt lat="44.30624" lon="0.78446">
        <ele>133.28</ele>
        <time>2022-10-02T06:46:43Z</time>
      </trkpt>
      <trkpt lat="44.30608" lon="0.7841">
        <ele>130.4</ele>
        <time>2022-10-02T06:46:47Z</time>
      </trkpt>
      <trkpt lat="44.30597" lon="0.78399">
        <ele>130.4</ele>
        <time>2022-10-02T06:46:49Z</time>
      </trkpt>
      <trkpt lat="44.30551" lon="0.78353">
        <ele>132.32</ele>
        <time>2022-10-02T06:46:58Z</time>
      </trkpt>
      <trkpt lat="44.30547" lon="0.78349">
        <ele>132.8</ele>
        <time>2022-10-02T06:46:59Z</time>
      </trkpt>
      <trkpt lat="44.30526" lon="0.78351">
        <ele>135.2</ele>
        <time>2022-10-02T06:47:05Z</time>
      </trkpt>
      <trkpt lat="44.30517" lon="0.78367">
        <ele>135.68</ele>
        <time>2022-10-02T06:47:09Z</time>
      </trkpt>
      <trkpt lat="44.305" lon="0.78383">
        <ele>136.64</ele>
        <time>2022-10-02T06:47:14Z</time>
      </trkpt>
      <trkpt lat="44.30439" lon="0.78417">
        <ele>138.09</ele>
        <time>2022-10-02T06:47:32Z</time>
      </trkpt>
      <trkpt lat="44.30377" lon="0.78453">
        <ele>138.09</ele>
        <time>2022-10-02T06:47:48Z</time>
      </trkpt>
      <trkpt lat="44.30328" lon="0.78479">
        <ele>138.57</ele>
        <time>2022-10-02T06:48:01Z</time>
      </trkpt>
      <trkpt lat="44.30278" lon="0.78461">
        <ele>139.53</ele>
        <time>2022-10-02T06:48:15Z</time>
      </trkpt>
      <trkpt lat="44.30229" lon="0.78409">
        <ele>140.97</ele>
        <time>2022-10-02T06:48:31Z</time>
      </trkpt>
      <trkpt lat="44.3019" lon="0.78371">
        <ele>143.37</ele>
        <time>2022-10-02T06:48:47Z</time>
      </trkpt>
      <trkpt lat="44.30141" lon="0.78348">
        <ele>146.26</ele>
        <time>2022-10-02T06:49:05Z</time>
      </trkpt>
      <trkpt lat="44.30085" lon="0.78353">
        <ele>147.22</ele>
        <time>2022-10-02T06:49:22Z</time>
      </trkpt>
      <trkpt lat="44.30028" lon="0.78366">
        <ele>149.14</ele>
        <time>2022-10-02T06:49:39Z</time>
      </trkpt>
      <trkpt lat="44.29985" lon="0.78373">
        <ele>151.06</ele>
        <time>2022-10-02T06:49:56Z</time>
      </trkpt>
      <trkpt lat="44.29953" lon="0.78384">
        <ele>152.99</ele>
        <time>2022-10-02T06:50:10Z</time>
      </trkpt>
      <trkpt lat="44.29908" lon="0.78411">
        <ele>154.43</ele>
        <time>2022-10-02T06:50:27Z</time>
      </trkpt>
      <trkpt lat="44.29871" lon="0.78438">
        <ele>155.87</ele>
        <time>2022-10-02T06:50:41Z</time>
      </trkpt>
      <trkpt lat="44.29813" lon="0.78442">
        <ele>157.79</ele>
        <time>2022-10-02T06:50:58Z</time>
      </trkpt>
      <trkpt lat="44.29783" lon="0.78439">
        <ele>159.72</ele>
        <time>2022-10-02T06:51:12Z</time>
      </trkpt>
      <trkpt lat="44.29735" lon="0.78428">
        <ele>162.6</ele>
        <time>2022-10-02T06:51:29Z</time>
      </trkpt>
      <trkpt lat="44.29686" lon="0.78407">
        <ele>163.08</ele>
        <time>2022-10-02T06:51:45Z</time>
      </trkpt>
      <trkpt lat="44.29683" lon="0.78407">
        <ele>163.08</ele>
        <time>2022-10-02T06:51:46Z</time>
      </trkpt>
      <trkpt lat="44.29677" lon="0.78421">
        <ele>163.08</ele>
        <time>2022-10-02T06:51:51Z</time>
      </trkpt>
      <trkpt lat="44.29679" lon="0.78448">
        <ele>164.04</ele>
        <time>2022-10-02T06:51:58Z</time>
      </trkpt>
      <trkpt lat="44.29661" lon="0.78459">
        <ele>165.96</ele>
        <time>2022-10-02T06:52:06Z</time>
      </trkpt>
      <trkpt lat="44.29617" lon="0.7848">
        <ele>169.33</ele>
        <time>2022-10-02T06:52:24Z</time>
      </trkpt>
      <trkpt lat="44.2959" lon="0.7852">
        <ele>170.77</ele>
        <time>2022-10-02T06:52:39Z</time>
      </trkpt>
      <trkpt lat="44.29556" lon="0.7856">
        <ele>171.73</ele>
        <time>2022-10-02T06:52:53Z</time>
      </trkpt>
      <trkpt lat="44.29523" lon="0.78586">
        <ele>174.14</ele>
        <time>2022-10-02T06:53:06Z</time>
      </trkpt>
      <trkpt lat="44.29521" lon="0.78599">
        <ele>175.1</ele>
        <time>2022-10-02T06:53:12Z</time>
      </trkpt>
      <trkpt lat="44.29522" lon="0.78604">
        <ele>175.58</ele>
        <time>2022-10-02T06:53:14Z</time>
      </trkpt>
      <trkpt lat="44.2952" lon="0.78614">
        <ele>176.54</ele>
        <time>2022-10-02T06:53:21Z</time>
      </trkpt>
      <trkpt lat="44.2952" lon="0.78641">
        <ele>179.9</ele>
        <time>2022-10-02T06:53:36Z</time>
      </trkpt>
      <trkpt lat="44.29518" lon="0.78679">
        <ele>183.27</ele>
        <time>2022-10-02T06:53:49Z</time>
      </trkpt>
      <trkpt lat="44.29492" lon="0.78695">
        <ele>185.67</ele>
        <time>2022-10-02T06:54:04Z</time>
      </trkpt>
      <trkpt lat="44.29476" lon="0.78686">
        <ele>189.04</ele>
        <time>2022-10-02T06:54:18Z</time>
      </trkpt>
      <trkpt lat="44.29468" lon="0.78687">
        <ele>190.96</ele>
        <time>2022-10-02T06:54:26Z</time>
      </trkpt>
      <trkpt lat="44.29449" lon="0.78706">
        <ele>193.84</ele>
        <time>2022-10-02T06:54:43Z</time>
      </trkpt>
      <trkpt lat="44.29437" lon="0.78746">
        <ele>195.77</ele>
        <time>2022-10-02T06:54:58Z</time>
      </trkpt>
      <trkpt lat="44.29426" lon="0.7878">
        <ele>199.13</ele>
        <time>2022-10-02T06:55:12Z</time>
      </trkpt>
      <trkpt lat="44.29405" lon="0.78842">
        <ele>201.53</ele>
        <time>2022-10-02T06:55:31Z</time>
      </trkpt>
      <trkpt lat="44.2939" lon="0.78881">
        <ele>202.49</ele>
        <time>2022-10-02T06:55:43Z</time>
      </trkpt>
      <trkpt lat="44.29355" lon="0.78875">
        <ele>203.94</ele>
        <time>2022-10-02T06:55:55Z</time>
      </trkpt>
      <trkpt lat="44.29287" lon="0.78854">
        <ele>206.34</ele>
        <time>2022-10-02T06:56:18Z</time>
      </trkpt>
      <trkpt lat="44.29239" lon="0.78848">
        <ele>209.7</ele>
        <time>2022-10-02T06:56:34Z</time>
      </trkpt>
      <trkpt lat="44.29193" lon="0.78838">
        <ele>209.22</ele>
        <time>2022-10-02T06:56:47Z</time>
      </trkpt>
      <trkpt lat="44.29183" lon="0.78857">
        <ele>209.22</ele>
        <time>2022-10-02T06:56:52Z</time>
      </trkpt>
      <trkpt lat="44.29184" lon="0.78878">
        <ele>210.67</ele>
        <time>2022-10-02T06:56:56Z</time>
      </trkpt>
      <trkpt lat="44.29185" lon="0.78962">
        <ele>211.15</ele>
        <time>2022-10-02T06:57:12Z</time>
      </trkpt>
      <trkpt lat="44.29185" lon="0.78972">
        <ele>212.59</ele>
        <time>2022-10-02T06:57:14Z</time>
      </trkpt>
      <trkpt lat="44.2918" lon="0.79083">
        <ele>211.63</ele>
        <time>2022-10-02T06:57:31Z</time>
      </trkpt>
      <trkpt lat="44.2918" lon="0.79091">
        <ele>211.63</ele>
        <time>2022-10-02T06:57:32Z</time>
      </trkpt>
      <trkpt lat="44.29177" lon="0.79159">
        <ele>211.15</ele>
        <time>2022-10-02T06:57:40Z</time>
      </trkpt>
      <trkpt lat="44.29158" lon="0.7921">
        <ele>209.22</ele>
        <time>2022-10-02T06:57:46Z</time>
      </trkpt>
      <trkpt lat="44.29147" lon="0.79224">
        <ele>208.26</ele>
        <time>2022-10-02T06:57:48Z</time>
      </trkpt>
      <trkpt lat="44.29073" lon="0.79292">
        <ele>205.38</ele>
        <time>2022-10-02T06:58:00Z</time>
      </trkpt>
      <trkpt lat="44.2906" lon="0.79313">
        <ele>204.9</ele>
        <time>2022-10-02T06:58:03Z</time>
      </trkpt>
      <trkpt lat="44.29056" lon="0.79357">
        <ele>203.46</ele>
        <time>2022-10-02T06:58:08Z</time>
      </trkpt>
      <trkpt lat="44.29058" lon="0.79395">
        <ele>201.53</ele>
        <time>2022-10-02T06:58:12Z</time>
      </trkpt>
      <trkpt lat="44.29041" lon="0.79433">
        <ele>198.17</ele>
        <time>2022-10-02T06:58:16Z</time>
      </trkpt>
      <trkpt lat="44.29005" lon="0.79462">
        <ele>194.8</ele>
        <time>2022-10-02T06:58:21Z</time>
      </trkpt>
      <trkpt lat="44.28982" lon="0.79479">
        <ele>192.4</ele>
        <time>2022-10-02T06:58:24Z</time>
      </trkpt>
      <trkpt lat="44.28963" lon="0.79507">
        <ele>188.56</ele>
        <time>2022-10-02T06:58:28Z</time>
      </trkpt>
      <trkpt lat="44.28963" lon="0.79521">
        <ele>187.59</ele>
        <time>2022-10-02T06:58:30Z</time>
      </trkpt>
      <trkpt lat="44.28966" lon="0.79546">
        <ele>189.52</ele>
        <time>2022-10-02T06:58:36Z</time>
      </trkpt>
      <trkpt lat="44.28967" lon="0.79556">
        <ele>191.44</ele>
        <time>2022-10-02T06:58:40Z</time>
      </trkpt>
      <trkpt lat="44.28964" lon="0.79574">
        <ele>194.8</ele>
        <time>2022-10-02T06:58:48Z</time>
      </trkpt>
      <trkpt lat="44.28952" lon="0.79613">
        <ele>198.17</ele>
        <time>2022-10-02T06:59:03Z</time>
      </trkpt>
      <trkpt lat="44.28939" lon="0.79654">
        <ele>200.09</ele>
        <time>2022-10-02T06:59:19Z</time>
      </trkpt>
      <trkpt lat="44.28927" lon="0.79654">
        <ele>200.57</ele>
        <time>2022-10-02T06:59:24Z</time>
      </trkpt>
      <trkpt lat="44.28881" lon="0.79657">
        <ele>198.65</ele>
        <time>2022-10-02T06:59:32Z</time>
      </trkpt>
      <trkpt lat="44.28849" lon="0.79638">
        <ele>197.21</ele>
        <time>2022-10-02T06:59:39Z</time>
      </trkpt>
      <trkpt lat="44.28811" lon="0.79593">
        <ele>200.57</ele>
        <time>2022-10-02T06:59:52Z</time>
      </trkpt>
      <trkpt lat="44.28769" lon="0.79542">
        <ele>203.46</ele>
        <time>2022-10-02T07:00:10Z</time>
      </trkpt>
      <trkpt lat="44.28715" lon="0.79535">
        <ele>206.82</ele>
        <time>2022-10-02T07:00:29Z</time>
      </trkpt>
      <trkpt lat="44.28667" lon="0.79537">
        <ele>209.7</ele>
        <time>2022-10-02T07:00:46Z</time>
      </trkpt>
      <trkpt lat="44.286" lon="0.7955">
        <ele>212.59</ele>
        <time>2022-10-02T07:01:09Z</time>
      </trkpt>
      <trkpt lat="44.28539" lon="0.79563">
        <ele>214.51</ele>
        <time>2022-10-02T07:01:29Z</time>
      </trkpt>
      <trkpt lat="44.28525" lon="0.7954">
        <ele>214.51</ele>
        <time>2022-10-02T07:01:35Z</time>
      </trkpt>
      <trkpt lat="44.28492" lon="0.79469">
        <ele>214.51</ele>
        <time>2022-10-02T07:01:51Z</time>
      </trkpt>
      <trkpt lat="44.28455" lon="0.79391">
        <ele>214.51</ele>
        <time>2022-10-02T07:02:07Z</time>
      </trkpt>
      <trkpt lat="44.28414" lon="0.79309">
        <ele>214.99</ele>
        <time>2022-10-02T07:02:24Z</time>
      </trkpt>
      <trkpt lat="44.28412" lon="0.79304">
        <ele>214.99</ele>
        <time>2022-10-02T07:02:25Z</time>
      </trkpt>
      <trkpt lat="44.28384" lon="0.79218">
        <ele>215.95</ele>
        <time>2022-10-02T07:02:42Z</time>
      </trkpt>
      <trkpt lat="44.28361" lon="0.79156">
        <ele>218.84</ele>
        <time>2022-10-02T07:02:58Z</time>
      </trkpt>
      <trkpt lat="44.28333" lon="0.79119">
        <ele>220.28</ele>
        <time>2022-10-02T07:03:12Z</time>
      </trkpt>
      <trkpt lat="44.28302" lon="0.79084">
        <ele>220.76</ele>
        <time>2022-10-02T07:03:25Z</time>
      </trkpt>
      <trkpt lat="44.28276" lon="0.7906">
        <ele>219.8</ele>
        <time>2022-10-02T07:03:33Z</time>
      </trkpt>
      <trkpt lat="44.28258" lon="0.79042">
        <ele>219.32</ele>
        <time>2022-10-02T07:03:38Z</time>
      </trkpt>
      <trkpt lat="44.28197" lon="0.78989">
        <ele>214.99</ele>
        <time>2022-10-02T07:03:51Z</time>
      </trkpt>
      <trkpt lat="44.28191" lon="0.78984">
        <ele>214.99</ele>
        <time>2022-10-02T07:03:52Z</time>
      </trkpt>
      <trkpt lat="44.28142" lon="0.78945">
        <ele>212.11</ele>
        <time>2022-10-02T07:04:01Z</time>
      </trkpt>
      <trkpt lat="44.28084" lon="0.789">
        <ele>211.63</ele>
        <time>2022-10-02T07:04:14Z</time>
      </trkpt>
      <trkpt lat="44.28072" lon="0.78903">
        <ele>211.63</ele>
        <time>2022-10-02T07:04:18Z</time>
      </trkpt>
      <trkpt lat="44.28038" lon="0.78932">
        <ele>213.07</ele>
        <time>2022-10-02T07:04:27Z</time>
      </trkpt>
      <trkpt lat="44.27991" lon="0.7896">
        <ele>214.03</ele>
        <time>2022-10-02T07:04:42Z</time>
      </trkpt>
      <trkpt lat="44.27954" lon="0.79011">
        <ele>214.03</ele>
        <time>2022-10-02T07:04:57Z</time>
      </trkpt>
      <trkpt lat="44.27916" lon="0.79075">
        <ele>212.11</ele>
        <time>2022-10-02T07:05:12Z</time>
      </trkpt>
      <trkpt lat="44.27871" lon="0.79147">
        <ele>211.63</ele>
        <time>2022-10-02T07:05:29Z</time>
      </trkpt>
      <trkpt lat="44.27857" lon="0.79166">
        <ele>211.63</ele>
        <time>2022-10-02T07:05:35Z</time>
      </trkpt>
      <trkpt lat="44.27861" lon="0.79176">
        <ele>210.67</ele>
        <time>2022-10-02T07:05:39Z</time>
      </trkpt>
      <trkpt lat="44.27923" lon="0.79232">
        <ele>209.22</ele>
        <time>2022-10-02T07:05:56Z</time>
      </trkpt>
      <trkpt lat="44.27968" lon="0.79281">
        <ele>209.7</ele>
        <time>2022-10-02T07:06:11Z</time>
      </trkpt>
      <trkpt lat="44.28005" lon="0.79319">
        <ele>210.19</ele>
        <time>2022-10-02T07:06:23Z</time>
      </trkpt>
      <trkpt lat="44.28034" lon="0.79346">
        <ele>208.26</ele>
        <time>2022-10-02T07:06:31Z</time>
      </trkpt>
      <trkpt lat="44.28043" lon="0.79354">
        <ele>209.7</ele>
        <time>2022-10-02T07:06:33Z</time>
      </trkpt>
      <trkpt lat="44.28055" lon="0.79367">
        <ele>207.78</ele>
        <time>2022-10-02T07:06:36Z</time>
      </trkpt>
      <trkpt lat="44.28067" lon="0.7938">
        <ele>207.78</ele>
        <time>2022-10-02T07:06:39Z</time>
      </trkpt>
      <trkpt lat="44.28119" lon="0.79473">
        <ele>207.3</ele>
        <time>2022-10-02T07:06:56Z</time>
      </trkpt>
      <trkpt lat="44.28163" lon="0.79537">
        <ele>207.3</ele>
        <time>2022-10-02T07:07:12Z</time>
      </trkpt>
      <trkpt lat="44.28183" lon="0.79567">
        <ele>203.94</ele>
        <time>2022-10-02T07:07:20Z</time>
      </trkpt>
      <trkpt lat="44.28187" lon="0.79573">
        <ele>202.98</ele>
        <time>2022-10-02T07:07:22Z</time>
      </trkpt>
      <trkpt lat="44.28175" lon="0.79589">
        <ele>201.53</ele>
        <time>2022-10-02T07:07:27Z</time>
      </trkpt>
      <trkpt lat="44.28158" lon="0.79589">
        <ele>199.61</ele>
        <time>2022-10-02T07:07:30Z</time>
      </trkpt>
      <trkpt lat="44.28126" lon="0.79573">
        <ele>198.17</ele>
        <time>2022-10-02T07:07:36Z</time>
      </trkpt>
      <trkpt lat="44.28117" lon="0.79566">
        <ele>197.21</ele>
        <time>2022-10-02T07:07:38Z</time>
      </trkpt>
      <trkpt lat="44.28107" lon="0.7958">
        <ele>194.32</ele>
        <time>2022-10-02T07:07:43Z</time>
      </trkpt>
      <trkpt lat="44.28107" lon="0.79593">
        <ele>190.96</ele>
        <time>2022-10-02T07:07:46Z</time>
      </trkpt>
      <trkpt lat="44.28106" lon="0.79595">
        <ele>190.96</ele>
        <time>2022-10-02T07:07:47Z</time>
      </trkpt>
      <trkpt lat="44.28095" lon="0.79593">
        <ele>187.11</ele>
        <time>2022-10-02T07:07:53Z</time>
      </trkpt>
      <trkpt lat="44.28092" lon="0.79592">
        <ele>187.11</ele>
        <time>2022-10-02T07:07:54Z</time>
      </trkpt>
      <trkpt lat="44.28084" lon="0.7959">
        <ele>184.23</ele>
        <time>2022-10-02T07:07:57Z</time>
      </trkpt>
      <trkpt lat="44.28075" lon="0.7959">
        <ele>183.27</ele>
        <time>2022-10-02T07:08:01Z</time>
      </trkpt>
      <trkpt lat="44.28063" lon="0.796">
        <ele>182.31</ele>
        <time>2022-10-02T07:08:07Z</time>
      </trkpt>
      <trkpt lat="44.28056" lon="0.79609">
        <ele>181.35</ele>
        <time>2022-10-02T07:08:12Z</time>
      </trkpt>
      <trkpt lat="44.28021" lon="0.79636">
        <ele>177.98</ele>
        <time>2022-10-02T07:08:24Z</time>
      </trkpt>
      <trkpt lat="44.28015" lon="0.79642">
        <ele>176.06</ele>
        <time>2022-10-02T07:08:27Z</time>
      </trkpt>
      <trkpt lat="44.28012" lon="0.79646">
        <ele>177.02</ele>
        <time>2022-10-02T07:08:29Z</time>
      </trkpt>
      <trkpt lat="44.28002" lon="0.7966">
        <ele>174.62</ele>
        <time>2022-10-02T07:08:33Z</time>
      </trkpt>
      <trkpt lat="44.27977" lon="0.79722">
        <ele>173.66</ele>
        <time>2022-10-02T07:08:43Z</time>
      </trkpt>
      <trkpt lat="44.27966" lon="0.79758">
        <ele>175.1</ele>
        <time>2022-10-02T07:08:50Z</time>
      </trkpt>
      <trkpt lat="44.2795" lon="0.79797">
        <ele>178.46</ele>
        <time>2022-10-02T07:09:03Z</time>
      </trkpt>
      <trkpt lat="44.27946" lon="0.79818">
        <ele>181.35</ele>
        <time>2022-10-02T07:09:13Z</time>
      </trkpt>
      <trkpt lat="44.27943" lon="0.79827">
        <ele>182.31</ele>
        <time>2022-10-02T07:09:17Z</time>
      </trkpt>
      <trkpt lat="44.27937" lon="0.79831">
        <ele>182.31</ele>
        <time>2022-10-02T07:09:21Z</time>
      </trkpt>
      <trkpt lat="44.27923" lon="0.79823">
        <ele>178.94</ele>
        <time>2022-10-02T07:09:28Z</time>
      </trkpt>
      <trkpt lat="44.2792" lon="0.79822">
        <ele>178.94</ele>
        <time>2022-10-02T07:09:29Z</time>
      </trkpt>
      <trkpt lat="44.2791" lon="0.7982">
        <ele>177.02</ele>
        <time>2022-10-02T07:09:31Z</time>
      </trkpt>
      <trkpt lat="44.27888" lon="0.7982">
        <ele>175.58</ele>
        <time>2022-10-02T07:09:33Z</time>
      </trkpt>
      <trkpt lat="44.27871" lon="0.79826">
        <ele>174.62</ele>
        <time>2022-10-02T07:09:35Z</time>
      </trkpt>
      <trkpt lat="44.27841" lon="0.79849">
        <ele>173.17</ele>
        <time>2022-10-02T07:09:40Z</time>
      </trkpt>
      <trkpt lat="44.27819" lon="0.79897">
        <ele>170.77</ele>
        <time>2022-10-02T07:09:47Z</time>
      </trkpt>
      <trkpt lat="44.27812" lon="0.79936">
        <ele>167.89</ele>
        <time>2022-10-02T07:09:52Z</time>
      </trkpt>
      <trkpt lat="44.27808" lon="0.79949">
        <ele>166.93</ele>
        <time>2022-10-02T07:09:54Z</time>
      </trkpt>
      <trkpt lat="44.27794" lon="0.80025">
        <ele>162.12</ele>
        <time>2022-10-02T07:10:04Z</time>
      </trkpt>
      <trkpt lat="44.27792" lon="0.80033">
        <ele>162.12</ele>
        <time>2022-10-02T07:10:05Z</time>
      </trkpt>
      <trkpt lat="44.27791" lon="0.80042">
        <ele>161.64</ele>
        <time>2022-10-02T07:10:06Z</time>
      </trkpt>
      <trkpt lat="44.27783" lon="0.80062">
        <ele>160.2</ele>
        <time>2022-10-02T07:10:09Z</time>
      </trkpt>
      <trkpt lat="44.27763" lon="0.80092">
        <ele>157.79</ele>
        <time>2022-10-02T07:10:14Z</time>
      </trkpt>
      <trkpt lat="44.27756" lon="0.801">
        <ele>155.87</ele>
        <time>2022-10-02T07:10:21Z</time>
      </trkpt>
      <trkpt lat="44.27757" lon="0.80102">
        <ele>157.79</ele>
        <time>2022-10-02T07:10:27Z</time>
      </trkpt>
      <trkpt lat="44.27752" lon="0.80111">
        <ele>157.31</ele>
        <time>2022-10-02T07:10:39Z</time>
      </trkpt>
      <trkpt lat="44.27751" lon="0.80113">
        <ele>157.31</ele>
        <time>2022-10-02T07:10:40Z</time>
      </trkpt>
      <trkpt lat="44.27734" lon="0.80168">
        <ele>160.68</ele>
        <time>2022-10-02T07:10:56Z</time>
      </trkpt>
      <trkpt lat="44.2773" lon="0.80178">
        <ele>159.24</ele>
        <time>2022-10-02T07:10:59Z</time>
      </trkpt>
      <trkpt lat="44.27726" lon="0.80187">
        <ele>160.68</ele>
        <time>2022-10-02T07:11:01Z</time>
      </trkpt>
      <trkpt lat="44.27719" lon="0.80206">
        <ele>158.75</ele>
        <time>2022-10-02T07:11:04Z</time>
      </trkpt>
      <trkpt lat="44.27714" lon="0.80228">
        <ele>157.31</ele>
        <time>2022-10-02T07:11:07Z</time>
      </trkpt>
      <trkpt lat="44.27708" lon="0.80261">
        <ele>153.95</ele>
        <time>2022-10-02T07:11:11Z</time>
      </trkpt>
      <trkpt lat="44.27705" lon="0.80289">
        <ele>150.58</ele>
        <time>2022-10-02T07:11:14Z</time>
      </trkpt>
      <trkpt lat="44.27704" lon="0.80297">
        <ele>150.58</ele>
        <time>2022-10-02T07:11:15Z</time>
      </trkpt>
      <trkpt lat="44.27704" lon="0.80329">
        <ele>147.7</ele>
        <time>2022-10-02T07:11:19Z</time>
      </trkpt>
      <trkpt lat="44.27713" lon="0.80369">
        <ele>144.82</ele>
        <time>2022-10-02T07:11:24Z</time>
      </trkpt>
      <trkpt lat="44.27715" lon="0.80405">
        <ele>141.93</ele>
        <time>2022-10-02T07:11:28Z</time>
      </trkpt>
      <trkpt lat="44.27716" lon="0.80413">
        <ele>141.93</ele>
        <time>2022-10-02T07:11:29Z</time>
      </trkpt>
      <trkpt lat="44.27716" lon="0.80427">
        <ele>140.01</ele>
        <time>2022-10-02T07:11:31Z</time>
      </trkpt>
      <trkpt lat="44.27718" lon="0.80456">
        <ele>136.64</ele>
        <time>2022-10-02T07:11:36Z</time>
      </trkpt>
      <trkpt lat="44.27718" lon="0.80479">
        <ele>133.28</ele>
        <time>2022-10-02T07:11:40Z</time>
      </trkpt>
      <trkpt lat="44.27718" lon="0.80484">
        <ele>133.28</ele>
        <time>2022-10-02T07:11:41Z</time>
      </trkpt>
      <trkpt lat="44.27718" lon="0.805">
        <ele>130.88</ele>
        <time>2022-10-02T07:11:44Z</time>
      </trkpt>
      <trkpt lat="44.2772" lon="0.80523">
        <ele>129.92</ele>
        <time>2022-10-02T07:11:47Z</time>
      </trkpt>
      <trkpt lat="44.2772" lon="0.80539">
        <ele>128.95</ele>
        <time>2022-10-02T07:11:49Z</time>
      </trkpt>
      <trkpt lat="44.27715" lon="0.80566">
        <ele>128.95</ele>
        <time>2022-10-02T07:11:54Z</time>
      </trkpt>
      <trkpt lat="44.27712" lon="0.80578">
        <ele>130.4</ele>
        <time>2022-10-02T07:11:57Z</time>
      </trkpt>
      <trkpt lat="44.27704" lon="0.80623">
        <ele>129.92</ele>
        <time>2022-10-02T07:12:05Z</time>
      </trkpt>
      <trkpt lat="44.27694" lon="0.80698">
        <ele>128.47</ele>
        <time>2022-10-02T07:12:14Z</time>
      </trkpt>
      <trkpt lat="44.27686" lon="0.80721">
        <ele>128.47</ele>
        <time>2022-10-02T07:12:19Z</time>
      </trkpt>
      <trkpt lat="44.27684" lon="0.80725">
        <ele>129.92</ele>
        <time>2022-10-02T07:12:21Z</time>
      </trkpt>
      <trkpt lat="44.2768" lon="0.80729">
        <ele>131.36</ele>
        <time>2022-10-02T07:12:24Z</time>
      </trkpt>
      <trkpt lat="44.2766" lon="0.80749">
        <ele>131.36</ele>
        <time>2022-10-02T07:12:32Z</time>
      </trkpt>
      <trkpt lat="44.27621" lon="0.80785">
        <ele>128.47</ele>
        <time>2022-10-02T07:12:41Z</time>
      </trkpt>
      <trkpt lat="44.27597" lon="0.80822">
        <ele>127.03</ele>
        <time>2022-10-02T07:12:47Z</time>
      </trkpt>
      <trkpt lat="44.27597" lon="0.80868">
        <ele>125.59</ele>
        <time>2022-10-02T07:12:55Z</time>
      </trkpt>
      <trkpt lat="44.27607" lon="0.8088">
        <ele>125.59</ele>
        <time>2022-10-02T07:12:58Z</time>
      </trkpt>
      <trkpt lat="44.27626" lon="0.80946">
        <ele>125.11</ele>
        <time>2022-10-02T07:13:11Z</time>
      </trkpt>
      <trkpt lat="44.27608" lon="0.80962">
        <ele>125.11</ele>
        <time>2022-10-02T07:13:17Z</time>
      </trkpt>
      <trkpt lat="44.2759" lon="0.80975">
        <ele>128.47</ele>
        <time>2022-10-02T07:13:28Z</time>
      </trkpt>
      <trkpt lat="44.27591" lon="0.80989">
        <ele>130.4</ele>
        <time>2022-10-02T07:13:38Z</time>
      </trkpt>
      <trkpt lat="44.27618" lon="0.81033">
        <ele>131.84</ele>
        <time>2022-10-02T07:13:56Z</time>
      </trkpt>
      <trkpt lat="44.2764" lon="0.81074">
        <ele>133.76</ele>
        <time>2022-10-02T07:14:12Z</time>
      </trkpt>
      <trkpt lat="44.27665" lon="0.81116">
        <ele>136.16</ele>
        <time>2022-10-02T07:14:29Z</time>
      </trkpt>
      <trkpt lat="44.27685" lon="0.81154">
        <ele>139.05</ele>
        <time>2022-10-02T07:14:47Z</time>
      </trkpt>
      <trkpt lat="44.27702" lon="0.81177">
        <ele>141.93</ele>
        <time>2022-10-02T07:15:03Z</time>
      </trkpt>
      <trkpt lat="44.27713" lon="0.81205">
        <ele>145.3</ele>
        <time>2022-10-02T07:15:21Z</time>
      </trkpt>
      <trkpt lat="44.27716" lon="0.81227">
        <ele>148.66</ele>
        <time>2022-10-02T07:15:35Z</time>
      </trkpt>
      <trkpt lat="44.27723" lon="0.81244">
        <ele>152.03</ele>
        <time>2022-10-02T07:15:53Z</time>
      </trkpt>
      <trkpt lat="44.27732" lon="0.81262">
        <ele>154.91</ele>
        <time>2022-10-02T07:16:10Z</time>
      </trkpt>
      <trkpt lat="44.27738" lon="0.81282">
        <ele>158.27</ele>
        <time>2022-10-02T07:16:26Z</time>
      </trkpt>
      <trkpt lat="44.27744" lon="0.81298">
        <ele>158.75</ele>
        <time>2022-10-02T07:16:35Z</time>
      </trkpt>
      <trkpt lat="44.27758" lon="0.81341">
        <ele>161.16</ele>
        <time>2022-10-02T07:16:56Z</time>
      </trkpt>
      <trkpt lat="44.27763" lon="0.8136">
        <ele>164.04</ele>
        <time>2022-10-02T07:17:08Z</time>
      </trkpt>
      <trkpt lat="44.27769" lon="0.81392">
        <ele>167.41</ele>
        <time>2022-10-02T07:17:28Z</time>
      </trkpt>
      <trkpt lat="44.27772" lon="0.81423">
        <ele>170.77</ele>
        <time>2022-10-02T07:17:40Z</time>
      </trkpt>
      <trkpt lat="44.27774" lon="0.81427">
        <ele>170.77</ele>
        <time>2022-10-02T07:17:41Z</time>
      </trkpt>
      <trkpt lat="44.27806" lon="0.81441">
        <ele>172.21</ele>
        <time>2022-10-02T07:17:59Z</time>
      </trkpt>
      <trkpt lat="44.27831" lon="0.81432">
        <ele>175.58</ele>
        <time>2022-10-02T07:18:16Z</time>
      </trkpt>
      <trkpt lat="44.27838" lon="0.81431">
        <ele>175.58</ele>
        <time>2022-10-02T07:18:22Z</time>
      </trkpt>
      <trkpt lat="44.27867" lon="0.81436">
        <ele>177.98</ele>
        <time>2022-10-02T07:18:39Z</time>
      </trkpt>
      <trkpt lat="44.27894" lon="0.81433">
        <ele>180.38</ele>
        <time>2022-10-02T07:18:55Z</time>
      </trkpt>
      <trkpt lat="44.27908" lon="0.81408">
        <ele>182.79</ele>
        <time>2022-10-02T07:19:13Z</time>
      </trkpt>
      <trkpt lat="44.27914" lon="0.81381">
        <ele>185.67</ele>
        <time>2022-10-02T07:19:30Z</time>
      </trkpt>
      <trkpt lat="44.27918" lon="0.8136">
        <ele>189.04</ele>
        <time>2022-10-02T07:19:45Z</time>
      </trkpt>
      <trkpt lat="44.27915" lon="0.81333">
        <ele>191.44</ele>
        <time>2022-10-02T07:20:02Z</time>
      </trkpt>
      <trkpt lat="44.27909" lon="0.81312">
        <ele>194.32</ele>
        <time>2022-10-02T07:20:19Z</time>
      </trkpt>
      <trkpt lat="44.27898" lon="0.81303">
        <ele>197.21</ele>
        <time>2022-10-02T07:20:35Z</time>
      </trkpt>
      <trkpt lat="44.27883" lon="0.81289">
        <ele>199.61</ele>
        <time>2022-10-02T07:20:52Z</time>
      </trkpt>
      <trkpt lat="44.27877" lon="0.81284">
        <ele>200.57</ele>
        <time>2022-10-02T07:20:56Z</time>
      </trkpt>
      <trkpt lat="44.27846" lon="0.81252">
        <ele>198.65</ele>
        <time>2022-10-02T07:21:08Z</time>
      </trkpt>
      <trkpt lat="44.27838" lon="0.81192">
        <ele>200.57</ele>
        <time>2022-10-02T07:21:20Z</time>
      </trkpt>
      <trkpt lat="44.27835" lon="0.81119">
        <ele>201.05</ele>
        <time>2022-10-02T07:21:34Z</time>
      </trkpt>
      <trkpt lat="44.27833" lon="0.81086">
        <ele>200.09</ele>
        <time>2022-10-02T07:21:41Z</time>
      </trkpt>
      <trkpt lat="44.27826" lon="0.81079">
        <ele>199.13</ele>
        <time>2022-10-02T07:21:45Z</time>
      </trkpt>
      <trkpt lat="44.27807" lon="0.81047">
        <ele>197.69</ele>
        <time>2022-10-02T07:21:52Z</time>
      </trkpt>
      <trkpt lat="44.27804" lon="0.8102">
        <ele>196.25</ele>
        <time>2022-10-02T07:21:57Z</time>
      </trkpt>
      <trkpt lat="44.27806" lon="0.80995">
        <ele>195.77</ele>
        <time>2022-10-02T07:22:03Z</time>
      </trkpt>
      <trkpt lat="44.27794" lon="0.80977">
        <ele>192.88</ele>
        <time>2022-10-02T07:22:10Z</time>
      </trkpt>
      <trkpt lat="44.27794" lon="0.80975">
        <ele>192.4</ele>
        <time>2022-10-02T07:22:11Z</time>
      </trkpt>
      <trkpt lat="44.27793" lon="0.80967">
        <ele>190.96</ele>
        <time>2022-10-02T07:22:21Z</time>
      </trkpt>
      <trkpt lat="44.27793" lon="0.80966">
        <ele>193.84</ele>
        <time>2022-10-02T07:22:26Z</time>
      </trkpt>
      <trkpt lat="44.27793" lon="0.80965">
        <ele>192.4</ele>
        <time>2022-10-02T07:22:27Z</time>
      </trkpt>
      <trkpt lat="44.27794" lon="0.80965">
        <ele>188.08</ele>
        <time>2022-10-02T07:22:29Z</time>
      </trkpt>
      <trkpt lat="44.27794" lon="0.80964">
        <ele>192.4</ele>
        <time>2022-10-02T07:22:39Z</time>
      </trkpt>
      <trkpt lat="44.27793" lon="0.80964">
        <ele>191.92</ele>
        <time>2022-10-02T07:22:59Z</time>
      </trkpt>
      <trkpt lat="44.27792" lon="0.80965">
        <ele>190.48</ele>
        <time>2022-10-02T07:23:02Z</time>
      </trkpt>
      <trkpt lat="44.27794" lon="0.80963">
        <ele>190</ele>
        <time>2022-10-02T07:23:11Z</time>
      </trkpt>
      <trkpt lat="44.278" lon="0.80967">
        <ele>192.88</ele>
        <time>2022-10-02T07:23:17Z</time>
      </trkpt>
      <trkpt lat="44.27814" lon="0.80977">
        <ele>196.25</ele>
        <time>2022-10-02T07:23:28Z</time>
      </trkpt>
      <trkpt lat="44.27836" lon="0.80991">
        <ele>199.61</ele>
        <time>2022-10-02T07:23:42Z</time>
      </trkpt>
      <trkpt lat="44.27857" lon="0.81004">
        <ele>202.49</ele>
        <time>2022-10-02T07:23:58Z</time>
      </trkpt>
      <trkpt lat="44.27881" lon="0.81017">
        <ele>205.86</ele>
        <time>2022-10-02T07:24:18Z</time>
      </trkpt>
      <trkpt lat="44.27887" lon="0.81019">
        <ele>206.82</ele>
        <time>2022-10-02T07:24:22Z</time>
      </trkpt>
      <trkpt lat="44.27908" lon="0.81014">
        <ele>209.22</ele>
        <time>2022-10-02T07:24:38Z</time>
      </trkpt>
      <trkpt lat="44.27915" lon="0.81008">
        <ele>210.67</ele>
        <time>2022-10-02T07:24:44Z</time>
      </trkpt>
      <trkpt lat="44.27927" lon="0.8101">
        <ele>211.15</ele>
        <time>2022-10-02T07:24:51Z</time>
      </trkpt>
      <trkpt lat="44.2793" lon="0.81017">
        <ele>211.63</ele>
        <time>2022-10-02T07:24:55Z</time>
      </trkpt>
      <trkpt lat="44.27943" lon="0.8106">
        <ele>214.03</ele>
        <time>2022-10-02T07:25:13Z</time>
      </trkpt>
      <trkpt lat="44.27961" lon="0.81111">
        <ele>214.99</ele>
        <time>2022-10-02T07:25:30Z</time>
      </trkpt>
      <trkpt lat="44.27968" lon="0.81153">
        <ele>216.91</ele>
        <time>2022-10-02T07:25:41Z</time>
      </trkpt>
      <trkpt lat="44.27997" lon="0.8125">
        <ele>216.91</ele>
        <time>2022-10-02T07:26:01Z</time>
      </trkpt>
      <trkpt lat="44.28034" lon="0.81305">
        <ele>218.84</ele>
        <time>2022-10-02T07:26:17Z</time>
      </trkpt>
      <trkpt lat="44.28096" lon="0.81336">
        <ele>220.76</ele>
        <time>2022-10-02T07:26:36Z</time>
      </trkpt>
      <trkpt lat="44.28138" lon="0.81357">
        <ele>222.2</ele>
        <time>2022-10-02T07:26:49Z</time>
      </trkpt>
      <trkpt lat="44.28144" lon="0.81377">
        <ele>222.2</ele>
        <time>2022-10-02T07:26:53Z</time>
      </trkpt>
      <trkpt lat="44.28155" lon="0.81497">
        <ele>222.68</ele>
        <time>2022-10-02T07:27:12Z</time>
      </trkpt>
      <trkpt lat="44.28156" lon="0.81568">
        <ele>221.24</ele>
        <time>2022-10-02T07:27:22Z</time>
      </trkpt>
      <trkpt lat="44.28149" lon="0.81657">
        <ele>220.28</ele>
        <time>2022-10-02T07:27:34Z</time>
      </trkpt>
      <trkpt lat="44.2814" lon="0.81687">
        <ele>220.28</ele>
        <time>2022-10-02T07:27:38Z</time>
      </trkpt>
      <trkpt lat="44.28087" lon="0.8178">
        <ele>218.36</ele>
        <time>2022-10-02T07:27:53Z</time>
      </trkpt>
      <trkpt lat="44.28081" lon="0.8179">
        <ele>220.28</ele>
        <time>2022-10-02T07:27:55Z</time>
      </trkpt>
      <trkpt lat="44.28075" lon="0.818">
        <ele>218.84</ele>
        <time>2022-10-02T07:27:57Z</time>
      </trkpt>
      <trkpt lat="44.28028" lon="0.8189">
        <ele>218.36</ele>
        <time>2022-10-02T07:28:12Z</time>
      </trkpt>
      <trkpt lat="44.27977" lon="0.82039">
        <ele>218.84</ele>
        <time>2022-10-02T07:28:33Z</time>
      </trkpt>
      <trkpt lat="44.27955" lon="0.82187">
        <ele>218.84</ele>
        <time>2022-10-02T07:28:53Z</time>
      </trkpt>
      <trkpt lat="44.27953" lon="0.82231">
        <ele>218.36</ele>
        <time>2022-10-02T07:28:59Z</time>
      </trkpt>
      <trkpt lat="44.27958" lon="0.82259">
        <ele>218.36</ele>
        <time>2022-10-02T07:29:03Z</time>
      </trkpt>
      <trkpt lat="44.27972" lon="0.82284">
        <ele>217.88</ele>
        <time>2022-10-02T07:29:07Z</time>
      </trkpt>
      <trkpt lat="44.28083" lon="0.82424">
        <ele>215.95</ele>
        <time>2022-10-02T07:29:31Z</time>
      </trkpt>
      <trkpt lat="44.28109" lon="0.82459">
        <ele>217.4</ele>
        <time>2022-10-02T07:29:38Z</time>
      </trkpt>
      <trkpt lat="44.28174" lon="0.82566">
        <ele>217.88</ele>
        <time>2022-10-02T07:29:58Z</time>
      </trkpt>
      <trkpt lat="44.28192" lon="0.82594">
        <ele>216.43</ele>
        <time>2022-10-02T07:30:03Z</time>
      </trkpt>
      <trkpt lat="44.28222" lon="0.82637">
        <ele>213.07</ele>
        <time>2022-10-02T07:30:11Z</time>
      </trkpt>
      <trkpt lat="44.28248" lon="0.82676">
        <ele>209.7</ele>
        <time>2022-10-02T07:30:19Z</time>
      </trkpt>
      <trkpt lat="44.28262" lon="0.82697">
        <ele>208.74</ele>
        <time>2022-10-02T07:30:23Z</time>
      </trkpt>
      <trkpt lat="44.283" lon="0.82726">
        <ele>206.34</ele>
        <time>2022-10-02T07:30:29Z</time>
      </trkpt>
      <trkpt lat="44.28355" lon="0.82753">
        <ele>202.49</ele>
        <time>2022-10-02T07:30:36Z</time>
      </trkpt>
      <trkpt lat="44.28405" lon="0.82813">
        <ele>202.98</ele>
        <time>2022-10-02T07:30:47Z</time>
      </trkpt>
      <trkpt lat="44.28409" lon="0.82817">
        <ele>202.98</ele>
        <time>2022-10-02T07:30:48Z</time>
      </trkpt>
      <trkpt lat="44.28476" lon="0.82871">
        <ele>204.9</ele>
        <time>2022-10-02T07:31:04Z</time>
      </trkpt>
      <trkpt lat="44.28554" lon="0.82945">
        <ele>205.86</ele>
        <time>2022-10-02T07:31:24Z</time>
      </trkpt>
      <trkpt lat="44.28571" lon="0.82965">
        <ele>207.3</ele>
        <time>2022-10-02T07:31:31Z</time>
      </trkpt>
      <trkpt lat="44.2858" lon="0.82971">
        <ele>208.26</ele>
        <time>2022-10-02T07:31:35Z</time>
      </trkpt>
      <trkpt lat="44.2861" lon="0.83">
        <ele>210.67</ele>
        <time>2022-10-02T07:31:47Z</time>
      </trkpt>
      <trkpt lat="44.28627" lon="0.83019">
        <ele>212.11</ele>
        <time>2022-10-02T07:32:01Z</time>
      </trkpt>
      <trkpt lat="44.28628" lon="0.83019">
        <ele>211.63</ele>
        <time>2022-10-02T07:32:11Z</time>
      </trkpt>
      <trkpt lat="44.28628" lon="0.8302">
        <ele>210.67</ele>
        <time>2022-10-02T07:32:27Z</time>
      </trkpt>
      <trkpt lat="44.28629" lon="0.83021">
        <ele>210.67</ele>
        <time>2022-10-02T07:32:47Z</time>
      </trkpt>
      <trkpt lat="44.2863" lon="0.83019">
        <ele>212.11</ele>
        <time>2022-10-02T07:33:12Z</time>
      </trkpt>
      <trkpt lat="44.28631" lon="0.83021">
        <ele>212.11</ele>
        <time>2022-10-02T07:33:26Z</time>
      </trkpt>
      <trkpt lat="44.2863" lon="0.83021">
        <ele>210.67</ele>
        <time>2022-10-02T07:33:40Z</time>
      </trkpt>
      <trkpt lat="44.28629" lon="0.83022">
        <ele>213.07</ele>
        <time>2022-10-02T07:33:46Z</time>
      </trkpt>
      <trkpt lat="44.28628" lon="0.83021">
        <ele>211.63</ele>
        <time>2022-10-02T07:34:03Z</time>
      </trkpt>
      <trkpt lat="44.28629" lon="0.83021">
        <ele>210.19</ele>
        <time>2022-10-02T07:34:18Z</time>
      </trkpt>
      <trkpt lat="44.28628" lon="0.83021">
        <ele>210.67</ele>
        <time>2022-10-02T07:34:47Z</time>
      </trkpt>
      <trkpt lat="44.28627" lon="0.8302">
        <ele>209.22</ele>
        <time>2022-10-02T07:34:53Z</time>
      </trkpt>
      <trkpt lat="44.28628" lon="0.8302">
        <ele>211.15</ele>
        <time>2022-10-02T07:34:55Z</time>
      </trkpt>
      <trkpt lat="44.28633" lon="0.83023">
        <ele>211.63</ele>
        <time>2022-10-02T07:35:03Z</time>
      </trkpt>
      <trkpt lat="44.28649" lon="0.83035">
        <ele>213.55</ele>
        <time>2022-10-02T07:35:14Z</time>
      </trkpt>
      <trkpt lat="44.28667" lon="0.83063">
        <ele>214.51</ele>
        <time>2022-10-02T07:35:26Z</time>
      </trkpt>
      <trkpt lat="44.28674" lon="0.83113">
        <ele>212.11</ele>
        <time>2022-10-02T07:35:35Z</time>
      </trkpt>
      <trkpt lat="44.28682" lon="0.83131">
        <ele>209.7</ele>
        <time>2022-10-02T07:35:39Z</time>
      </trkpt>
      <trkpt lat="44.28694" lon="0.83139">
        <ele>209.7</ele>
        <time>2022-10-02T07:35:42Z</time>
      </trkpt>
      <trkpt lat="44.28709" lon="0.83146">
        <ele>207.78</ele>
        <time>2022-10-02T07:35:45Z</time>
      </trkpt>
      <trkpt lat="44.28721" lon="0.83155">
        <ele>207.3</ele>
        <time>2022-10-02T07:35:47Z</time>
      </trkpt>
      <trkpt lat="44.28784" lon="0.83224">
        <ele>206.34</ele>
        <time>2022-10-02T07:36:00Z</time>
      </trkpt>
      <trkpt lat="44.28788" lon="0.83229">
        <ele>206.34</ele>
        <time>2022-10-02T07:36:01Z</time>
      </trkpt>
      <trkpt lat="44.28831" lon="0.83286">
        <ele>207.78</ele>
        <time>2022-10-02T07:36:14Z</time>
      </trkpt>
      <trkpt lat="44.28869" lon="0.83343">
        <ele>207.78</ele>
        <time>2022-10-02T07:36:25Z</time>
      </trkpt>
      <trkpt lat="44.28884" lon="0.83413">
        <ele>208.74</ele>
        <time>2022-10-02T07:36:38Z</time>
      </trkpt>
      <trkpt lat="44.28896" lon="0.83455">
        <ele>211.63</ele>
        <time>2022-10-02T07:36:51Z</time>
      </trkpt>
      <trkpt lat="44.28896" lon="0.83458">
        <ele>211.63</ele>
        <time>2022-10-02T07:36:52Z</time>
      </trkpt>
      <trkpt lat="44.289" lon="0.83533">
        <ele>212.11</ele>
        <time>2022-10-02T07:37:07Z</time>
      </trkpt>
      <trkpt lat="44.28894" lon="0.83586">
        <ele>212.59</ele>
        <time>2022-10-02T07:37:16Z</time>
      </trkpt>
      <trkpt lat="44.28894" lon="0.83671">
        <ele>212.59</ele>
        <time>2022-10-02T07:37:31Z</time>
      </trkpt>
      <trkpt lat="44.28892" lon="0.83771">
        <ele>213.55</ele>
        <time>2022-10-02T07:37:49Z</time>
      </trkpt>
      <trkpt lat="44.28873" lon="0.83847">
        <ele>214.99</ele>
        <time>2022-10-02T07:38:06Z</time>
      </trkpt>
      <trkpt lat="44.28869" lon="0.83918">
        <ele>215.95</ele>
        <time>2022-10-02T07:38:20Z</time>
      </trkpt>
      <trkpt lat="44.28871" lon="0.83932">
        <ele>214.51</ele>
        <time>2022-10-02T07:38:22Z</time>
      </trkpt>
      <trkpt lat="44.28882" lon="0.83992">
        <ele>211.15</ele>
        <time>2022-10-02T07:38:29Z</time>
      </trkpt>
      <trkpt lat="44.28889" lon="0.8404">
        <ele>209.7</ele>
        <time>2022-10-02T07:38:34Z</time>
      </trkpt>
      <trkpt lat="44.28879" lon="0.84117">
        <ele>207.3</ele>
        <time>2022-10-02T07:38:46Z</time>
      </trkpt>
      <trkpt lat="44.28862" lon="0.84157">
        <ele>209.7</ele>
        <time>2022-10-02T07:38:58Z</time>
      </trkpt>
      <trkpt lat="44.28848" lon="0.84181">
        <ele>213.07</ele>
        <time>2022-10-02T07:39:12Z</time>
      </trkpt>
      <trkpt lat="44.28835" lon="0.84224">
        <ele>215.95</ele>
        <time>2022-10-02T07:39:29Z</time>
      </trkpt>
      <trkpt lat="44.28827" lon="0.84278">
        <ele>218.36</ele>
        <time>2022-10-02T07:39:47Z</time>
      </trkpt>
      <trkpt lat="44.28834" lon="0.8435">
        <ele>218.36</ele>
        <time>2022-10-02T07:40:05Z</time>
      </trkpt>
      <trkpt lat="44.28839" lon="0.84381">
        <ele>216.91</ele>
        <time>2022-10-02T07:40:11Z</time>
      </trkpt>
      <trkpt lat="44.28849" lon="0.84421">
        <ele>215.47</ele>
        <time>2022-10-02T07:40:17Z</time>
      </trkpt>
      <trkpt lat="44.28871" lon="0.84509">
        <ele>213.07</ele>
        <time>2022-10-02T07:40:30Z</time>
      </trkpt>
      <trkpt lat="44.28881" lon="0.84606">
        <ele>212.59</ele>
        <time>2022-10-02T07:40:45Z</time>
      </trkpt>
      <trkpt lat="44.28879" lon="0.84627">
        <ele>213.07</ele>
        <time>2022-10-02T07:40:49Z</time>
      </trkpt>
      <trkpt lat="44.28861" lon="0.84676">
        <ele>212.59</ele>
        <time>2022-10-02T07:41:01Z</time>
      </trkpt>
      <trkpt lat="44.28817" lon="0.84781">
        <ele>211.15</ele>
        <time>2022-10-02T07:41:17Z</time>
      </trkpt>
      <trkpt lat="44.28788" lon="0.84862">
        <ele>208.26</ele>
        <time>2022-10-02T07:41:28Z</time>
      </trkpt>
      <trkpt lat="44.28783" lon="0.84883">
        <ele>208.26</ele>
        <time>2022-10-02T07:41:31Z</time>
      </trkpt>
      <trkpt lat="44.28753" lon="0.84974">
        <ele>209.22</ele>
        <time>2022-10-02T07:41:46Z</time>
      </trkpt>
      <trkpt lat="44.2875" lon="0.84979">
        <ele>209.22</ele>
        <time>2022-10-02T07:41:47Z</time>
      </trkpt>
      <trkpt lat="44.28717" lon="0.85033">
        <ele>209.7</ele>
        <time>2022-10-02T07:41:59Z</time>
      </trkpt>
      <trkpt lat="44.28681" lon="0.85109">
        <ele>211.15</ele>
        <time>2022-10-02T07:42:15Z</time>
      </trkpt>
      <trkpt lat="44.28669" lon="0.85184">
        <ele>211.63</ele>
        <time>2022-10-02T07:42:30Z</time>
      </trkpt>
      <trkpt lat="44.28668" lon="0.8522">
        <ele>209.22</ele>
        <time>2022-10-02T07:42:34Z</time>
      </trkpt>
      <trkpt lat="44.28663" lon="0.85256">
        <ele>206.34</ele>
        <time>2022-10-02T07:42:38Z</time>
      </trkpt>
      <trkpt lat="44.28659" lon="0.85271">
        <ele>205.86</ele>
        <time>2022-10-02T07:42:40Z</time>
      </trkpt>
      <trkpt lat="44.28651" lon="0.85304">
        <ele>203.46</ele>
        <time>2022-10-02T07:42:46Z</time>
      </trkpt>
      <trkpt lat="44.28654" lon="0.85319">
        <ele>201.53</ele>
        <time>2022-10-02T07:42:49Z</time>
      </trkpt>
      <trkpt lat="44.28649" lon="0.85332">
        <ele>200.09</ele>
        <time>2022-10-02T07:42:52Z</time>
      </trkpt>
      <trkpt lat="44.28643" lon="0.85342">
        <ele>199.13</ele>
        <time>2022-10-02T07:42:54Z</time>
      </trkpt>
      <trkpt lat="44.28637" lon="0.8535">
        <ele>196.73</ele>
        <time>2022-10-02T07:42:56Z</time>
      </trkpt>
      <trkpt lat="44.28626" lon="0.85374">
        <ele>192.88</ele>
        <time>2022-10-02T07:43:00Z</time>
      </trkpt>
      <trkpt lat="44.28617" lon="0.85393">
        <ele>188.56</ele>
        <time>2022-10-02T07:43:03Z</time>
      </trkpt>
      <trkpt lat="44.28612" lon="0.85414">
        <ele>184.71</ele>
        <time>2022-10-02T07:43:06Z</time>
      </trkpt>
      <trkpt lat="44.28611" lon="0.8542">
        <ele>183.75</ele>
        <time>2022-10-02T07:43:07Z</time>
      </trkpt>
      <trkpt lat="44.2861" lon="0.85442">
        <ele>179.42</ele>
        <time>2022-10-02T07:43:11Z</time>
      </trkpt>
      <trkpt lat="44.28609" lon="0.85458">
        <ele>176.54</ele>
        <time>2022-10-02T07:43:15Z</time>
      </trkpt>
      <trkpt lat="44.28612" lon="0.8547">
        <ele>173.17</ele>
        <time>2022-10-02T07:43:18Z</time>
      </trkpt>
      <trkpt lat="44.28619" lon="0.85491">
        <ele>169.33</ele>
        <time>2022-10-02T07:43:23Z</time>
      </trkpt>
      <trkpt lat="44.2862" lon="0.85496">
        <ele>169.33</ele>
        <time>2022-10-02T07:43:24Z</time>
      </trkpt>
      <trkpt lat="44.28623" lon="0.85516">
        <ele>167.41</ele>
        <time>2022-10-02T07:43:27Z</time>
      </trkpt>
      <trkpt lat="44.28624" lon="0.85535">
        <ele>164.52</ele>
        <time>2022-10-02T07:43:30Z</time>
      </trkpt>
      <trkpt lat="44.28626" lon="0.85547">
        <ele>163.08</ele>
        <time>2022-10-02T07:43:32Z</time>
      </trkpt>
      <trkpt lat="44.28634" lon="0.85572">
        <ele>160.2</ele>
        <time>2022-10-02T07:43:36Z</time>
      </trkpt>
      <trkpt lat="44.2864" lon="0.85589">
        <ele>158.75</ele>
        <time>2022-10-02T07:43:39Z</time>
      </trkpt>
      <trkpt lat="44.28641" lon="0.85613">
        <ele>155.39</ele>
        <time>2022-10-02T07:43:43Z</time>
      </trkpt>
      <trkpt lat="44.2864" lon="0.85639">
        <ele>151.06</ele>
        <time>2022-10-02T07:43:48Z</time>
      </trkpt>
      <trkpt lat="44.2864" lon="0.85644">
        <ele>151.06</ele>
        <time>2022-10-02T07:43:49Z</time>
      </trkpt>
      <trkpt lat="44.28641" lon="0.85682">
        <ele>147.7</ele>
        <time>2022-10-02T07:43:54Z</time>
      </trkpt>
      <trkpt lat="44.28642" lon="0.85701">
        <ele>146.26</ele>
        <time>2022-10-02T07:43:57Z</time>
      </trkpt>
      <trkpt lat="44.28642" lon="0.85713">
        <ele>144.82</ele>
        <time>2022-10-02T07:43:59Z</time>
      </trkpt>
      <trkpt lat="44.28641" lon="0.85732">
        <ele>143.37</ele>
        <time>2022-10-02T07:44:02Z</time>
      </trkpt>
      <trkpt lat="44.2864" lon="0.85739">
        <ele>142.89</ele>
        <time>2022-10-02T07:44:03Z</time>
      </trkpt>
      <trkpt lat="44.2863" lon="0.85768">
        <ele>141.45</ele>
        <time>2022-10-02T07:44:07Z</time>
      </trkpt>
      <trkpt lat="44.28612" lon="0.85852">
        <ele>138.57</ele>
        <time>2022-10-02T07:44:15Z</time>
      </trkpt>
      <trkpt lat="44.286" lon="0.85937">
        <ele>135.2</ele>
        <time>2022-10-02T07:44:22Z</time>
      </trkpt>
      <trkpt lat="44.28594" lon="0.85963">
        <ele>133.76</ele>
        <time>2022-10-02T07:44:24Z</time>
      </trkpt>
      <trkpt lat="44.28578" lon="0.86023">
        <ele>130.4</ele>
        <time>2022-10-02T07:44:29Z</time>
      </trkpt>
      <trkpt lat="44.28574" lon="0.86035">
        <ele>130.4</ele>
        <time>2022-10-02T07:44:30Z</time>
      </trkpt>
      <trkpt lat="44.28556" lon="0.86091">
        <ele>126.07</ele>
        <time>2022-10-02T07:44:35Z</time>
      </trkpt>
      <trkpt lat="44.28549" lon="0.86114">
        <ele>125.11</ele>
        <time>2022-10-02T07:44:37Z</time>
      </trkpt>
      <trkpt lat="44.28528" lon="0.86185">
        <ele>123.19</ele>
        <time>2022-10-02T07:44:43Z</time>
      </trkpt>
      <trkpt lat="44.285" lon="0.86263">
        <ele>120.3</ele>
        <time>2022-10-02T07:44:50Z</time>
      </trkpt>
      <trkpt lat="44.28492" lon="0.86286">
        <ele>118.86</ele>
        <time>2022-10-02T07:44:52Z</time>
      </trkpt>
      <trkpt lat="44.28479" lon="0.86319">
        <ele>116.94</ele>
        <time>2022-10-02T07:44:55Z</time>
      </trkpt>
      <trkpt lat="44.28468" lon="0.86351">
        <ele>115.5</ele>
        <time>2022-10-02T07:44:58Z</time>
      </trkpt>
      <trkpt lat="44.28452" lon="0.86404">
        <ele>111.65</ele>
        <time>2022-10-02T07:45:03Z</time>
      </trkpt>
      <trkpt lat="44.28447" lon="0.86429">
        <ele>109.25</ele>
        <time>2022-10-02T07:45:06Z</time>
      </trkpt>
      <trkpt lat="44.28447" lon="0.86441">
        <ele>108.29</ele>
        <time>2022-10-02T07:45:08Z</time>
      </trkpt>
      <trkpt lat="44.28455" lon="0.86451">
        <ele>107.81</ele>
        <time>2022-10-02T07:45:11Z</time>
      </trkpt>
      <trkpt lat="44.28462" lon="0.86455">
        <ele>108.77</ele>
        <time>2022-10-02T07:45:14Z</time>
      </trkpt>
      <trkpt lat="44.28459" lon="0.86516">
        <ele>109.73</ele>
        <time>2022-10-02T07:45:26Z</time>
      </trkpt>
      <trkpt lat="44.28457" lon="0.86541">
        <ele>109.73</ele>
        <time>2022-10-02T07:45:30Z</time>
      </trkpt>
      <trkpt lat="44.28452" lon="0.8662">
        <ele>109.25</ele>
        <time>2022-10-02T07:45:43Z</time>
      </trkpt>
      <trkpt lat="44.2846" lon="0.86646">
        <ele>109.25</ele>
        <time>2022-10-02T07:45:48Z</time>
      </trkpt>
      <trkpt lat="44.28528" lon="0.8671">
        <ele>108.77</ele>
        <time>2022-10-02T07:46:09Z</time>
      </trkpt>
      <trkpt lat="44.28532" lon="0.86712">
        <ele>109.25</ele>
        <time>2022-10-02T07:46:15Z</time>
      </trkpt>
      <trkpt lat="44.28534" lon="0.86716">
        <ele>106.84</ele>
        <time>2022-10-02T07:46:18Z</time>
      </trkpt>
      <trkpt lat="44.28538" lon="0.8672">
        <ele>106.36</ele>
        <time>2022-10-02T07:46:21Z</time>
      </trkpt>
      <trkpt lat="44.28546" lon="0.86722">
        <ele>109.25</ele>
        <time>2022-10-02T07:46:32Z</time>
      </trkpt>
      <trkpt lat="44.28547" lon="0.86721">
        <ele>108.77</ele>
        <time>2022-10-02T07:46:35Z</time>
      </trkpt>
      <trkpt lat="44.2855" lon="0.86713">
        <ele>110.21</ele>
        <time>2022-10-02T07:46:39Z</time>
      </trkpt>
      <trkpt lat="44.28572" lon="0.86663">
        <ele>108.29</ele>
        <time>2022-10-02T07:46:51Z</time>
      </trkpt>
      <trkpt lat="44.28615" lon="0.86622">
        <ele>110.69</ele>
        <time>2022-10-02T07:47:07Z</time>
      </trkpt>
      <trkpt lat="44.28641" lon="0.86587">
        <ele>113.09</ele>
        <time>2022-10-02T07:47:20Z</time>
      </trkpt>
      <trkpt lat="44.28676" lon="0.86547">
        <ele>113.57</ele>
        <time>2022-10-02T07:47:35Z</time>
      </trkpt>
      <trkpt lat="44.28691" lon="0.86528">
        <ele>112.13</ele>
        <time>2022-10-02T07:47:39Z</time>
      </trkpt>
      <trkpt lat="44.28716" lon="0.8649">
        <ele>112.13</ele>
        <time>2022-10-02T07:47:47Z</time>
      </trkpt>
      <trkpt lat="44.28723" lon="0.86475">
        <ele>111.65</ele>
        <time>2022-10-02T07:47:50Z</time>
      </trkpt>
      <trkpt lat="44.28756" lon="0.86397">
        <ele>109.25</ele>
        <time>2022-10-02T07:48:03Z</time>
      </trkpt>
      <trkpt lat="44.28759" lon="0.8639">
        <ele>109.73</ele>
        <time>2022-10-02T07:48:04Z</time>
      </trkpt>
      <trkpt lat="44.28796" lon="0.86303">
        <ele>108.77</ele>
        <time>2022-10-02T07:48:18Z</time>
      </trkpt>
      <trkpt lat="44.28844" lon="0.86191">
        <ele>107.81</ele>
        <time>2022-10-02T07:48:39Z</time>
      </trkpt>
      <trkpt lat="44.28852" lon="0.86177">
        <ele>107.32</ele>
        <time>2022-10-02T07:48:42Z</time>
      </trkpt>
      <trkpt lat="44.28898" lon="0.86133">
        <ele>107.32</ele>
        <time>2022-10-02T07:48:56Z</time>
      </trkpt>
      <trkpt lat="44.28926" lon="0.86088">
        <ele>109.25</ele>
        <time>2022-10-02T07:49:07Z</time>
      </trkpt>
      <trkpt lat="44.28964" lon="0.8605">
        <ele>109.73</ele>
        <time>2022-10-02T07:49:21Z</time>
      </trkpt>
      <trkpt lat="44.28991" lon="0.85998">
        <ele>111.65</ele>
        <time>2022-10-02T07:49:37Z</time>
      </trkpt>
      <trkpt lat="44.29016" lon="0.85951">
        <ele>115.01</ele>
        <time>2022-10-02T07:49:53Z</time>
      </trkpt>
      <trkpt lat="44.29026" lon="0.85936">
        <ele>116.94</ele>
        <time>2022-10-02T07:50:00Z</time>
      </trkpt>
      <trkpt lat="44.29055" lon="0.85895">
        <ele>117.9</ele>
        <time>2022-10-02T07:50:18Z</time>
      </trkpt>
      <trkpt lat="44.29073" lon="0.8586">
        <ele>121.74</ele>
        <time>2022-10-02T07:50:34Z</time>
      </trkpt>
      <trkpt lat="44.29094" lon="0.85821">
        <ele>123.19</ele>
        <time>2022-10-02T07:50:53Z</time>
      </trkpt>
      <trkpt lat="44.29116" lon="0.85772">
        <ele>124.15</ele>
        <time>2022-10-02T07:51:07Z</time>
      </trkpt>
      <trkpt lat="44.29161" lon="0.85711">
        <ele>124.15</ele>
        <time>2022-10-02T07:51:24Z</time>
      </trkpt>
      <trkpt lat="44.29193" lon="0.85675">
        <ele>125.59</ele>
        <time>2022-10-02T07:51:40Z</time>
      </trkpt>
      <trkpt lat="44.29227" lon="0.85637">
        <ele>127.03</ele>
        <time>2022-10-02T07:51:58Z</time>
      </trkpt>
      <trkpt lat="44.29234" lon="0.85627">
        <ele>127.03</ele>
        <time>2022-10-02T07:52:02Z</time>
      </trkpt>
      <trkpt lat="44.29244" lon="0.85604">
        <ele>125.59</ele>
        <time>2022-10-02T07:52:06Z</time>
      </trkpt>
      <trkpt lat="44.29264" lon="0.85583">
        <ele>127.03</ele>
        <time>2022-10-02T07:52:14Z</time>
      </trkpt>
      <trkpt lat="44.29281" lon="0.85564">
        <ele>126.07</ele>
        <time>2022-10-02T07:52:21Z</time>
      </trkpt>
      <trkpt lat="44.29325" lon="0.85516">
        <ele>127.51</ele>
        <time>2022-10-02T07:52:37Z</time>
      </trkpt>
      <trkpt lat="44.29365" lon="0.85457">
        <ele>127.03</ele>
        <time>2022-10-02T07:52:54Z</time>
      </trkpt>
      <trkpt lat="44.29367" lon="0.85452">
        <ele>127.03</ele>
        <time>2022-10-02T07:52:55Z</time>
      </trkpt>
      <trkpt lat="44.29388" lon="0.85395">
        <ele>127.99</ele>
        <time>2022-10-02T07:53:10Z</time>
      </trkpt>
      <trkpt lat="44.2939" lon="0.85389">
        <ele>126.07</ele>
        <time>2022-10-02T07:53:12Z</time>
      </trkpt>
      <trkpt lat="44.29393" lon="0.85381">
        <ele>127.51</ele>
        <time>2022-10-02T07:53:14Z</time>
      </trkpt>
      <trkpt lat="44.29418" lon="0.85334">
        <ele>127.51</ele>
        <time>2022-10-02T07:53:26Z</time>
      </trkpt>
      <trkpt lat="44.29454" lon="0.85288">
        <ele>129.43</ele>
        <time>2022-10-02T07:53:42Z</time>
      </trkpt>
      <trkpt lat="44.29475" lon="0.85221">
        <ele>128.95</ele>
        <time>2022-10-02T07:54:01Z</time>
      </trkpt>
      <trkpt lat="44.29488" lon="0.85158">
        <ele>128.95</ele>
        <time>2022-10-02T07:54:15Z</time>
      </trkpt>
      <trkpt lat="44.29493" lon="0.85134">
        <ele>127.51</ele>
        <time>2022-10-02T07:54:20Z</time>
      </trkpt>
      <trkpt lat="44.29532" lon="0.85078">
        <ele>128.95</ele>
        <time>2022-10-02T07:54:34Z</time>
      </trkpt>
      <trkpt lat="44.29576" lon="0.85043">
        <ele>131.36</ele>
        <time>2022-10-02T07:54:53Z</time>
      </trkpt>
      <trkpt lat="44.29623" lon="0.85005">
        <ele>134.24</ele>
        <time>2022-10-02T07:55:15Z</time>
      </trkpt>
      <trkpt lat="44.29662" lon="0.84984">
        <ele>135.68</ele>
        <time>2022-10-02T07:55:32Z</time>
      </trkpt>
      <trkpt lat="44.29713" lon="0.84954">
        <ele>138.57</ele>
        <time>2022-10-02T07:55:55Z</time>
      </trkpt>
      <trkpt lat="44.29748" lon="0.84947">
        <ele>140.49</ele>
        <time>2022-10-02T07:56:13Z</time>
      </trkpt>
      <trkpt lat="44.29782" lon="0.84941">
        <ele>142.41</ele>
        <time>2022-10-02T07:56:31Z</time>
      </trkpt>
      <trkpt lat="44.29817" lon="0.84942">
        <ele>145.3</ele>
        <time>2022-10-02T07:56:51Z</time>
      </trkpt>
      <trkpt lat="44.29848" lon="0.84929">
        <ele>145.3</ele>
        <time>2022-10-02T07:57:07Z</time>
      </trkpt>
      <trkpt lat="44.29851" lon="0.84925">
        <ele>146.26</ele>
        <time>2022-10-02T07:57:09Z</time>
      </trkpt>
      <trkpt lat="44.29864" lon="0.84877">
        <ele>147.7</ele>
        <time>2022-10-02T07:57:28Z</time>
      </trkpt>
      <trkpt lat="44.29875" lon="0.84821">
        <ele>149.14</ele>
        <time>2022-10-02T07:57:47Z</time>
      </trkpt>
      <trkpt lat="44.29894" lon="0.84765">
        <ele>152.03</ele>
        <time>2022-10-02T07:58:08Z</time>
      </trkpt>
      <trkpt lat="44.29916" lon="0.84724">
        <ele>153.95</ele>
        <time>2022-10-02T07:58:27Z</time>
      </trkpt>
      <trkpt lat="44.29941" lon="0.84701">
        <ele>156.83</ele>
        <time>2022-10-02T07:58:46Z</time>
      </trkpt>
      <trkpt lat="44.29961" lon="0.84678">
        <ele>159.72</ele>
        <time>2022-10-02T07:59:03Z</time>
      </trkpt>
      <trkpt lat="44.29973" lon="0.84647">
        <ele>161.64</ele>
        <time>2022-10-02T07:59:19Z</time>
      </trkpt>
      <trkpt lat="44.29978" lon="0.84635">
        <ele>161.16</ele>
        <time>2022-10-02T07:59:25Z</time>
      </trkpt>
      <trkpt lat="44.29979" lon="0.84631">
        <ele>162.6</ele>
        <time>2022-10-02T07:59:27Z</time>
      </trkpt>
      <trkpt lat="44.29991" lon="0.84603">
        <ele>165</ele>
        <time>2022-10-02T07:59:42Z</time>
      </trkpt>
      <trkpt lat="44.30005" lon="0.84568">
        <ele>168.37</ele>
        <time>2022-10-02T08:00:02Z</time>
      </trkpt>
      <trkpt lat="44.30009" lon="0.84548">
        <ele>171.25</ele>
        <time>2022-10-02T08:00:15Z</time>
      </trkpt>
      <trkpt lat="44.30015" lon="0.84522">
        <ele>173.66</ele>
        <time>2022-10-02T08:00:35Z</time>
      </trkpt>
      <trkpt lat="44.3002" lon="0.84509">
        <ele>177.02</ele>
        <time>2022-10-02T08:00:47Z</time>
      </trkpt>
      <trkpt lat="44.30021" lon="0.84488">
        <ele>179.9</ele>
        <time>2022-10-02T08:01:01Z</time>
      </trkpt>
      <trkpt lat="44.30028" lon="0.84465">
        <ele>183.75</ele>
        <time>2022-10-02T08:01:18Z</time>
      </trkpt>
      <trkpt lat="44.3003" lon="0.84466">
        <ele>182.31</ele>
        <time>2022-10-02T08:01:21Z</time>
      </trkpt>
      <trkpt lat="44.30032" lon="0.84467">
        <ele>184.23</ele>
        <time>2022-10-02T08:01:23Z</time>
      </trkpt>
      <trkpt lat="44.30043" lon="0.84465">
        <ele>184.71</ele>
        <time>2022-10-02T08:01:35Z</time>
      </trkpt>
      <trkpt lat="44.30043" lon="0.84449">
        <ele>188.08</ele>
        <time>2022-10-02T08:01:47Z</time>
      </trkpt>
      <trkpt lat="44.30037" lon="0.84427">
        <ele>190.96</ele>
        <time>2022-10-02T08:02:06Z</time>
      </trkpt>
      <trkpt lat="44.30033" lon="0.84409">
        <ele>193.84</ele>
        <time>2022-10-02T08:02:20Z</time>
      </trkpt>
      <trkpt lat="44.3003" lon="0.84386">
        <ele>196.73</ele>
        <time>2022-10-02T08:02:37Z</time>
      </trkpt>
      <trkpt lat="44.3003" lon="0.84383">
        <ele>197.69</ele>
        <time>2022-10-02T08:02:39Z</time>
      </trkpt>
      <trkpt lat="44.30031" lon="0.84376">
        <ele>199.61</ele>
        <time>2022-10-02T08:02:45Z</time>
      </trkpt>
      <trkpt lat="44.3003" lon="0.84355">
        <ele>202.98</ele>
        <time>2022-10-02T08:03:01Z</time>
      </trkpt>
      <trkpt lat="44.30029" lon="0.84338">
        <ele>205.38</ele>
        <time>2022-10-02T08:03:15Z</time>
      </trkpt>
      <trkpt lat="44.30032" lon="0.84331">
        <ele>204.9</ele>
        <time>2022-10-02T08:03:22Z</time>
      </trkpt>
      <trkpt lat="44.30034" lon="0.84329">
        <ele>206.34</ele>
        <time>2022-10-02T08:03:24Z</time>
      </trkpt>
      <trkpt lat="44.30034" lon="0.84328">
        <ele>205.38</ele>
        <time>2022-10-02T08:03:31Z</time>
      </trkpt>
      <trkpt lat="44.30034" lon="0.84329">
        <ele>205.86</ele>
        <time>2022-10-02T08:03:47Z</time>
      </trkpt>
      <trkpt lat="44.30035" lon="0.84329">
        <ele>202.01</ele>
        <time>2022-10-02T08:04:00Z</time>
      </trkpt>
      <trkpt lat="44.30038" lon="0.84329">
        <ele>206.82</ele>
        <time>2022-10-02T08:04:12Z</time>
      </trkpt>
      <trkpt lat="44.30056" lon="0.84307">
        <ele>209.22</ele>
        <time>2022-10-02T08:04:29Z</time>
      </trkpt>
      <trkpt lat="44.30077" lon="0.84288">
        <ele>211.15</ele>
        <time>2022-10-02T08:04:46Z</time>
      </trkpt>
      <trkpt lat="44.30079" lon="0.84287">
        <ele>211.15</ele>
        <time>2022-10-02T08:04:47Z</time>
      </trkpt>
      <trkpt lat="44.3009" lon="0.84302">
        <ele>211.15</ele>
        <time>2022-10-02T08:04:54Z</time>
      </trkpt>
      <trkpt lat="44.30102" lon="0.8432">
        <ele>211.15</ele>
        <time>2022-10-02T08:05:01Z</time>
      </trkpt>
      <trkpt lat="44.3011" lon="0.84314">
        <ele>211.15</ele>
        <time>2022-10-02T08:05:05Z</time>
      </trkpt>
      <trkpt lat="44.30138" lon="0.84271">
        <ele>214.03</ele>
        <time>2022-10-02T08:05:21Z</time>
      </trkpt>
      <trkpt lat="44.30149" lon="0.84255">
        <ele>215.47</ele>
        <time>2022-10-02T08:05:27Z</time>
      </trkpt>
      <trkpt lat="44.30193" lon="0.84191">
        <ele>215.95</ele>
        <time>2022-10-02T08:05:48Z</time>
      </trkpt>
      <trkpt lat="44.30237" lon="0.84127">
        <ele>212.59</ele>
        <time>2022-10-02T08:06:01Z</time>
      </trkpt>
      <trkpt lat="44.30254" lon="0.84102">
        <ele>211.15</ele>
        <time>2022-10-02T08:06:05Z</time>
      </trkpt>
      <trkpt lat="44.30275" lon="0.84072">
        <ele>209.7</ele>
        <time>2022-10-02T08:06:10Z</time>
      </trkpt>
      <trkpt lat="44.30289" lon="0.8404">
        <ele>208.26</ele>
        <time>2022-10-02T08:06:14Z</time>
      </trkpt>
      <trkpt lat="44.30296" lon="0.84013">
        <ele>207.3</ele>
        <time>2022-10-02T08:06:17Z</time>
      </trkpt>
      <trkpt lat="44.30309" lon="0.83978">
        <ele>205.38</ele>
        <time>2022-10-02T08:06:21Z</time>
      </trkpt>
      <trkpt lat="44.30321" lon="0.83956">
        <ele>202.98</ele>
        <time>2022-10-02T08:06:24Z</time>
      </trkpt>
      <trkpt lat="44.30342" lon="0.83929">
        <ele>200.57</ele>
        <time>2022-10-02T08:06:29Z</time>
      </trkpt>
      <trkpt lat="44.30335" lon="0.83902">
        <ele>199.61</ele>
        <time>2022-10-02T08:06:34Z</time>
      </trkpt>
      <trkpt lat="44.30313" lon="0.83868">
        <ele>198.17</ele>
        <time>2022-10-02T08:06:42Z</time>
      </trkpt>
      <trkpt lat="44.30311" lon="0.83856">
        <ele>197.21</ele>
        <time>2022-10-02T08:06:44Z</time>
      </trkpt>
      <trkpt lat="44.303" lon="0.8383">
        <ele>195.77</ele>
        <time>2022-10-02T08:06:50Z</time>
      </trkpt>
      <trkpt lat="44.30285" lon="0.83812">
        <ele>199.13</ele>
        <time>2022-10-02T08:07:03Z</time>
      </trkpt>
      <trkpt lat="44.30269" lon="0.83795">
        <ele>202.49</ele>
        <time>2022-10-02T08:07:19Z</time>
      </trkpt>
      <trkpt lat="44.30257" lon="0.83779">
        <ele>205.86</ele>
        <time>2022-10-02T08:07:34Z</time>
      </trkpt>
      <trkpt lat="44.30256" lon="0.83777">
        <ele>205.38</ele>
        <time>2022-10-02T08:07:35Z</time>
      </trkpt>
      <trkpt lat="44.30255" lon="0.83774">
        <ele>206.82</ele>
        <time>2022-10-02T08:07:38Z</time>
      </trkpt>
      <trkpt lat="44.30255" lon="0.83769">
        <ele>206.34</ele>
        <time>2022-10-02T08:07:41Z</time>
      </trkpt>
      <trkpt lat="44.30264" lon="0.83742">
        <ele>204.9</ele>
        <time>2022-10-02T08:07:49Z</time>
      </trkpt>
      <trkpt lat="44.30284" lon="0.83692">
        <ele>205.38</ele>
        <time>2022-10-02T08:08:04Z</time>
      </trkpt>
      <trkpt lat="44.303" lon="0.83657">
        <ele>204.9</ele>
        <time>2022-10-02T08:08:15Z</time>
      </trkpt>
      <trkpt lat="44.30316" lon="0.8361">
        <ele>207.3</ele>
        <time>2022-10-02T08:08:32Z</time>
      </trkpt>
      <trkpt lat="44.30325" lon="0.8355">
        <ele>209.22</ele>
        <time>2022-10-02T08:08:52Z</time>
      </trkpt>
      <trkpt lat="44.30324" lon="0.83545">
        <ele>210.19</ele>
        <time>2022-10-02T08:08:54Z</time>
      </trkpt>
      <trkpt lat="44.3031" lon="0.83557">
        <ele>212.11</ele>
        <time>2022-10-02T08:09:04Z</time>
      </trkpt>
      <trkpt lat="44.30299" lon="0.83555">
        <ele>212.11</ele>
        <time>2022-10-02T08:09:10Z</time>
      </trkpt>
      <trkpt lat="44.30289" lon="0.83545">
        <ele>211.63</ele>
        <time>2022-10-02T08:09:20Z</time>
      </trkpt>
      <trkpt lat="44.30287" lon="0.83543">
        <ele>211.15</ele>
        <time>2022-10-02T08:09:22Z</time>
      </trkpt>
      <trkpt lat="44.30296" lon="0.83502">
        <ele>210.67</ele>
        <time>2022-10-02T08:09:34Z</time>
      </trkpt>
      <trkpt lat="44.30321" lon="0.83449">
        <ele>210.67</ele>
        <time>2022-10-02T08:09:49Z</time>
      </trkpt>
      <trkpt lat="44.30319" lon="0.83439">
        <ele>210.67</ele>
        <time>2022-10-02T08:09:51Z</time>
      </trkpt>
      <trkpt lat="44.30293" lon="0.83363">
        <ele>208.26</ele>
        <time>2022-10-02T08:10:03Z</time>
      </trkpt>
      <trkpt lat="44.30278" lon="0.83345">
        <ele>206.34</ele>
        <time>2022-10-02T08:10:07Z</time>
      </trkpt>
      <trkpt lat="44.30255" lon="0.83333">
        <ele>202.49</ele>
        <time>2022-10-02T08:10:11Z</time>
      </trkpt>
      <trkpt lat="44.3024" lon="0.83319">
        <ele>200.09</ele>
        <time>2022-10-02T08:10:14Z</time>
      </trkpt>
      <trkpt lat="44.30231" lon="0.83312">
        <ele>200.09</ele>
        <time>2022-10-02T08:10:16Z</time>
      </trkpt>
      <trkpt lat="44.30226" lon="0.83299">
        <ele>197.21</ele>
        <time>2022-10-02T08:10:19Z</time>
      </trkpt>
      <trkpt lat="44.30241" lon="0.83297">
        <ele>195.77</ele>
        <time>2022-10-02T08:10:23Z</time>
      </trkpt>
      <trkpt lat="44.30253" lon="0.83283">
        <ele>194.32</ele>
        <time>2022-10-02T08:10:26Z</time>
      </trkpt>
      <trkpt lat="44.30258" lon="0.83274">
        <ele>193.36</ele>
        <time>2022-10-02T08:10:27Z</time>
      </trkpt>
      <trkpt lat="44.30278" lon="0.83238">
        <ele>189.04</ele>
        <time>2022-10-02T08:10:31Z</time>
      </trkpt>
      <trkpt lat="44.30283" lon="0.83229">
        <ele>189.04</ele>
        <time>2022-10-02T08:10:32Z</time>
      </trkpt>
      <trkpt lat="44.30296" lon="0.83198">
        <ele>186.15</ele>
        <time>2022-10-02T08:10:35Z</time>
      </trkpt>
      <trkpt lat="44.30308" lon="0.83165">
        <ele>184.23</ele>
        <time>2022-10-02T08:10:38Z</time>
      </trkpt>
      <trkpt lat="44.30315" lon="0.83143">
        <ele>182.79</ele>
        <time>2022-10-02T08:10:40Z</time>
      </trkpt>
      <trkpt lat="44.30319" lon="0.83133">
        <ele>181.35</ele>
        <time>2022-10-02T08:10:41Z</time>
      </trkpt>
      <trkpt lat="44.30327" lon="0.83115">
        <ele>180.87</ele>
        <time>2022-10-02T08:10:43Z</time>
      </trkpt>
      <trkpt lat="44.30342" lon="0.83091">
        <ele>177.98</ele>
        <time>2022-10-02T08:10:46Z</time>
      </trkpt>
      <trkpt lat="44.30354" lon="0.83077">
        <ele>176.06</ele>
        <time>2022-10-02T08:10:48Z</time>
      </trkpt>
      <trkpt lat="44.30374" lon="0.83069">
        <ele>172.69</ele>
        <time>2022-10-02T08:10:51Z</time>
      </trkpt>
      <trkpt lat="44.30388" lon="0.8307">
        <ele>171.73</ele>
        <time>2022-10-02T08:10:53Z</time>
      </trkpt>
      <trkpt lat="44.30398" lon="0.83071">
        <ele>168.85</ele>
        <time>2022-10-02T08:10:55Z</time>
      </trkpt>
      <trkpt lat="44.30403" lon="0.83066">
        <ele>166.45</ele>
        <time>2022-10-02T08:10:58Z</time>
      </trkpt>
      <trkpt lat="44.304" lon="0.83064">
        <ele>166.45</ele>
        <time>2022-10-02T08:11:00Z</time>
      </trkpt>
      <trkpt lat="44.30394" lon="0.83063">
        <ele>165.48</ele>
        <time>2022-10-02T08:11:02Z</time>
      </trkpt>
      <trkpt lat="44.30364" lon="0.83046">
        <ele>163.08</ele>
        <time>2022-10-02T08:11:10Z</time>
      </trkpt>
      <trkpt lat="44.30363" lon="0.83031">
        <ele>161.64</ele>
        <time>2022-10-02T08:11:12Z</time>
      </trkpt>
      <trkpt lat="44.30366" lon="0.82992">
        <ele>156.35</ele>
        <time>2022-10-02T08:11:16Z</time>
      </trkpt>
      <trkpt lat="44.30366" lon="0.82981">
        <ele>156.35</ele>
        <time>2022-10-02T08:11:17Z</time>
      </trkpt>
      <trkpt lat="44.30368" lon="0.82952">
        <ele>152.51</ele>
        <time>2022-10-02T08:11:20Z</time>
      </trkpt>
      <trkpt lat="44.30369" lon="0.82934">
        <ele>152.03</ele>
        <time>2022-10-02T08:11:22Z</time>
      </trkpt>
      <trkpt lat="44.3037" lon="0.82914">
        <ele>148.18</ele>
        <time>2022-10-02T08:11:24Z</time>
      </trkpt>
      <trkpt lat="44.3037" lon="0.82891">
        <ele>144.34</ele>
        <time>2022-10-02T08:11:26Z</time>
      </trkpt>
      <trkpt lat="44.3037" lon="0.8286">
        <ele>140.01</ele>
        <time>2022-10-02T08:11:29Z</time>
      </trkpt>
      <trkpt lat="44.3037" lon="0.82844">
        <ele>138.09</ele>
        <time>2022-10-02T08:11:31Z</time>
      </trkpt>
      <trkpt lat="44.30377" lon="0.82827">
        <ele>136.16</ele>
        <time>2022-10-02T08:11:34Z</time>
      </trkpt>
      <trkpt lat="44.30385" lon="0.82823">
        <ele>135.68</ele>
        <time>2022-10-02T08:11:36Z</time>
      </trkpt>
      <trkpt lat="44.30402" lon="0.82818">
        <ele>135.2</ele>
        <time>2022-10-02T08:11:40Z</time>
      </trkpt>
      <trkpt lat="44.3042" lon="0.82822">
        <ele>134.24</ele>
        <time>2022-10-02T08:11:44Z</time>
      </trkpt>
      <trkpt lat="44.30429" lon="0.82829">
        <ele>135.68</ele>
        <time>2022-10-02T08:11:46Z</time>
      </trkpt>
      <trkpt lat="44.30437" lon="0.82834">
        <ele>134.24</ele>
        <time>2022-10-02T08:11:48Z</time>
      </trkpt>
      <trkpt lat="44.30467" lon="0.82852">
        <ele>134.24</ele>
        <time>2022-10-02T08:11:56Z</time>
      </trkpt>
      <trkpt lat="44.30487" lon="0.82851">
        <ele>134.24</ele>
        <time>2022-10-02T08:12:02Z</time>
      </trkpt>
      <trkpt lat="44.30511" lon="0.82861">
        <ele>132.8</ele>
        <time>2022-10-02T08:12:09Z</time>
      </trkpt>
      <trkpt lat="44.30568" lon="0.82887">
        <ele>130.4</ele>
        <time>2022-10-02T08:12:23Z</time>
      </trkpt>
      <trkpt lat="44.30634" lon="0.82918">
        <ele>129.43</ele>
        <time>2022-10-02T08:12:40Z</time>
      </trkpt>
      <trkpt lat="44.3069" lon="0.8295">
        <ele>127.99</ele>
        <time>2022-10-02T08:12:56Z</time>
      </trkpt>
      <trkpt lat="44.30709" lon="0.82959">
        <ele>127.99</ele>
        <time>2022-10-02T08:13:01Z</time>
      </trkpt>
      <trkpt lat="44.30729" lon="0.82964">
        <ele>127.51</ele>
        <time>2022-10-02T08:13:06Z</time>
      </trkpt>
      <trkpt lat="44.30773" lon="0.83007">
        <ele>125.11</ele>
        <time>2022-10-02T08:13:21Z</time>
      </trkpt>
      <trkpt lat="44.30824" lon="0.83079">
        <ele>121.74</ele>
        <time>2022-10-02T08:13:38Z</time>
      </trkpt>
      <trkpt lat="44.30864" lon="0.83134">
        <ele>120.3</ele>
        <time>2022-10-02T08:13:54Z</time>
      </trkpt>
      <trkpt lat="44.30893" lon="0.83153">
        <ele>120.78</ele>
        <time>2022-10-02T08:14:09Z</time>
      </trkpt>
      <trkpt lat="44.30895" lon="0.8315">
        <ele>122.22</ele>
        <time>2022-10-02T08:14:11Z</time>
      </trkpt>
      <trkpt lat="44.309" lon="0.83144">
        <ele>121.26</ele>
        <time>2022-10-02T08:14:15Z</time>
      </trkpt>
      <trkpt lat="44.30908" lon="0.8313">
        <ele>119.82</ele>
        <time>2022-10-02T08:14:21Z</time>
      </trkpt>
      <trkpt lat="44.30911" lon="0.83127">
        <ele>121.26</ele>
        <time>2022-10-02T08:14:23Z</time>
      </trkpt>
      <trkpt lat="44.30925" lon="0.831">
        <ele>122.71</ele>
        <time>2022-10-02T08:14:38Z</time>
      </trkpt>
      <trkpt lat="44.3093" lon="0.83079">
        <ele>126.07</ele>
        <time>2022-10-02T08:14:51Z</time>
      </trkpt>
      <trkpt lat="44.30936" lon="0.83053">
        <ele>128.95</ele>
        <time>2022-10-02T08:15:09Z</time>
      </trkpt>
      <trkpt lat="44.30937" lon="0.83042">
        <ele>128.47</ele>
        <time>2022-10-02T08:15:18Z</time>
      </trkpt>
      <trkpt lat="44.30938" lon="0.83039">
        <ele>131.36</ele>
        <time>2022-10-02T08:15:20Z</time>
      </trkpt>
      <trkpt lat="44.30938" lon="0.83037">
        <ele>129.92</ele>
        <time>2022-10-02T08:15:22Z</time>
      </trkpt>
      <trkpt lat="44.30941" lon="0.83026">
        <ele>132.32</ele>
        <time>2022-10-02T08:15:30Z</time>
      </trkpt>
      <trkpt lat="44.30945" lon="0.8301">
        <ele>134.24</ele>
        <time>2022-10-02T08:15:43Z</time>
      </trkpt>
      <trkpt lat="44.3095" lon="0.82984">
        <ele>136.64</ele>
        <time>2022-10-02T08:16:03Z</time>
      </trkpt>
      <trkpt lat="44.30954" lon="0.82974">
        <ele>138.09</ele>
        <time>2022-10-02T08:16:12Z</time>
      </trkpt>
      <trkpt lat="44.30958" lon="0.82961">
        <ele>139.53</ele>
        <time>2022-10-02T08:16:23Z</time>
      </trkpt>
      <trkpt lat="44.30961" lon="0.82948">
        <ele>141.45</ele>
        <time>2022-10-02T08:16:34Z</time>
      </trkpt>
      <trkpt lat="44.30968" lon="0.82927">
        <ele>144.82</ele>
        <time>2022-10-02T08:16:54Z</time>
      </trkpt>
      <trkpt lat="44.30972" lon="0.82915">
        <ele>146.26</ele>
        <time>2022-10-02T08:17:05Z</time>
      </trkpt>
      <trkpt lat="44.30978" lon="0.82898">
        <ele>147.7</ele>
        <time>2022-10-02T08:17:22Z</time>
      </trkpt>
      <trkpt lat="44.30981" lon="0.82893">
        <ele>149.62</ele>
        <time>2022-10-02T08:17:28Z</time>
      </trkpt>
      <trkpt lat="44.30984" lon="0.82884">
        <ele>152.03</ele>
        <time>2022-10-02T08:17:38Z</time>
      </trkpt>
      <trkpt lat="44.30985" lon="0.82882">
        <ele>151.06</ele>
        <time>2022-10-02T08:17:40Z</time>
      </trkpt>
      <trkpt lat="44.30988" lon="0.82874">
        <ele>153.95</ele>
        <time>2022-10-02T08:17:49Z</time>
      </trkpt>
      <trkpt lat="44.30994" lon="0.82857">
        <ele>156.83</ele>
        <time>2022-10-02T08:18:07Z</time>
      </trkpt>
      <trkpt lat="44.31001" lon="0.82841">
        <ele>159.72</ele>
        <time>2022-10-02T08:18:25Z</time>
      </trkpt>
      <trkpt lat="44.31006" lon="0.82828">
        <ele>162.6</ele>
        <time>2022-10-02T08:18:40Z</time>
      </trkpt>
      <trkpt lat="44.3101" lon="0.82818">
        <ele>164.04</ele>
        <time>2022-10-02T08:18:50Z</time>
      </trkpt>
      <trkpt lat="44.31013" lon="0.82813">
        <ele>166.93</ele>
        <time>2022-10-02T08:18:56Z</time>
      </trkpt>
      <trkpt lat="44.31014" lon="0.82811">
        <ele>164.52</ele>
        <time>2022-10-02T08:18:58Z</time>
      </trkpt>
      <trkpt lat="44.31017" lon="0.82806">
        <ele>167.41</ele>
        <time>2022-10-02T08:19:03Z</time>
      </trkpt>
      <trkpt lat="44.31019" lon="0.82799">
        <ele>168.85</ele>
        <time>2022-10-02T08:19:10Z</time>
      </trkpt>
      <trkpt lat="44.31023" lon="0.82792">
        <ele>171.25</ele>
        <time>2022-10-02T08:19:18Z</time>
      </trkpt>
      <trkpt lat="44.3103" lon="0.82776">
        <ele>172.69</ele>
        <time>2022-10-02T08:19:37Z</time>
      </trkpt>
      <trkpt lat="44.31037" lon="0.82761">
        <ele>175.1</ele>
        <time>2022-10-02T08:19:55Z</time>
      </trkpt>
      <trkpt lat="44.31046" lon="0.82744">
        <ele>176.06</ele>
        <time>2022-10-02T08:20:15Z</time>
      </trkpt>
      <trkpt lat="44.31048" lon="0.8274">
        <ele>174.62</ele>
        <time>2022-10-02T08:20:20Z</time>
      </trkpt>
      <trkpt lat="44.31048" lon="0.82738">
        <ele>176.54</ele>
        <time>2022-10-02T08:20:22Z</time>
      </trkpt>
      <trkpt lat="44.31053" lon="0.82727">
        <ele>176.06</ele>
        <time>2022-10-02T08:20:32Z</time>
      </trkpt>
      <trkpt lat="44.31057" lon="0.82719">
        <ele>177.5</ele>
        <time>2022-10-02T08:20:39Z</time>
      </trkpt>
      <trkpt lat="44.31061" lon="0.82707">
        <ele>177.02</ele>
        <time>2022-10-02T08:20:48Z</time>
      </trkpt>
      <trkpt lat="44.31062" lon="0.82704">
        <ele>178.46</ele>
        <time>2022-10-02T08:20:50Z</time>
      </trkpt>
      <trkpt lat="44.31067" lon="0.82682">
        <ele>181.35</ele>
        <time>2022-10-02T08:21:07Z</time>
      </trkpt>
      <trkpt lat="44.31069" lon="0.82679">
        <ele>179.9</ele>
        <time>2022-10-02T08:21:10Z</time>
      </trkpt>
      <trkpt lat="44.31071" lon="0.82676">
        <ele>180.87</ele>
        <time>2022-10-02T08:21:13Z</time>
      </trkpt>
      <trkpt lat="44.31074" lon="0.82669">
        <ele>183.27</ele>
        <time>2022-10-02T08:21:20Z</time>
      </trkpt>
      <trkpt lat="44.31083" lon="0.82655">
        <ele>186.15</ele>
        <time>2022-10-02T08:21:36Z</time>
      </trkpt>
      <trkpt lat="44.31088" lon="0.82653">
        <ele>187.11</ele>
        <time>2022-10-02T08:21:43Z</time>
      </trkpt>
      <trkpt lat="44.31101" lon="0.82651">
        <ele>189.52</ele>
        <time>2022-10-02T08:22:00Z</time>
      </trkpt>
      <trkpt lat="44.31117" lon="0.82637">
        <ele>191.92</ele>
        <time>2022-10-02T08:22:19Z</time>
      </trkpt>
      <trkpt lat="44.3112" lon="0.82632">
        <ele>192.4</ele>
        <time>2022-10-02T08:22:23Z</time>
      </trkpt>
      <trkpt lat="44.31122" lon="0.82629">
        <ele>193.36</ele>
        <time>2022-10-02T08:22:25Z</time>
      </trkpt>
      <trkpt lat="44.31138" lon="0.82622">
        <ele>195.77</ele>
        <time>2022-10-02T08:22:37Z</time>
      </trkpt>
      <trkpt lat="44.31148" lon="0.82603">
        <ele>196.25</ele>
        <time>2022-10-02T08:22:52Z</time>
      </trkpt>
      <trkpt lat="44.31149" lon="0.826">
        <ele>196.73</ele>
        <time>2022-10-02T08:22:54Z</time>
      </trkpt>
      <trkpt lat="44.31153" lon="0.82599">
        <ele>195.28</ele>
        <time>2022-10-02T08:22:57Z</time>
      </trkpt>
      <trkpt lat="44.31157" lon="0.82599">
        <ele>196.25</ele>
        <time>2022-10-02T08:22:59Z</time>
      </trkpt>
      <trkpt lat="44.31177" lon="0.82599">
        <ele>195.28</ele>
        <time>2022-10-02T08:23:08Z</time>
      </trkpt>
      <trkpt lat="44.31193" lon="0.82579">
        <ele>196.73</ele>
        <time>2022-10-02T08:23:19Z</time>
      </trkpt>
      <trkpt lat="44.31201" lon="0.82545">
        <ele>199.13</ele>
        <time>2022-10-02T08:23:29Z</time>
      </trkpt>
      <trkpt lat="44.31186" lon="0.82503">
        <ele>199.61</ele>
        <time>2022-10-02T08:23:41Z</time>
      </trkpt>
      <trkpt lat="44.3116" lon="0.82472">
        <ele>202.49</ele>
        <time>2022-10-02T08:23:54Z</time>
      </trkpt>
      <trkpt lat="44.31158" lon="0.82471">
        <ele>202.49</ele>
        <time>2022-10-02T08:23:55Z</time>
      </trkpt>
      <trkpt lat="44.3113" lon="0.82444">
        <ele>204.9</ele>
        <time>2022-10-02T08:24:10Z</time>
      </trkpt>
      <trkpt lat="44.31084" lon="0.82429">
        <ele>206.82</ele>
        <time>2022-10-02T08:24:30Z</time>
      </trkpt>
      <trkpt lat="44.31077" lon="0.82432">
        <ele>206.82</ele>
        <time>2022-10-02T08:24:34Z</time>
      </trkpt>
      <trkpt lat="44.31053" lon="0.82427">
        <ele>208.26</ele>
        <time>2022-10-02T08:24:47Z</time>
      </trkpt>
      <trkpt lat="44.31051" lon="0.82428">
        <ele>208.74</ele>
        <time>2022-10-02T08:24:49Z</time>
      </trkpt>
      <trkpt lat="44.31053" lon="0.82431">
        <ele>207.3</ele>
        <time>2022-10-02T08:24:52Z</time>
      </trkpt>
      <trkpt lat="44.31056" lon="0.8243">
        <ele>207.3</ele>
        <time>2022-10-02T08:24:54Z</time>
      </trkpt>
      <trkpt lat="44.31065" lon="0.82434">
        <ele>207.78</ele>
        <time>2022-10-02T08:25:00Z</time>
      </trkpt>
      <trkpt lat="44.3106" lon="0.82429">
        <ele>208.26</ele>
        <time>2022-10-02T08:25:07Z</time>
      </trkpt>
      <trkpt lat="44.31049" lon="0.82428">
        <ele>207.3</ele>
        <time>2022-10-02T08:25:12Z</time>
      </trkpt>
      <trkpt lat="44.31043" lon="0.82427">
        <ele>208.74</ele>
        <time>2022-10-02T08:25:15Z</time>
      </trkpt>
      <trkpt lat="44.30998" lon="0.8243">
        <ele>210.19</ele>
        <time>2022-10-02T08:25:33Z</time>
      </trkpt>
      <trkpt lat="44.3098" lon="0.82455">
        <ele>211.63</ele>
        <time>2022-10-02T08:25:45Z</time>
      </trkpt>
      <trkpt lat="44.30971" lon="0.82486">
        <ele>211.15</ele>
        <time>2022-10-02T08:25:55Z</time>
      </trkpt>
      <trkpt lat="44.30957" lon="0.82487">
        <ele>212.59</ele>
        <time>2022-10-02T08:26:01Z</time>
      </trkpt>
      <trkpt lat="44.30954" lon="0.82487">
        <ele>212.59</ele>
        <time>2022-10-02T08:26:02Z</time>
      </trkpt>
      <trkpt lat="44.30945" lon="0.82486">
        <ele>211.63</ele>
        <time>2022-10-02T08:26:06Z</time>
      </trkpt>
      <trkpt lat="44.30932" lon="0.82484">
        <ele>213.07</ele>
        <time>2022-10-02T08:26:12Z</time>
      </trkpt>
      <trkpt lat="44.30912" lon="0.82474">
        <ele>213.07</ele>
        <time>2022-10-02T08:26:29Z</time>
      </trkpt>
      <trkpt lat="44.30911" lon="0.82473">
        <ele>211.15</ele>
        <time>2022-10-02T08:26:40Z</time>
      </trkpt>
      <trkpt lat="44.30911" lon="0.82471">
        <ele>211.63</ele>
        <time>2022-10-02T08:27:15Z</time>
      </trkpt>
      <trkpt lat="44.30911" lon="0.8247">
        <ele>214.99</ele>
        <time>2022-10-02T08:27:20Z</time>
      </trkpt>
      <trkpt lat="44.30912" lon="0.8247">
        <ele>212.11</ele>
        <time>2022-10-02T08:27:23Z</time>
      </trkpt>
      <trkpt lat="44.30912" lon="0.82468">
        <ele>212.11</ele>
        <time>2022-10-02T08:27:54Z</time>
      </trkpt>
      <trkpt lat="44.30911" lon="0.8247">
        <ele>212.11</ele>
        <time>2022-10-02T08:28:52Z</time>
      </trkpt>
      <trkpt lat="44.3091" lon="0.82477">
        <ele>212.11</ele>
        <time>2022-10-02T08:29:19Z</time>
      </trkpt>
      <trkpt lat="44.30911" lon="0.82477">
        <ele>213.55</ele>
        <time>2022-10-02T08:29:36Z</time>
      </trkpt>
      <trkpt lat="44.3091" lon="0.82476">
        <ele>211.15</ele>
        <time>2022-10-02T08:29:40Z</time>
      </trkpt>
      <trkpt lat="44.30911" lon="0.82475">
        <ele>212.59</ele>
        <time>2022-10-02T08:29:42Z</time>
      </trkpt>
      <trkpt lat="44.30912" lon="0.82473">
        <ele>211.63</ele>
        <time>2022-10-02T08:29:57Z</time>
      </trkpt>
      <trkpt lat="44.30914" lon="0.82471">
        <ele>213.07</ele>
        <time>2022-10-02T08:30:07Z</time>
      </trkpt>
      <trkpt lat="44.30915" lon="0.82473">
        <ele>211.15</ele>
        <time>2022-10-02T08:30:13Z</time>
      </trkpt>
      <trkpt lat="44.30917" lon="0.82474">
        <ele>212.11</ele>
        <time>2022-10-02T08:30:16Z</time>
      </trkpt>
      <trkpt lat="44.30925" lon="0.82476">
        <ele>213.55</ele>
        <time>2022-10-02T08:30:21Z</time>
      </trkpt>
      <trkpt lat="44.30928" lon="0.82478">
        <ele>211.63</ele>
        <time>2022-10-02T08:30:23Z</time>
      </trkpt>
      <trkpt lat="44.30932" lon="0.8248">
        <ele>211.63</ele>
        <time>2022-10-02T08:30:25Z</time>
      </trkpt>
      <trkpt lat="44.30965" lon="0.82506">
        <ele>213.07</ele>
        <time>2022-10-02T08:30:39Z</time>
      </trkpt>
      <trkpt lat="44.30976" lon="0.82509">
        <ele>212.11</ele>
        <time>2022-10-02T08:30:42Z</time>
      </trkpt>
      <trkpt lat="44.31005" lon="0.82506">
        <ele>210.19</ele>
        <time>2022-10-02T08:30:49Z</time>
      </trkpt>
      <trkpt lat="44.31017" lon="0.82508">
        <ele>212.11</ele>
        <time>2022-10-02T08:30:52Z</time>
      </trkpt>
      <trkpt lat="44.31021" lon="0.82509">
        <ele>212.11</ele>
        <time>2022-10-02T08:30:53Z</time>
      </trkpt>
      <trkpt lat="44.31045" lon="0.82528">
        <ele>210.67</ele>
        <time>2022-10-02T08:31:00Z</time>
      </trkpt>
      <trkpt lat="44.31069" lon="0.82566">
        <ele>210.19</ele>
        <time>2022-10-02T08:31:07Z</time>
      </trkpt>
      <trkpt lat="44.31091" lon="0.82582">
        <ele>207.78</ele>
        <time>2022-10-02T08:31:12Z</time>
      </trkpt>
      <trkpt lat="44.31097" lon="0.82582">
        <ele>206.82</ele>
        <time>2022-10-02T08:31:13Z</time>
      </trkpt>
      <trkpt lat="44.31132" lon="0.82578">
        <ele>202.01</ele>
        <time>2022-10-02T08:31:18Z</time>
      </trkpt>
      <trkpt lat="44.3114" lon="0.82576">
        <ele>202.98</ele>
        <time>2022-10-02T08:31:19Z</time>
      </trkpt>
      <trkpt lat="44.31165" lon="0.82575">
        <ele>200.09</ele>
        <time>2022-10-02T08:31:22Z</time>
      </trkpt>
      <trkpt lat="44.31172" lon="0.82576">
        <ele>199.61</ele>
        <time>2022-10-02T08:31:23Z</time>
      </trkpt>
      <trkpt lat="44.31179" lon="0.82577">
        <ele>198.17</ele>
        <time>2022-10-02T08:31:24Z</time>
      </trkpt>
      <trkpt lat="44.31188" lon="0.82589">
        <ele>195.28</ele>
        <time>2022-10-02T08:31:28Z</time>
      </trkpt>
      <trkpt lat="44.31187" lon="0.82593">
        <ele>195.28</ele>
        <time>2022-10-02T08:31:29Z</time>
      </trkpt>
      <trkpt lat="44.31184" lon="0.82621">
        <ele>194.32</ele>
        <time>2022-10-02T08:31:35Z</time>
      </trkpt>
      <trkpt lat="44.31184" lon="0.82626">
        <ele>191.92</ele>
        <time>2022-10-02T08:31:36Z</time>
      </trkpt>
      <trkpt lat="44.31172" lon="0.82647">
        <ele>187.59</ele>
        <time>2022-10-02T08:31:41Z</time>
      </trkpt>
      <trkpt lat="44.31172" lon="0.82663">
        <ele>184.71</ele>
        <time>2022-10-02T08:31:44Z</time>
      </trkpt>
      <trkpt lat="44.31177" lon="0.82676">
        <ele>183.75</ele>
        <time>2022-10-02T08:31:46Z</time>
      </trkpt>
      <trkpt lat="44.31187" lon="0.82703">
        <ele>180.38</ele>
        <time>2022-10-02T08:31:50Z</time>
      </trkpt>
      <trkpt lat="44.31191" lon="0.82717">
        <ele>179.42</ele>
        <time>2022-10-02T08:31:52Z</time>
      </trkpt>
      <trkpt lat="44.312" lon="0.82744">
        <ele>177.5</ele>
        <time>2022-10-02T08:31:56Z</time>
      </trkpt>
      <trkpt lat="44.31207" lon="0.82762">
        <ele>175.1</ele>
        <time>2022-10-02T08:31:59Z</time>
      </trkpt>
      <trkpt lat="44.31213" lon="0.8278">
        <ele>171.73</ele>
        <time>2022-10-02T08:32:02Z</time>
      </trkpt>
      <trkpt lat="44.31216" lon="0.82807">
        <ele>166.93</ele>
        <time>2022-10-02T08:32:06Z</time>
      </trkpt>
      <trkpt lat="44.31219" lon="0.8283">
        <ele>163.08</ele>
        <time>2022-10-02T08:32:09Z</time>
      </trkpt>
      <trkpt lat="44.31221" lon="0.82836">
        <ele>163.08</ele>
        <time>2022-10-02T08:32:10Z</time>
      </trkpt>
      <trkpt lat="44.31223" lon="0.82848">
        <ele>160.2</ele>
        <time>2022-10-02T08:32:12Z</time>
      </trkpt>
      <trkpt lat="44.31217" lon="0.82884">
        <ele>153.47</ele>
        <time>2022-10-02T08:32:17Z</time>
      </trkpt>
      <trkpt lat="44.31212" lon="0.82906">
        <ele>149.14</ele>
        <time>2022-10-02T08:32:20Z</time>
      </trkpt>
      <trkpt lat="44.31207" lon="0.82929">
        <ele>144.82</ele>
        <time>2022-10-02T08:32:23Z</time>
      </trkpt>
      <trkpt lat="44.31205" lon="0.82955">
        <ele>141.45</ele>
        <time>2022-10-02T08:32:26Z</time>
      </trkpt>
      <trkpt lat="44.31202" lon="0.82982">
        <ele>138.57</ele>
        <time>2022-10-02T08:32:29Z</time>
      </trkpt>
      <trkpt lat="44.31193" lon="0.83015">
        <ele>134.72</ele>
        <time>2022-10-02T08:32:33Z</time>
      </trkpt>
      <trkpt lat="44.31186" lon="0.83037">
        <ele>131.36</ele>
        <time>2022-10-02T08:32:36Z</time>
      </trkpt>
      <trkpt lat="44.31177" lon="0.83063">
        <ele>128.47</ele>
        <time>2022-10-02T08:32:39Z</time>
      </trkpt>
      <trkpt lat="44.3117" lon="0.8308">
        <ele>125.11</ele>
        <time>2022-10-02T08:32:41Z</time>
      </trkpt>
      <trkpt lat="44.31159" lon="0.83104">
        <ele>122.22</ele>
        <time>2022-10-02T08:32:44Z</time>
      </trkpt>
      <trkpt lat="44.31152" lon="0.83122">
        <ele>118.86</ele>
        <time>2022-10-02T08:32:46Z</time>
      </trkpt>
      <trkpt lat="44.31149" lon="0.83131">
        <ele>118.86</ele>
        <time>2022-10-02T08:32:47Z</time>
      </trkpt>
      <trkpt lat="44.31149" lon="0.83197">
        <ele>115.98</ele>
        <time>2022-10-02T08:32:53Z</time>
      </trkpt>
      <trkpt lat="44.31146" lon="0.83253">
        <ele>117.42</ele>
        <time>2022-10-02T08:33:03Z</time>
      </trkpt>
      <trkpt lat="44.31147" lon="0.83276">
        <ele>120.78</ele>
        <time>2022-10-02T08:33:13Z</time>
      </trkpt>
      <trkpt lat="44.31141" lon="0.83305">
        <ele>124.63</ele>
        <time>2022-10-02T08:33:28Z</time>
      </trkpt>
      <trkpt lat="44.31137" lon="0.8332">
        <ele>127.03</ele>
        <time>2022-10-02T08:33:38Z</time>
      </trkpt>
      <trkpt lat="44.31134" lon="0.8333">
        <ele>127.51</ele>
        <time>2022-10-02T08:33:46Z</time>
      </trkpt>
      <trkpt lat="44.31133" lon="0.83334">
        <ele>128.95</ele>
        <time>2022-10-02T08:33:49Z</time>
      </trkpt>
      <trkpt lat="44.31133" lon="0.8336">
        <ele>131.36</ele>
        <time>2022-10-02T08:34:06Z</time>
      </trkpt>
      <trkpt lat="44.31135" lon="0.83385">
        <ele>134.24</ele>
        <time>2022-10-02T08:34:23Z</time>
      </trkpt>
      <trkpt lat="44.31137" lon="0.83393">
        <ele>135.68</ele>
        <time>2022-10-02T08:34:29Z</time>
      </trkpt>
      <trkpt lat="44.31139" lon="0.83414">
        <ele>138.09</ele>
        <time>2022-10-02T08:34:44Z</time>
      </trkpt>
      <trkpt lat="44.31139" lon="0.83417">
        <ele>138.09</ele>
        <time>2022-10-02T08:34:46Z</time>
      </trkpt>
      <trkpt lat="44.31141" lon="0.83423">
        <ele>139.05</ele>
        <time>2022-10-02T08:34:51Z</time>
      </trkpt>
      <trkpt lat="44.31151" lon="0.83443">
        <ele>142.41</ele>
        <time>2022-10-02T08:35:09Z</time>
      </trkpt>
      <trkpt lat="44.31151" lon="0.83447">
        <ele>142.41</ele>
        <time>2022-10-02T08:35:11Z</time>
      </trkpt>
      <trkpt lat="44.31138" lon="0.83476">
        <ele>144.82</ele>
        <time>2022-10-02T08:35:29Z</time>
      </trkpt>
      <trkpt lat="44.31115" lon="0.83512">
        <ele>148.18</ele>
        <time>2022-10-02T08:35:49Z</time>
      </trkpt>
      <trkpt lat="44.31096" lon="0.83543">
        <ele>150.58</ele>
        <time>2022-10-02T08:36:07Z</time>
      </trkpt>
      <trkpt lat="44.31081" lon="0.8358">
        <ele>152.99</ele>
        <time>2022-10-02T08:36:27Z</time>
      </trkpt>
      <trkpt lat="44.31065" lon="0.83621">
        <ele>155.87</ele>
        <time>2022-10-02T08:36:46Z</time>
      </trkpt>
      <trkpt lat="44.31046" lon="0.83662">
        <ele>157.79</ele>
        <time>2022-10-02T08:37:08Z</time>
      </trkpt>
      <trkpt lat="44.31045" lon="0.83664">
        <ele>157.79</ele>
        <time>2022-10-02T08:37:09Z</time>
      </trkpt>
      <trkpt lat="44.31051" lon="0.83665">
        <ele>160.2</ele>
        <time>2022-10-02T08:37:18Z</time>
      </trkpt>
      <trkpt lat="44.31071" lon="0.83636">
        <ele>163.08</ele>
        <time>2022-10-02T08:37:37Z</time>
      </trkpt>
      <trkpt lat="44.31078" lon="0.83628">
        <ele>164.52</ele>
        <time>2022-10-02T08:37:44Z</time>
      </trkpt>
      <trkpt lat="44.31092" lon="0.83613">
        <ele>166.45</ele>
        <time>2022-10-02T08:37:57Z</time>
      </trkpt>
      <trkpt lat="44.31096" lon="0.83607">
        <ele>166.93</ele>
        <time>2022-10-02T08:38:01Z</time>
      </trkpt>
      <trkpt lat="44.31118" lon="0.83595">
        <ele>169.33</ele>
        <time>2022-10-02T08:38:19Z</time>
      </trkpt>
      <trkpt lat="44.31135" lon="0.83593">
        <ele>170.77</ele>
        <time>2022-10-02T08:38:31Z</time>
      </trkpt>
      <trkpt lat="44.31137" lon="0.83593">
        <ele>172.21</ele>
        <time>2022-10-02T08:38:33Z</time>
      </trkpt>
      <trkpt lat="44.31147" lon="0.83591">
        <ele>173.66</ele>
        <time>2022-10-02T08:38:41Z</time>
      </trkpt>
      <trkpt lat="44.31155" lon="0.83592">
        <ele>174.62</ele>
        <time>2022-10-02T08:38:47Z</time>
      </trkpt>
      <trkpt lat="44.31162" lon="0.83593">
        <ele>176.06</ele>
        <time>2022-10-02T08:38:52Z</time>
      </trkpt>
      <trkpt lat="44.31165" lon="0.83593">
        <ele>174.62</ele>
        <time>2022-10-02T08:38:54Z</time>
      </trkpt>
      <trkpt lat="44.3117" lon="0.83593">
        <ele>176.06</ele>
        <time>2022-10-02T08:38:57Z</time>
      </trkpt>
      <trkpt lat="44.3118" lon="0.83594">
        <ele>177.02</ele>
        <time>2022-10-02T08:39:04Z</time>
      </trkpt>
      <trkpt lat="44.31213" lon="0.83598">
        <ele>179.42</ele>
        <time>2022-10-02T08:39:24Z</time>
      </trkpt>
      <trkpt lat="44.31237" lon="0.83612">
        <ele>181.35</ele>
        <time>2022-10-02T08:39:41Z</time>
      </trkpt>
      <trkpt lat="44.31266" lon="0.8364">
        <ele>183.75</ele>
        <time>2022-10-02T08:39:59Z</time>
      </trkpt>
      <trkpt lat="44.31293" lon="0.83676">
        <ele>185.67</ele>
        <time>2022-10-02T08:40:17Z</time>
      </trkpt>
      <trkpt lat="44.31305" lon="0.83723">
        <ele>188.08</ele>
        <time>2022-10-02T08:40:34Z</time>
      </trkpt>
      <trkpt lat="44.31315" lon="0.83757">
        <ele>190.96</ele>
        <time>2022-10-02T08:40:50Z</time>
      </trkpt>
      <trkpt lat="44.31326" lon="0.83799">
        <ele>194.32</ele>
        <time>2022-10-02T08:41:12Z</time>
      </trkpt>
      <trkpt lat="44.31323" lon="0.83835">
        <ele>196.73</ele>
        <time>2022-10-02T08:41:30Z</time>
      </trkpt>
      <trkpt lat="44.31315" lon="0.83879">
        <ele>199.61</ele>
        <time>2022-10-02T08:41:49Z</time>
      </trkpt>
      <trkpt lat="44.31299" lon="0.83915">
        <ele>203.46</ele>
        <time>2022-10-02T08:42:07Z</time>
      </trkpt>
      <trkpt lat="44.31295" lon="0.83956">
        <ele>202.98</ele>
        <time>2022-10-02T08:42:22Z</time>
      </trkpt>
      <trkpt lat="44.31306" lon="0.8396">
        <ele>202.98</ele>
        <time>2022-10-02T08:42:26Z</time>
      </trkpt>
      <trkpt lat="44.31319" lon="0.83959">
        <ele>202.01</ele>
        <time>2022-10-02T08:42:29Z</time>
      </trkpt>
      <trkpt lat="44.31333" lon="0.83988">
        <ele>202.49</ele>
        <time>2022-10-02T08:42:36Z</time>
      </trkpt>
      <trkpt lat="44.3133" lon="0.84022">
        <ele>203.46</ele>
        <time>2022-10-02T08:42:44Z</time>
      </trkpt>
      <trkpt lat="44.3134" lon="0.84027">
        <ele>203.94</ele>
        <time>2022-10-02T08:42:48Z</time>
      </trkpt>
      <trkpt lat="44.31373" lon="0.84029">
        <ele>203.94</ele>
        <time>2022-10-02T08:42:57Z</time>
      </trkpt>
      <trkpt lat="44.31381" lon="0.84031">
        <ele>202.49</ele>
        <time>2022-10-02T08:42:59Z</time>
      </trkpt>
      <trkpt lat="44.31392" lon="0.84037">
        <ele>202.49</ele>
        <time>2022-10-02T08:43:02Z</time>
      </trkpt>
      <trkpt lat="44.31411" lon="0.84077">
        <ele>202.01</ele>
        <time>2022-10-02T08:43:09Z</time>
      </trkpt>
      <trkpt lat="44.31427" lon="0.84103">
        <ele>200.57</ele>
        <time>2022-10-02T08:43:13Z</time>
      </trkpt>
      <trkpt lat="44.3145" lon="0.84128">
        <ele>199.13</ele>
        <time>2022-10-02T08:43:18Z</time>
      </trkpt>
      <trkpt lat="44.31455" lon="0.84174">
        <ele>198.17</ele>
        <time>2022-10-02T08:43:25Z</time>
      </trkpt>
      <trkpt lat="44.31463" lon="0.84193">
        <ele>196.73</ele>
        <time>2022-10-02T08:43:28Z</time>
      </trkpt>
      <trkpt lat="44.3149" lon="0.84279">
        <ele>195.28</ele>
        <time>2022-10-02T08:43:40Z</time>
      </trkpt>
      <trkpt lat="44.31492" lon="0.84309">
        <ele>192.88</ele>
        <time>2022-10-02T08:43:44Z</time>
      </trkpt>
      <trkpt lat="44.31492" lon="0.84323">
        <ele>189.52</ele>
        <time>2022-10-02T08:43:46Z</time>
      </trkpt>
      <trkpt lat="44.31492" lon="0.8433">
        <ele>187.11</ele>
        <time>2022-10-02T08:43:47Z</time>
      </trkpt>
      <trkpt lat="44.31499" lon="0.8436">
        <ele>184.71</ele>
        <time>2022-10-02T08:43:51Z</time>
      </trkpt>
      <trkpt lat="44.31509" lon="0.84378">
        <ele>181.83</ele>
        <time>2022-10-02T08:43:54Z</time>
      </trkpt>
      <trkpt lat="44.31518" lon="0.84379">
        <ele>179.9</ele>
        <time>2022-10-02T08:43:56Z</time>
      </trkpt>
      <trkpt lat="44.31531" lon="0.84366">
        <ele>177.02</ele>
        <time>2022-10-02T08:44:00Z</time>
      </trkpt>
      <trkpt lat="44.31531" lon="0.84378">
        <ele>176.06</ele>
        <time>2022-10-02T08:44:04Z</time>
      </trkpt>
      <trkpt lat="44.31514" lon="0.8442">
        <ele>172.21</ele>
        <time>2022-10-02T08:44:10Z</time>
      </trkpt>
      <trkpt lat="44.31508" lon="0.84435">
        <ele>169.81</ele>
        <time>2022-10-02T08:44:12Z</time>
      </trkpt>
      <trkpt lat="44.31494" lon="0.84461">
        <ele>166.93</ele>
        <time>2022-10-02T08:44:16Z</time>
      </trkpt>
      <trkpt lat="44.31485" lon="0.84474">
        <ele>164.52</ele>
        <time>2022-10-02T08:44:19Z</time>
      </trkpt>
      <trkpt lat="44.31486" lon="0.84489">
        <ele>162.12</ele>
        <time>2022-10-02T08:44:22Z</time>
      </trkpt>
      <trkpt lat="44.31497" lon="0.84494">
        <ele>159.72</ele>
        <time>2022-10-02T08:44:25Z</time>
      </trkpt>
      <trkpt lat="44.31504" lon="0.8449">
        <ele>159.24</ele>
        <time>2022-10-02T08:44:27Z</time>
      </trkpt>
      <trkpt lat="44.31515" lon="0.84484">
        <ele>156.83</ele>
        <time>2022-10-02T08:44:30Z</time>
      </trkpt>
      <trkpt lat="44.31538" lon="0.84458">
        <ele>152.51</ele>
        <time>2022-10-02T08:44:36Z</time>
      </trkpt>
      <trkpt lat="44.31552" lon="0.84438">
        <ele>150.58</ele>
        <time>2022-10-02T08:44:40Z</time>
      </trkpt>
      <trkpt lat="44.31559" lon="0.8443">
        <ele>147.7</ele>
        <time>2022-10-02T08:44:43Z</time>
      </trkpt>
      <trkpt lat="44.31568" lon="0.8444">
        <ele>146.26</ele>
        <time>2022-10-02T08:44:48Z</time>
      </trkpt>
      <trkpt lat="44.31573" lon="0.84464">
        <ele>144.34</ele>
        <time>2022-10-02T08:44:52Z</time>
      </trkpt>
      <trkpt lat="44.3158" lon="0.84487">
        <ele>142.41</ele>
        <time>2022-10-02T08:44:55Z</time>
      </trkpt>
      <trkpt lat="44.31586" lon="0.84513">
        <ele>139.05</ele>
        <time>2022-10-02T08:44:58Z</time>
      </trkpt>
      <trkpt lat="44.31595" lon="0.84549">
        <ele>135.68</ele>
        <time>2022-10-02T08:45:02Z</time>
      </trkpt>
      <trkpt lat="44.31608" lon="0.84575">
        <ele>131.36</ele>
        <time>2022-10-02T08:45:06Z</time>
      </trkpt>
      <trkpt lat="44.31628" lon="0.84602">
        <ele>127.51</ele>
        <time>2022-10-02T08:45:11Z</time>
      </trkpt>
      <trkpt lat="44.31632" lon="0.84608">
        <ele>127.51</ele>
        <time>2022-10-02T08:45:12Z</time>
      </trkpt>
      <trkpt lat="44.31644" lon="0.84624">
        <ele>125.11</ele>
        <time>2022-10-02T08:45:15Z</time>
      </trkpt>
      <trkpt lat="44.31668" lon="0.84654">
        <ele>122.22</ele>
        <time>2022-10-02T08:45:21Z</time>
      </trkpt>
      <trkpt lat="44.31672" lon="0.84658">
        <ele>122.22</ele>
        <time>2022-10-02T08:45:22Z</time>
      </trkpt>
      <trkpt lat="44.31679" lon="0.84671">
        <ele>120.3</ele>
        <time>2022-10-02T08:45:25Z</time>
      </trkpt>
      <trkpt lat="44.31682" lon="0.84678">
        <ele>119.82</ele>
        <time>2022-10-02T08:45:27Z</time>
      </trkpt>
      <trkpt lat="44.31659" lon="0.84692">
        <ele>118.86</ele>
        <time>2022-10-02T08:45:38Z</time>
      </trkpt>
      <trkpt lat="44.31651" lon="0.84695">
        <ele>119.34</ele>
        <time>2022-10-02T08:45:40Z</time>
      </trkpt>
      <trkpt lat="44.31606" lon="0.84727">
        <ele>117.9</ele>
        <time>2022-10-02T08:45:50Z</time>
      </trkpt>
      <trkpt lat="44.31557" lon="0.8474">
        <ele>117.42</ele>
        <time>2022-10-02T08:46:03Z</time>
      </trkpt>
      <trkpt lat="44.31552" lon="0.84746">
        <ele>117.42</ele>
        <time>2022-10-02T08:46:05Z</time>
      </trkpt>
      <trkpt lat="44.31538" lon="0.84786">
        <ele>115.98</ele>
        <time>2022-10-02T08:46:11Z</time>
      </trkpt>
      <trkpt lat="44.31513" lon="0.84822">
        <ele>114.05</ele>
        <time>2022-10-02T08:46:17Z</time>
      </trkpt>
      <trkpt lat="44.31468" lon="0.84865">
        <ele>113.57</ele>
        <time>2022-10-02T08:46:31Z</time>
      </trkpt>
      <trkpt lat="44.3145" lon="0.84862">
        <ele>115.01</ele>
        <time>2022-10-02T08:46:37Z</time>
      </trkpt>
      <trkpt lat="44.31418" lon="0.8486">
        <ele>117.9</ele>
        <time>2022-10-02T08:46:54Z</time>
      </trkpt>
      <trkpt lat="44.31401" lon="0.84867">
        <ele>120.78</ele>
        <time>2022-10-02T08:47:07Z</time>
      </trkpt>
      <trkpt lat="44.31382" lon="0.84878">
        <ele>123.19</ele>
        <time>2022-10-02T08:47:24Z</time>
      </trkpt>
      <trkpt lat="44.31363" lon="0.84894">
        <ele>126.07</ele>
        <time>2022-10-02T08:47:44Z</time>
      </trkpt>
      <trkpt lat="44.31341" lon="0.84918">
        <ele>128.95</ele>
        <time>2022-10-02T08:48:05Z</time>
      </trkpt>
      <trkpt lat="44.31317" lon="0.84945">
        <ele>130.88</ele>
        <time>2022-10-02T08:48:27Z</time>
      </trkpt>
      <trkpt lat="44.31292" lon="0.84974">
        <ele>132.8</ele>
        <time>2022-10-02T08:48:48Z</time>
      </trkpt>
      <trkpt lat="44.31262" lon="0.84997">
        <ele>133.76</ele>
        <time>2022-10-02T08:49:08Z</time>
      </trkpt>
      <trkpt lat="44.31233" lon="0.85018">
        <ele>136.64</ele>
        <time>2022-10-02T08:49:30Z</time>
      </trkpt>
      <trkpt lat="44.31211" lon="0.85029">
        <ele>139.05</ele>
        <time>2022-10-02T08:49:48Z</time>
      </trkpt>
      <trkpt lat="44.31189" lon="0.85041">
        <ele>141.93</ele>
        <time>2022-10-02T08:50:10Z</time>
      </trkpt>
      <trkpt lat="44.31185" lon="0.85043">
        <ele>142.41</ele>
        <time>2022-10-02T08:50:14Z</time>
      </trkpt>
      <trkpt lat="44.31166" lon="0.85054">
        <ele>145.78</ele>
        <time>2022-10-02T08:50:33Z</time>
      </trkpt>
      <trkpt lat="44.31149" lon="0.8506">
        <ele>149.14</ele>
        <time>2022-10-02T08:50:52Z</time>
      </trkpt>
      <trkpt lat="44.31146" lon="0.8506">
        <ele>149.62</ele>
        <time>2022-10-02T08:50:57Z</time>
      </trkpt>
      <trkpt lat="44.31138" lon="0.85062">
        <ele>151.06</ele>
        <time>2022-10-02T08:51:08Z</time>
      </trkpt>
      <trkpt lat="44.31131" lon="0.85062">
        <ele>152.03</ele>
        <time>2022-10-02T08:51:15Z</time>
      </trkpt>
      <trkpt lat="44.31114" lon="0.85065">
        <ele>153.95</ele>
        <time>2022-10-02T08:51:34Z</time>
      </trkpt>
      <trkpt lat="44.31109" lon="0.85065">
        <ele>154.91</ele>
        <time>2022-10-02T08:51:39Z</time>
      </trkpt>
      <trkpt lat="44.31099" lon="0.85063">
        <ele>156.83</ele>
        <time>2022-10-02T08:51:51Z</time>
      </trkpt>
      <trkpt lat="44.31088" lon="0.85057">
        <ele>158.75</ele>
        <time>2022-10-02T08:52:05Z</time>
      </trkpt>
      <trkpt lat="44.31077" lon="0.85039">
        <ele>162.12</ele>
        <time>2022-10-02T08:52:22Z</time>
      </trkpt>
      <trkpt lat="44.31073" lon="0.85031">
        <ele>161.64</ele>
        <time>2022-10-02T08:52:30Z</time>
      </trkpt>
      <trkpt lat="44.31072" lon="0.85028">
        <ele>164.04</ele>
        <time>2022-10-02T08:52:33Z</time>
      </trkpt>
      <trkpt lat="44.31066" lon="0.85011">
        <ele>166.93</ele>
        <time>2022-10-02T08:52:48Z</time>
      </trkpt>
      <trkpt lat="44.31064" lon="0.85005">
        <ele>167.41</ele>
        <time>2022-10-02T08:52:54Z</time>
      </trkpt>
      <trkpt lat="44.31055" lon="0.84984">
        <ele>167.89</ele>
        <time>2022-10-02T08:53:13Z</time>
      </trkpt>
      <trkpt lat="44.31044" lon="0.84969">
        <ele>170.77</ele>
        <time>2022-10-02T08:53:29Z</time>
      </trkpt>
      <trkpt lat="44.3104" lon="0.84964">
        <ele>169.81</ele>
        <time>2022-10-02T08:53:34Z</time>
      </trkpt>
      <trkpt lat="44.31029" lon="0.84954">
        <ele>173.17</ele>
        <time>2022-10-02T08:53:49Z</time>
      </trkpt>
      <trkpt lat="44.3102" lon="0.84946">
        <ele>173.66</ele>
        <time>2022-10-02T08:54:01Z</time>
      </trkpt>
      <trkpt lat="44.3101" lon="0.8494">
        <ele>177.02</ele>
        <time>2022-10-02T08:54:14Z</time>
      </trkpt>
      <trkpt lat="44.31006" lon="0.84938">
        <ele>177.5</ele>
        <time>2022-10-02T08:54:19Z</time>
      </trkpt>
      <trkpt lat="44.31002" lon="0.84937">
        <ele>177.02</ele>
        <time>2022-10-02T08:54:25Z</time>
      </trkpt>
      <trkpt lat="44.31" lon="0.84937">
        <ele>178.46</ele>
        <time>2022-10-02T08:54:27Z</time>
      </trkpt>
      <trkpt lat="44.30984" lon="0.84928">
        <ele>181.35</ele>
        <time>2022-10-02T08:54:46Z</time>
      </trkpt>
      <trkpt lat="44.30972" lon="0.84925">
        <ele>183.75</ele>
        <time>2022-10-02T08:55:00Z</time>
      </trkpt>
      <trkpt lat="44.30968" lon="0.84924">
        <ele>183.27</ele>
        <time>2022-10-02T08:55:05Z</time>
      </trkpt>
      <trkpt lat="44.30967" lon="0.84922">
        <ele>184.71</ele>
        <time>2022-10-02T08:55:07Z</time>
      </trkpt>
      <trkpt lat="44.30958" lon="0.84918">
        <ele>186.63</ele>
        <time>2022-10-02T08:55:18Z</time>
      </trkpt>
      <trkpt lat="44.30945" lon="0.84911">
        <ele>188.08</ele>
        <time>2022-10-02T08:55:35Z</time>
      </trkpt>
      <trkpt lat="44.30942" lon="0.84911">
        <ele>189.52</ele>
        <time>2022-10-02T08:55:38Z</time>
      </trkpt>
      <trkpt lat="44.30937" lon="0.84909">
        <ele>189.04</ele>
        <time>2022-10-02T08:55:46Z</time>
      </trkpt>
      <trkpt lat="44.30934" lon="0.84909">
        <ele>190.48</ele>
        <time>2022-10-02T08:55:49Z</time>
      </trkpt>
      <trkpt lat="44.30927" lon="0.84919">
        <ele>192.88</ele>
        <time>2022-10-02T08:56:02Z</time>
      </trkpt>
      <trkpt lat="44.30925" lon="0.84928">
        <ele>191.44</ele>
        <time>2022-10-02T08:56:06Z</time>
      </trkpt>
      <trkpt lat="44.30909" lon="0.84938">
        <ele>191.44</ele>
        <time>2022-10-02T08:56:12Z</time>
      </trkpt>
      <trkpt lat="44.30881" lon="0.8494">
        <ele>192.4</ele>
        <time>2022-10-02T08:56:19Z</time>
      </trkpt>
      <trkpt lat="44.3087" lon="0.84944">
        <ele>189.04</ele>
        <time>2022-10-02T08:56:23Z</time>
      </trkpt>
      <trkpt lat="44.30857" lon="0.84947">
        <ele>191.92</ele>
        <time>2022-10-02T08:56:34Z</time>
      </trkpt>
      <trkpt lat="44.30838" lon="0.8494">
        <ele>194.8</ele>
        <time>2022-10-02T08:56:51Z</time>
      </trkpt>
      <trkpt lat="44.30815" lon="0.84934">
        <ele>198.17</ele>
        <time>2022-10-02T08:57:08Z</time>
      </trkpt>
      <trkpt lat="44.30802" lon="0.84933">
        <ele>199.61</ele>
        <time>2022-10-02T08:57:20Z</time>
      </trkpt>
      <trkpt lat="44.30799" lon="0.84933">
        <ele>197.21</ele>
        <time>2022-10-02T08:57:22Z</time>
      </trkpt>
      <trkpt lat="44.30792" lon="0.84933">
        <ele>198.65</ele>
        <time>2022-10-02T08:57:28Z</time>
      </trkpt>
      <trkpt lat="44.3079" lon="0.84933">
        <ele>198.65</ele>
        <time>2022-10-02T08:57:30Z</time>
      </trkpt>
      <trkpt lat="44.30777" lon="0.84933">
        <ele>197.21</ele>
        <time>2022-10-02T08:57:37Z</time>
      </trkpt>
      <trkpt lat="44.30771" lon="0.84933">
        <ele>199.61</ele>
        <time>2022-10-02T08:57:40Z</time>
      </trkpt>
      <trkpt lat="44.30761" lon="0.84932">
        <ele>198.65</ele>
        <time>2022-10-02T08:57:44Z</time>
      </trkpt>
      <trkpt lat="44.30718" lon="0.84946">
        <ele>199.13</ele>
        <time>2022-10-02T08:58:00Z</time>
      </trkpt>
      <trkpt lat="44.30672" lon="0.84974">
        <ele>198.65</ele>
        <time>2022-10-02T08:58:17Z</time>
      </trkpt>
      <trkpt lat="44.30634" lon="0.84996">
        <ele>199.13</ele>
        <time>2022-10-02T08:58:29Z</time>
      </trkpt>
      <trkpt lat="44.3063" lon="0.85002">
        <ele>197.69</ele>
        <time>2022-10-02T08:58:33Z</time>
      </trkpt>
      <trkpt lat="44.30629" lon="0.85006">
        <ele>201.53</ele>
        <time>2022-10-02T08:58:35Z</time>
      </trkpt>
      <trkpt lat="44.30628" lon="0.85008">
        <ele>197.21</ele>
        <time>2022-10-02T08:58:36Z</time>
      </trkpt>
      <trkpt lat="44.30623" lon="0.8505">
        <ele>198.17</ele>
        <time>2022-10-02T08:58:50Z</time>
      </trkpt>
      <trkpt lat="44.30624" lon="0.85069">
        <ele>197.69</ele>
        <time>2022-10-02T08:58:56Z</time>
      </trkpt>
      <trkpt lat="44.30619" lon="0.85114">
        <ele>199.13</ele>
        <time>2022-10-02T08:59:11Z</time>
      </trkpt>
      <trkpt lat="44.30594" lon="0.85173">
        <ele>199.13</ele>
        <time>2022-10-02T08:59:28Z</time>
      </trkpt>
      <trkpt lat="44.30587" lon="0.85187">
        <ele>198.17</ele>
        <time>2022-10-02T08:59:32Z</time>
      </trkpt>
      <trkpt lat="44.30581" lon="0.85233">
        <ele>195.77</ele>
        <time>2022-10-02T08:59:44Z</time>
      </trkpt>
      <trkpt lat="44.30583" lon="0.85255">
        <ele>193.84</ele>
        <time>2022-10-02T08:59:47Z</time>
      </trkpt>
      <trkpt lat="44.30588" lon="0.85283">
        <ele>191.92</ele>
        <time>2022-10-02T08:59:50Z</time>
      </trkpt>
      <trkpt lat="44.30597" lon="0.85308">
        <ele>193.84</ele>
        <time>2022-10-02T08:59:56Z</time>
      </trkpt>
      <trkpt lat="44.3061" lon="0.85336">
        <ele>197.21</ele>
        <time>2022-10-02T09:00:09Z</time>
      </trkpt>
      <trkpt lat="44.30623" lon="0.85349">
        <ele>196.73</ele>
        <time>2022-10-02T09:00:17Z</time>
      </trkpt>
      <trkpt lat="44.30645" lon="0.85357">
        <ele>198.65</ele>
        <time>2022-10-02T09:00:33Z</time>
      </trkpt>
      <trkpt lat="44.30655" lon="0.85362">
        <ele>201.53</ele>
        <time>2022-10-02T09:00:41Z</time>
      </trkpt>
      <trkpt lat="44.30658" lon="0.85364">
        <ele>200.09</ele>
        <time>2022-10-02T09:00:43Z</time>
      </trkpt>
      <trkpt lat="44.30668" lon="0.85375">
        <ele>202.98</ele>
        <time>2022-10-02T09:00:52Z</time>
      </trkpt>
      <trkpt lat="44.30673" lon="0.85388">
        <ele>203.94</ele>
        <time>2022-10-02T09:01:00Z</time>
      </trkpt>
      <trkpt lat="44.30676" lon="0.85397">
        <ele>204.9</ele>
        <time>2022-10-02T09:01:06Z</time>
      </trkpt>
      <trkpt lat="44.30681" lon="0.85408">
        <ele>206.34</ele>
        <time>2022-10-02T09:01:13Z</time>
      </trkpt>
      <trkpt lat="44.30682" lon="0.8541">
        <ele>203.46</ele>
        <time>2022-10-02T09:01:14Z</time>
      </trkpt>
      <trkpt lat="44.3069" lon="0.85427">
        <ele>206.82</ele>
        <time>2022-10-02T09:01:24Z</time>
      </trkpt>
      <trkpt lat="44.30704" lon="0.85463">
        <ele>207.78</ele>
        <time>2022-10-02T09:01:44Z</time>
      </trkpt>
      <trkpt lat="44.30713" lon="0.85494">
        <ele>207.78</ele>
        <time>2022-10-02T09:02:00Z</time>
      </trkpt>
      <trkpt lat="44.3073" lon="0.8553">
        <ele>207.3</ele>
        <time>2022-10-02T09:02:16Z</time>
      </trkpt>
      <trkpt lat="44.30741" lon="0.85549">
        <ele>206.82</ele>
        <time>2022-10-02T09:02:24Z</time>
      </trkpt>
      <trkpt lat="44.30744" lon="0.85554">
        <ele>207.3</ele>
        <time>2022-10-02T09:02:25Z</time>
      </trkpt>
      <trkpt lat="44.30759" lon="0.85584">
        <ele>204.9</ele>
        <time>2022-10-02T09:02:29Z</time>
      </trkpt>
      <trkpt lat="44.30771" lon="0.85631">
        <ele>202.98</ele>
        <time>2022-10-02T09:02:34Z</time>
      </trkpt>
      <trkpt lat="44.30782" lon="0.85659">
        <ele>201.05</ele>
        <time>2022-10-02T09:02:38Z</time>
      </trkpt>
      <trkpt lat="44.30794" lon="0.85692">
        <ele>202.49</ele>
        <time>2022-10-02T09:02:47Z</time>
      </trkpt>
      <trkpt lat="44.30809" lon="0.85763">
        <ele>203.94</ele>
        <time>2022-10-02T09:03:06Z</time>
      </trkpt>
      <trkpt lat="44.30822" lon="0.8585">
        <ele>203.94</ele>
        <time>2022-10-02T09:03:25Z</time>
      </trkpt>
      <trkpt lat="44.30832" lon="0.85884">
        <ele>202.49</ele>
        <time>2022-10-02T09:03:33Z</time>
      </trkpt>
      <trkpt lat="44.30849" lon="0.85916">
        <ele>202.98</ele>
        <time>2022-10-02T09:03:43Z</time>
      </trkpt>
      <trkpt lat="44.30852" lon="0.85921">
        <ele>202.98</ele>
        <time>2022-10-02T09:03:44Z</time>
      </trkpt>
      <trkpt lat="44.30858" lon="0.85931">
        <ele>202.98</ele>
        <time>2022-10-02T09:03:46Z</time>
      </trkpt>
      <trkpt lat="44.30873" lon="0.85964">
        <ele>202.98</ele>
        <time>2022-10-02T09:03:52Z</time>
      </trkpt>
      <trkpt lat="44.3088" lon="0.85973">
        <ele>201.53</ele>
        <time>2022-10-02T09:03:54Z</time>
      </trkpt>
      <trkpt lat="44.30889" lon="0.8598">
        <ele>201.05</ele>
        <time>2022-10-02T09:03:56Z</time>
      </trkpt>
      <trkpt lat="44.3092" lon="0.85993">
        <ele>202.01</ele>
        <time>2022-10-02T09:04:06Z</time>
      </trkpt>
      <trkpt lat="44.30947" lon="0.85975">
        <ele>203.94</ele>
        <time>2022-10-02T09:04:22Z</time>
      </trkpt>
      <trkpt lat="44.30985" lon="0.85941">
        <ele>204.42</ele>
        <time>2022-10-02T09:04:39Z</time>
      </trkpt>
      <trkpt lat="44.31017" lon="0.85901">
        <ele>206.34</ele>
        <time>2022-10-02T09:04:57Z</time>
      </trkpt>
      <trkpt lat="44.31048" lon="0.85861">
        <ele>206.34</ele>
        <time>2022-10-02T09:05:11Z</time>
      </trkpt>
      <trkpt lat="44.31069" lon="0.85842">
        <ele>204.9</ele>
        <time>2022-10-02T09:05:19Z</time>
      </trkpt>
      <trkpt lat="44.31093" lon="0.85824">
        <ele>206.82</ele>
        <time>2022-10-02T09:05:30Z</time>
      </trkpt>
      <trkpt lat="44.311" lon="0.85823">
        <ele>206.34</ele>
        <time>2022-10-02T09:05:34Z</time>
      </trkpt>
      <trkpt lat="44.31111" lon="0.85842">
        <ele>208.74</ele>
        <time>2022-10-02T09:05:44Z</time>
      </trkpt>
      <trkpt lat="44.31119" lon="0.8585">
        <ele>208.74</ele>
        <time>2022-10-02T09:05:50Z</time>
      </trkpt>
      <trkpt lat="44.3113" lon="0.85856">
        <ele>209.22</ele>
        <time>2022-10-02T09:05:57Z</time>
      </trkpt>
      <trkpt lat="44.31142" lon="0.85854">
        <ele>208.26</ele>
        <time>2022-10-02T09:06:03Z</time>
      </trkpt>
      <trkpt lat="44.31146" lon="0.85855">
        <ele>208.26</ele>
        <time>2022-10-02T09:06:05Z</time>
      </trkpt>
      <trkpt lat="44.31149" lon="0.85858">
        <ele>209.7</ele>
        <time>2022-10-02T09:06:07Z</time>
      </trkpt>
      <trkpt lat="44.31152" lon="0.85863">
        <ele>208.26</ele>
        <time>2022-10-02T09:06:09Z</time>
      </trkpt>
      <trkpt lat="44.31168" lon="0.85876">
        <ele>205.86</ele>
        <time>2022-10-02T09:06:17Z</time>
      </trkpt>
      <trkpt lat="44.31171" lon="0.85878">
        <ele>207.78</ele>
        <time>2022-10-02T09:06:18Z</time>
      </trkpt>
      <trkpt lat="44.31181" lon="0.8589">
        <ele>203.94</ele>
        <time>2022-10-02T09:06:22Z</time>
      </trkpt>
      <trkpt lat="44.31185" lon="0.85956">
        <ele>200.09</ele>
        <time>2022-10-02T09:06:33Z</time>
      </trkpt>
      <trkpt lat="44.31185" lon="0.85971">
        <ele>199.61</ele>
        <time>2022-10-02T09:06:35Z</time>
      </trkpt>
      <trkpt lat="44.31176" lon="0.86024">
        <ele>199.61</ele>
        <time>2022-10-02T09:06:47Z</time>
      </trkpt>
      <trkpt lat="44.31168" lon="0.86053">
        <ele>201.05</ele>
        <time>2022-10-02T09:06:55Z</time>
      </trkpt>
      <trkpt lat="44.3114" lon="0.86094">
        <ele>203.46</ele>
        <time>2022-10-02T09:07:11Z</time>
      </trkpt>
      <trkpt lat="44.31117" lon="0.86145">
        <ele>203.94</ele>
        <time>2022-10-02T09:07:28Z</time>
      </trkpt>
      <trkpt lat="44.31102" lon="0.86191">
        <ele>202.49</ele>
        <time>2022-10-02T09:07:36Z</time>
      </trkpt>
      <trkpt lat="44.31089" lon="0.86234">
        <ele>201.53</ele>
        <time>2022-10-02T09:07:45Z</time>
      </trkpt>
      <trkpt lat="44.31099" lon="0.86262">
        <ele>199.13</ele>
        <time>2022-10-02T09:07:51Z</time>
      </trkpt>
      <trkpt lat="44.31102" lon="0.86268">
        <ele>198.17</ele>
        <time>2022-10-02T09:07:52Z</time>
      </trkpt>
      <trkpt lat="44.31116" lon="0.86288">
        <ele>193.36</ele>
        <time>2022-10-02T09:07:57Z</time>
      </trkpt>
      <trkpt lat="44.31119" lon="0.86291">
        <ele>191.92</ele>
        <time>2022-10-02T09:07:59Z</time>
      </trkpt>
      <trkpt lat="44.31123" lon="0.86293">
        <ele>190.96</ele>
        <time>2022-10-02T09:08:01Z</time>
      </trkpt>
      <trkpt lat="44.31129" lon="0.86297">
        <ele>190.96</ele>
        <time>2022-10-02T09:08:04Z</time>
      </trkpt>
      <trkpt lat="44.31132" lon="0.86332">
        <ele>192.88</ele>
        <time>2022-10-02T09:08:19Z</time>
      </trkpt>
      <trkpt lat="44.31124" lon="0.86377">
        <ele>196.25</ele>
        <time>2022-10-02T09:08:40Z</time>
      </trkpt>
      <trkpt lat="44.31118" lon="0.86391">
        <ele>198.65</ele>
        <time>2022-10-02T09:08:47Z</time>
      </trkpt>
      <trkpt lat="44.3111" lon="0.86402">
        <ele>199.61</ele>
        <time>2022-10-02T09:08:54Z</time>
      </trkpt>
      <trkpt lat="44.31109" lon="0.86406">
        <ele>199.61</ele>
        <time>2022-10-02T09:08:59Z</time>
      </trkpt>
      <trkpt lat="44.31109" lon="0.86407">
        <ele>201.05</ele>
        <time>2022-10-02T09:09:03Z</time>
      </trkpt>
      <trkpt lat="44.31108" lon="0.86407">
        <ele>198.65</ele>
        <time>2022-10-02T09:09:06Z</time>
      </trkpt>
      <trkpt lat="44.31107" lon="0.86408">
        <ele>200.09</ele>
        <time>2022-10-02T09:09:10Z</time>
      </trkpt>
      <trkpt lat="44.31104" lon="0.86408">
        <ele>199.61</ele>
        <time>2022-10-02T09:09:25Z</time>
      </trkpt>
      <trkpt lat="44.31105" lon="0.86407">
        <ele>199.61</ele>
        <time>2022-10-02T09:09:31Z</time>
      </trkpt>
      <trkpt lat="44.31108" lon="0.86409">
        <ele>200.57</ele>
        <time>2022-10-02T09:10:14Z</time>
      </trkpt>
      <trkpt lat="44.31108" lon="0.8641">
        <ele>199.61</ele>
        <time>2022-10-02T09:10:31Z</time>
      </trkpt>
      <trkpt lat="44.31106" lon="0.86407">
        <ele>199.61</ele>
        <time>2022-10-02T09:10:52Z</time>
      </trkpt>
      <trkpt lat="44.31107" lon="0.86408">
        <ele>201.53</ele>
        <time>2022-10-02T09:11:17Z</time>
      </trkpt>
      <trkpt lat="44.31106" lon="0.86409">
        <ele>201.05</ele>
        <time>2022-10-02T09:11:31Z</time>
      </trkpt>
      <trkpt lat="44.31106" lon="0.86411">
        <ele>200.57</ele>
        <time>2022-10-02T09:11:49Z</time>
      </trkpt>
      <trkpt lat="44.31108" lon="0.86408">
        <ele>200.09</ele>
        <time>2022-10-02T09:12:10Z</time>
      </trkpt>
      <trkpt lat="44.31108" lon="0.86406">
        <ele>200.09</ele>
        <time>2022-10-02T09:12:12Z</time>
      </trkpt>
      <trkpt lat="44.31109" lon="0.86406">
        <ele>199.61</ele>
        <time>2022-10-02T09:12:17Z</time>
      </trkpt>
      <trkpt lat="44.31113" lon="0.86415">
        <ele>201.53</ele>
        <time>2022-10-02T09:12:26Z</time>
      </trkpt>
      <trkpt lat="44.31115" lon="0.86414">
        <ele>203.94</ele>
        <time>2022-10-02T09:12:29Z</time>
      </trkpt>
      <trkpt lat="44.31115" lon="0.86415">
        <ele>201.53</ele>
        <time>2022-10-02T09:12:31Z</time>
      </trkpt>
      <trkpt lat="44.3112" lon="0.86412">
        <ele>202.98</ele>
        <time>2022-10-02T09:12:38Z</time>
      </trkpt>
      <trkpt lat="44.3115" lon="0.86392">
        <ele>203.46</ele>
        <time>2022-10-02T09:12:52Z</time>
      </trkpt>
      <trkpt lat="44.31188" lon="0.86352">
        <ele>205.86</ele>
        <time>2022-10-02T09:13:10Z</time>
      </trkpt>
      <trkpt lat="44.31232" lon="0.86315">
        <ele>206.82</ele>
        <time>2022-10-02T09:13:28Z</time>
      </trkpt>
      <trkpt lat="44.31237" lon="0.86311">
        <ele>208.26</ele>
        <time>2022-10-02T09:13:30Z</time>
      </trkpt>
      <trkpt lat="44.31272" lon="0.8627">
        <ele>208.26</ele>
        <time>2022-10-02T09:13:45Z</time>
      </trkpt>
      <trkpt lat="44.31315" lon="0.86231">
        <ele>205.38</ele>
        <time>2022-10-02T09:13:56Z</time>
      </trkpt>
      <trkpt lat="44.31327" lon="0.86224">
        <ele>205.38</ele>
        <time>2022-10-02T09:13:59Z</time>
      </trkpt>
      <trkpt lat="44.31341" lon="0.8622">
        <ele>202.49</ele>
        <time>2022-10-02T09:14:02Z</time>
      </trkpt>
      <trkpt lat="44.31357" lon="0.86214">
        <ele>202.49</ele>
        <time>2022-10-02T09:14:05Z</time>
      </trkpt>
      <trkpt lat="44.31375" lon="0.86197">
        <ele>204.42</ele>
        <time>2022-10-02T09:14:10Z</time>
      </trkpt>
      <trkpt lat="44.31378" lon="0.8619">
        <ele>205.38</ele>
        <time>2022-10-02T09:14:12Z</time>
      </trkpt>
      <trkpt lat="44.31395" lon="0.86149">
        <ele>207.3</ele>
        <time>2022-10-02T09:14:23Z</time>
      </trkpt>
      <trkpt lat="44.31422" lon="0.86108">
        <ele>208.74</ele>
        <time>2022-10-02T09:14:39Z</time>
      </trkpt>
      <trkpt lat="44.31443" lon="0.86088">
        <ele>211.15</ele>
        <time>2022-10-02T09:14:53Z</time>
      </trkpt>
      <trkpt lat="44.31466" lon="0.86057">
        <ele>211.63</ele>
        <time>2022-10-02T09:15:05Z</time>
      </trkpt>
      <trkpt lat="44.31503" lon="0.86029">
        <ele>210.19</ele>
        <time>2022-10-02T09:15:21Z</time>
      </trkpt>
      <trkpt lat="44.3151" lon="0.8603">
        <ele>211.63</ele>
        <time>2022-10-02T09:15:24Z</time>
      </trkpt>
      <trkpt lat="44.31515" lon="0.86031">
        <ele>210.19</ele>
        <time>2022-10-02T09:15:26Z</time>
      </trkpt>
      <trkpt lat="44.31525" lon="0.8606">
        <ele>210.19</ele>
        <time>2022-10-02T09:15:36Z</time>
      </trkpt>
      <trkpt lat="44.31519" lon="0.86093">
        <ele>211.63</ele>
        <time>2022-10-02T09:15:45Z</time>
      </trkpt>
      <trkpt lat="44.31529" lon="0.86122">
        <ele>210.19</ele>
        <time>2022-10-02T09:15:55Z</time>
      </trkpt>
      <trkpt lat="44.31534" lon="0.86118">
        <ele>209.22</ele>
        <time>2022-10-02T09:15:59Z</time>
      </trkpt>
      <trkpt lat="44.31545" lon="0.86094">
        <ele>206.82</ele>
        <time>2022-10-02T09:16:06Z</time>
      </trkpt>
      <trkpt lat="44.31552" lon="0.86079">
        <ele>204.42</ele>
        <time>2022-10-02T09:16:09Z</time>
      </trkpt>
      <trkpt lat="44.31557" lon="0.86063">
        <ele>200.57</ele>
        <time>2022-10-02T09:16:12Z</time>
      </trkpt>
      <trkpt lat="44.31561" lon="0.86054">
        <ele>199.13</ele>
        <time>2022-10-02T09:16:14Z</time>
      </trkpt>
      <trkpt lat="44.31567" lon="0.86038">
        <ele>195.77</ele>
        <time>2022-10-02T09:16:17Z</time>
      </trkpt>
      <trkpt lat="44.31573" lon="0.86022">
        <ele>191.92</ele>
        <time>2022-10-02T09:16:20Z</time>
      </trkpt>
      <trkpt lat="44.31578" lon="0.86005">
        <ele>189.04</ele>
        <time>2022-10-02T09:16:23Z</time>
      </trkpt>
      <trkpt lat="44.31581" lon="0.85993">
        <ele>185.67</ele>
        <time>2022-10-02T09:16:25Z</time>
      </trkpt>
      <trkpt lat="44.31575" lon="0.85967">
        <ele>182.79</ele>
        <time>2022-10-02T09:16:30Z</time>
      </trkpt>
      <trkpt lat="44.31582" lon="0.85951">
        <ele>178.94</ele>
        <time>2022-10-02T09:16:36Z</time>
      </trkpt>
      <trkpt lat="44.31594" lon="0.85955">
        <ele>176.54</ele>
        <time>2022-10-02T09:16:39Z</time>
      </trkpt>
      <trkpt lat="44.31604" lon="0.85957">
        <ele>173.66</ele>
        <time>2022-10-02T09:16:42Z</time>
      </trkpt>
      <trkpt lat="44.31611" lon="0.85945">
        <ele>170.29</ele>
        <time>2022-10-02T09:16:47Z</time>
      </trkpt>
      <trkpt lat="44.31609" lon="0.85941">
        <ele>170.29</ele>
        <time>2022-10-02T09:16:48Z</time>
      </trkpt>
      <trkpt lat="44.31607" lon="0.85922">
        <ele>167.89</ele>
        <time>2022-10-02T09:16:52Z</time>
      </trkpt>
      <trkpt lat="44.31612" lon="0.85914">
        <ele>165.96</ele>
        <time>2022-10-02T09:16:54Z</time>
      </trkpt>
      <trkpt lat="44.31624" lon="0.85903">
        <ele>163.56</ele>
        <time>2022-10-02T09:16:57Z</time>
      </trkpt>
      <trkpt lat="44.31633" lon="0.85894">
        <ele>160.2</ele>
        <time>2022-10-02T09:17:00Z</time>
      </trkpt>
      <trkpt lat="44.31643" lon="0.85887">
        <ele>155.87</ele>
        <time>2022-10-02T09:17:03Z</time>
      </trkpt>
      <trkpt lat="44.31646" lon="0.85885">
        <ele>155.87</ele>
        <time>2022-10-02T09:17:04Z</time>
      </trkpt>
      <trkpt lat="44.31656" lon="0.85884">
        <ele>152.03</ele>
        <time>2022-10-02T09:17:06Z</time>
      </trkpt>
      <trkpt lat="44.3167" lon="0.85882">
        <ele>148.66</ele>
        <time>2022-10-02T09:17:09Z</time>
      </trkpt>
      <trkpt lat="44.3168" lon="0.85879">
        <ele>145.78</ele>
        <time>2022-10-02T09:17:12Z</time>
      </trkpt>
      <trkpt lat="44.31687" lon="0.85873">
        <ele>142.41</ele>
        <time>2022-10-02T09:17:15Z</time>
      </trkpt>
      <trkpt lat="44.31688" lon="0.8587">
        <ele>142.41</ele>
        <time>2022-10-02T09:17:16Z</time>
      </trkpt>
      <trkpt lat="44.3169" lon="0.85862">
        <ele>139.05</ele>
        <time>2022-10-02T09:17:18Z</time>
      </trkpt>
      <trkpt lat="44.31695" lon="0.85845">
        <ele>134.72</ele>
        <time>2022-10-02T09:17:22Z</time>
      </trkpt>
      <trkpt lat="44.31697" lon="0.85841">
        <ele>134.72</ele>
        <time>2022-10-02T09:17:23Z</time>
      </trkpt>
      <trkpt lat="44.317" lon="0.85831">
        <ele>132.32</ele>
        <time>2022-10-02T09:17:26Z</time>
      </trkpt>
      <trkpt lat="44.31707" lon="0.858">
        <ele>128.95</ele>
        <time>2022-10-02T09:17:36Z</time>
      </trkpt>
      <trkpt lat="44.31711" lon="0.85789">
        <ele>128.47</ele>
        <time>2022-10-02T09:17:40Z</time>
      </trkpt>
      <trkpt lat="44.31732" lon="0.8578">
        <ele>127.99</ele>
        <time>2022-10-02T09:17:47Z</time>
      </trkpt>
      <trkpt lat="44.31792" lon="0.85793">
        <ele>124.15</ele>
        <time>2022-10-02T09:17:58Z</time>
      </trkpt>
      <trkpt lat="44.31862" lon="0.85804">
        <ele>120.78</ele>
        <time>2022-10-02T09:18:14Z</time>
      </trkpt>
      <trkpt lat="44.31884" lon="0.85807">
        <ele>119.34</ele>
        <time>2022-10-02T09:18:19Z</time>
      </trkpt>
      <trkpt lat="44.31897" lon="0.85809">
        <ele>118.86</ele>
        <time>2022-10-02T09:18:22Z</time>
      </trkpt>
      <trkpt lat="44.31946" lon="0.85818">
        <ele>115.01</ele>
        <time>2022-10-02T09:18:34Z</time>
      </trkpt>
      <trkpt lat="44.3195" lon="0.85818">
        <ele>115.01</ele>
        <time>2022-10-02T09:18:35Z</time>
      </trkpt>
      <trkpt lat="44.31967" lon="0.85774">
        <ele>115.01</ele>
        <time>2022-10-02T09:18:46Z</time>
      </trkpt>
      <trkpt lat="44.31969" lon="0.85765">
        <ele>116.46</ele>
        <time>2022-10-02T09:18:48Z</time>
      </trkpt>
      <trkpt lat="44.31991" lon="0.8575">
        <ele>117.9</ele>
        <time>2022-10-02T09:18:59Z</time>
      </trkpt>
      <trkpt lat="44.31995" lon="0.85752">
        <ele>117.9</ele>
        <time>2022-10-02T09:19:00Z</time>
      </trkpt>
      <trkpt lat="44.32007" lon="0.85753">
        <ele>117.9</ele>
        <time>2022-10-02T09:19:03Z</time>
      </trkpt>
      <trkpt lat="44.32033" lon="0.85748">
        <ele>114.05</ele>
        <time>2022-10-02T09:19:08Z</time>
      </trkpt>
      <trkpt lat="44.32125" lon="0.85731">
        <ele>112.13</ele>
        <time>2022-10-02T09:19:25Z</time>
      </trkpt>
      <trkpt lat="44.32174" lon="0.85732">
        <ele>113.09</ele>
        <time>2022-10-02T09:19:36Z</time>
      </trkpt>
      <trkpt lat="44.3222" lon="0.85742">
        <ele>115.98</ele>
        <time>2022-10-02T09:19:52Z</time>
      </trkpt>
      <trkpt lat="44.3226" lon="0.85753">
        <ele>118.86</ele>
        <time>2022-10-02T09:20:10Z</time>
      </trkpt>
      <trkpt lat="44.32292" lon="0.85764">
        <ele>122.22</ele>
        <time>2022-10-02T09:20:29Z</time>
      </trkpt>
      <trkpt lat="44.32294" lon="0.85764">
        <ele>122.22</ele>
        <time>2022-10-02T09:20:30Z</time>
      </trkpt>
      <trkpt lat="44.32327" lon="0.85774">
        <ele>123.67</ele>
        <time>2022-10-02T09:20:50Z</time>
      </trkpt>
      <trkpt lat="44.32341" lon="0.85777">
        <ele>124.15</ele>
        <time>2022-10-02T09:21:04Z</time>
      </trkpt>
      <trkpt lat="44.32345" lon="0.85781">
        <ele>124.63</ele>
        <time>2022-10-02T09:21:15Z</time>
      </trkpt>
      <trkpt lat="44.32343" lon="0.85785">
        <ele>125.59</ele>
        <time>2022-10-02T09:21:38Z</time>
      </trkpt>
      <trkpt lat="44.32345" lon="0.85801">
        <ele>128.95</ele>
        <time>2022-10-02T09:21:54Z</time>
      </trkpt>
      <trkpt lat="44.32348" lon="0.85812">
        <ele>132.32</ele>
        <time>2022-10-02T09:22:08Z</time>
      </trkpt>
      <trkpt lat="44.32351" lon="0.85825">
        <ele>135.68</ele>
        <time>2022-10-02T09:22:26Z</time>
      </trkpt>
      <trkpt lat="44.32346" lon="0.85836">
        <ele>135.68</ele>
        <time>2022-10-02T09:22:42Z</time>
      </trkpt>
      <trkpt lat="44.32345" lon="0.85838">
        <ele>139.05</ele>
        <time>2022-10-02T09:22:46Z</time>
      </trkpt>
      <trkpt lat="44.3234" lon="0.85844">
        <ele>138.57</ele>
        <time>2022-10-02T09:22:55Z</time>
      </trkpt>
      <trkpt lat="44.32338" lon="0.85847">
        <ele>138.57</ele>
        <time>2022-10-02T09:22:57Z</time>
      </trkpt>
      <trkpt lat="44.32316" lon="0.85872">
        <ele>140.01</ele>
        <time>2022-10-02T09:23:17Z</time>
      </trkpt>
      <trkpt lat="44.32299" lon="0.85894">
        <ele>140.01</ele>
        <time>2022-10-02T09:23:35Z</time>
      </trkpt>
      <trkpt lat="44.32299" lon="0.85895">
        <ele>140.01</ele>
        <time>2022-10-02T09:23:36Z</time>
      </trkpt>
      <trkpt lat="44.32299" lon="0.85898">
        <ele>141.93</ele>
        <time>2022-10-02T09:23:39Z</time>
      </trkpt>
      <trkpt lat="44.32304" lon="0.85917">
        <ele>145.3</ele>
        <time>2022-10-02T09:23:57Z</time>
      </trkpt>
      <trkpt lat="44.32306" lon="0.85924">
        <ele>147.22</ele>
        <time>2022-10-02T09:24:06Z</time>
      </trkpt>
      <trkpt lat="44.32311" lon="0.85934">
        <ele>150.58</ele>
        <time>2022-10-02T09:24:20Z</time>
      </trkpt>
      <trkpt lat="44.32312" lon="0.85936">
        <ele>148.66</ele>
        <time>2022-10-02T09:24:23Z</time>
      </trkpt>
      <trkpt lat="44.32315" lon="0.85947">
        <ele>152.51</ele>
        <time>2022-10-02T09:24:36Z</time>
      </trkpt>
      <trkpt lat="44.32319" lon="0.85958">
        <ele>155.39</ele>
        <time>2022-10-02T09:24:56Z</time>
      </trkpt>
      <trkpt lat="44.32318" lon="0.85958">
        <ele>155.39</ele>
        <time>2022-10-02T09:24:57Z</time>
      </trkpt>
      <trkpt lat="44.32319" lon="0.85959">
        <ele>153.47</ele>
        <time>2022-10-02T09:25:00Z</time>
      </trkpt>
      <trkpt lat="44.32319" lon="0.8596">
        <ele>154.91</ele>
        <time>2022-10-02T09:25:03Z</time>
      </trkpt>
      <trkpt lat="44.32325" lon="0.85974">
        <ele>157.79</ele>
        <time>2022-10-02T09:25:20Z</time>
      </trkpt>
      <trkpt lat="44.3233" lon="0.85987">
        <ele>159.72</ele>
        <time>2022-10-02T09:25:35Z</time>
      </trkpt>
      <trkpt lat="44.32335" lon="0.86002">
        <ele>160.68</ele>
        <time>2022-10-02T09:25:48Z</time>
      </trkpt>
      <trkpt lat="44.32337" lon="0.86005">
        <ele>162.6</ele>
        <time>2022-10-02T09:25:51Z</time>
      </trkpt>
      <trkpt lat="44.32345" lon="0.86024">
        <ele>165</ele>
        <time>2022-10-02T09:26:08Z</time>
      </trkpt>
      <trkpt lat="44.32354" lon="0.86045">
        <ele>167.89</ele>
        <time>2022-10-02T09:26:29Z</time>
      </trkpt>
      <trkpt lat="44.32358" lon="0.86059">
        <ele>170.77</ele>
        <time>2022-10-02T09:26:44Z</time>
      </trkpt>
      <trkpt lat="44.3236" lon="0.86065">
        <ele>171.25</ele>
        <time>2022-10-02T09:26:50Z</time>
      </trkpt>
      <trkpt lat="44.3237" lon="0.86086">
        <ele>174.14</ele>
        <time>2022-10-02T09:27:10Z</time>
      </trkpt>
      <trkpt lat="44.32376" lon="0.8609">
        <ele>175.58</ele>
        <time>2022-10-02T09:27:19Z</time>
      </trkpt>
      <trkpt lat="44.32385" lon="0.86094">
        <ele>177.5</ele>
        <time>2022-10-02T09:27:37Z</time>
      </trkpt>
      <trkpt lat="44.3239" lon="0.86096">
        <ele>179.42</ele>
        <time>2022-10-02T09:27:46Z</time>
      </trkpt>
      <trkpt lat="44.32392" lon="0.86097">
        <ele>177.98</ele>
        <time>2022-10-02T09:27:49Z</time>
      </trkpt>
      <trkpt lat="44.32394" lon="0.86098">
        <ele>180.38</ele>
        <time>2022-10-02T09:27:52Z</time>
      </trkpt>
      <trkpt lat="44.32408" lon="0.86098">
        <ele>181.35</ele>
        <time>2022-10-02T09:28:10Z</time>
      </trkpt>
      <trkpt lat="44.32422" lon="0.86109">
        <ele>183.75</ele>
        <time>2022-10-02T09:28:27Z</time>
      </trkpt>
      <trkpt lat="44.3243" lon="0.86119">
        <ele>185.67</ele>
        <time>2022-10-02T09:28:43Z</time>
      </trkpt>
      <trkpt lat="44.32438" lon="0.86128">
        <ele>187.11</ele>
        <time>2022-10-02T09:29:00Z</time>
      </trkpt>
      <trkpt lat="44.3244" lon="0.8613">
        <ele>188.56</ele>
        <time>2022-10-02T09:29:04Z</time>
      </trkpt>
      <trkpt lat="44.32449" lon="0.86144">
        <ele>190.48</ele>
        <time>2022-10-02T09:29:23Z</time>
      </trkpt>
      <trkpt lat="44.32455" lon="0.86151">
        <ele>192.88</ele>
        <time>2022-10-02T09:29:42Z</time>
      </trkpt>
      <trkpt lat="44.32455" lon="0.86155">
        <ele>191.92</ele>
        <time>2022-10-02T09:29:58Z</time>
      </trkpt>
      <trkpt lat="44.32457" lon="0.86159">
        <ele>193.84</ele>
        <time>2022-10-02T09:30:01Z</time>
      </trkpt>
      <trkpt lat="44.32461" lon="0.86165">
        <ele>195.28</ele>
        <time>2022-10-02T09:30:06Z</time>
      </trkpt>
      <trkpt lat="44.32468" lon="0.86183">
        <ele>197.69</ele>
        <time>2022-10-02T09:30:18Z</time>
      </trkpt>
      <trkpt lat="44.3247" lon="0.86198">
        <ele>198.65</ele>
        <time>2022-10-02T09:30:30Z</time>
      </trkpt>
      <trkpt lat="44.3247" lon="0.862">
        <ele>200.57</ele>
        <time>2022-10-02T09:30:32Z</time>
      </trkpt>
      <trkpt lat="44.3247" lon="0.86206">
        <ele>199.61</ele>
        <time>2022-10-02T09:30:37Z</time>
      </trkpt>
      <trkpt lat="44.32472" lon="0.86222">
        <ele>202.98</ele>
        <time>2022-10-02T09:30:48Z</time>
      </trkpt>
      <trkpt lat="44.32474" lon="0.86229">
        <ele>203.94</ele>
        <time>2022-10-02T09:30:54Z</time>
      </trkpt>
      <trkpt lat="44.32476" lon="0.8624">
        <ele>205.86</ele>
        <time>2022-10-02T09:31:03Z</time>
      </trkpt>
      <trkpt lat="44.32478" lon="0.86247">
        <ele>204.42</ele>
        <time>2022-10-02T09:31:07Z</time>
      </trkpt>
      <trkpt lat="44.32478" lon="0.8625">
        <ele>203.94</ele>
        <time>2022-10-02T09:31:09Z</time>
      </trkpt>
      <trkpt lat="44.32479" lon="0.86255">
        <ele>205.86</ele>
        <time>2022-10-02T09:31:12Z</time>
      </trkpt>
      <trkpt lat="44.32479" lon="0.8626">
        <ele>202.49</ele>
        <time>2022-10-02T09:31:18Z</time>
      </trkpt>
      <trkpt lat="44.32478" lon="0.86257">
        <ele>202.98</ele>
        <time>2022-10-02T09:31:35Z</time>
      </trkpt>
      <trkpt lat="44.32478" lon="0.86258">
        <ele>205.38</ele>
        <time>2022-10-02T09:31:37Z</time>
      </trkpt>
      <trkpt lat="44.32476" lon="0.8626">
        <ele>204.9</ele>
        <time>2022-10-02T09:32:13Z</time>
      </trkpt>
      <trkpt lat="44.32481" lon="0.86256">
        <ele>204.9</ele>
        <time>2022-10-02T09:32:35Z</time>
      </trkpt>
      <trkpt lat="44.32481" lon="0.86255">
        <ele>203.94</ele>
        <time>2022-10-02T09:32:42Z</time>
      </trkpt>
      <trkpt lat="44.32482" lon="0.86255">
        <ele>204.42</ele>
        <time>2022-10-02T09:32:55Z</time>
      </trkpt>
      <trkpt lat="44.32481" lon="0.86255">
        <ele>204.9</ele>
        <time>2022-10-02T09:33:11Z</time>
      </trkpt>
      <trkpt lat="44.32481" lon="0.86256">
        <ele>204.9</ele>
        <time>2022-10-02T09:33:35Z</time>
      </trkpt>
      <trkpt lat="44.32479" lon="0.86256">
        <ele>204.9</ele>
        <time>2022-10-02T09:33:57Z</time>
      </trkpt>
      <trkpt lat="44.3248" lon="0.86256">
        <ele>204.42</ele>
        <time>2022-10-02T09:34:13Z</time>
      </trkpt>
      <trkpt lat="44.32478" lon="0.86256">
        <ele>203.94</ele>
        <time>2022-10-02T09:34:36Z</time>
      </trkpt>
      <trkpt lat="44.32481" lon="0.86257">
        <ele>205.38</ele>
        <time>2022-10-02T09:34:55Z</time>
      </trkpt>
      <trkpt lat="44.3248" lon="0.86258">
        <ele>203.46</ele>
        <time>2022-10-02T09:35:02Z</time>
      </trkpt>
      <trkpt lat="44.32479" lon="0.86257">
        <ele>203.94</ele>
        <time>2022-10-02T09:35:26Z</time>
      </trkpt>
      <trkpt lat="44.32479" lon="0.86258">
        <ele>205.86</ele>
        <time>2022-10-02T09:35:29Z</time>
      </trkpt>
      <trkpt lat="44.32477" lon="0.86259">
        <ele>204.42</ele>
        <time>2022-10-02T09:35:45Z</time>
      </trkpt>
      <trkpt lat="44.32478" lon="0.86261">
        <ele>205.38</ele>
        <time>2022-10-02T09:36:00Z</time>
      </trkpt>
      <trkpt lat="44.32479" lon="0.86261">
        <ele>205.86</ele>
        <time>2022-10-02T09:36:08Z</time>
      </trkpt>
      <trkpt lat="44.32479" lon="0.86262">
        <ele>204.42</ele>
        <time>2022-10-02T09:36:10Z</time>
      </trkpt>
      <trkpt lat="44.32483" lon="0.86262">
        <ele>204.9</ele>
        <time>2022-10-02T09:36:16Z</time>
      </trkpt>
      <trkpt lat="44.3249" lon="0.86261">
        <ele>203.94</ele>
        <time>2022-10-02T09:36:20Z</time>
      </trkpt>
      <trkpt lat="44.32499" lon="0.86264">
        <ele>203.94</ele>
        <time>2022-10-02T09:36:24Z</time>
      </trkpt>
      <trkpt lat="44.3253" lon="0.86277">
        <ele>205.38</ele>
        <time>2022-10-02T09:36:36Z</time>
      </trkpt>
      <trkpt lat="44.32568" lon="0.86285">
        <ele>207.78</ele>
        <time>2022-10-02T09:36:53Z</time>
      </trkpt>
      <trkpt lat="44.32603" lon="0.86283">
        <ele>210.19</ele>
        <time>2022-10-02T09:37:10Z</time>
      </trkpt>
      <trkpt lat="44.3264" lon="0.86279">
        <ele>211.63</ele>
        <time>2022-10-02T09:37:27Z</time>
      </trkpt>
      <trkpt lat="44.32685" lon="0.86287">
        <ele>213.55</ele>
        <time>2022-10-02T09:37:46Z</time>
      </trkpt>
      <trkpt lat="44.32732" lon="0.86296">
        <ele>213.55</ele>
        <time>2022-10-02T09:38:05Z</time>
      </trkpt>
      <trkpt lat="44.32751" lon="0.86295">
        <ele>211.15</ele>
        <time>2022-10-02T09:38:09Z</time>
      </trkpt>
      <trkpt lat="44.3277" lon="0.8629">
        <ele>208.74</ele>
        <time>2022-10-02T09:38:13Z</time>
      </trkpt>
      <trkpt lat="44.32785" lon="0.86287">
        <ele>206.34</ele>
        <time>2022-10-02T09:38:16Z</time>
      </trkpt>
      <trkpt lat="44.32799" lon="0.86283">
        <ele>202.49</ele>
        <time>2022-10-02T09:38:20Z</time>
      </trkpt>
      <trkpt lat="44.32801" lon="0.86282">
        <ele>202.49</ele>
        <time>2022-10-02T09:38:21Z</time>
      </trkpt>
      <trkpt lat="44.32808" lon="0.86273">
        <ele>199.61</ele>
        <time>2022-10-02T09:38:26Z</time>
      </trkpt>
      <trkpt lat="44.32808" lon="0.86271">
        <ele>198.65</ele>
        <time>2022-10-02T09:38:27Z</time>
      </trkpt>
      <trkpt lat="44.32803" lon="0.86264">
        <ele>197.21</ele>
        <time>2022-10-02T09:38:31Z</time>
      </trkpt>
      <trkpt lat="44.32801" lon="0.86259">
        <ele>196.73</ele>
        <time>2022-10-02T09:38:34Z</time>
      </trkpt>
      <trkpt lat="44.32795" lon="0.86239">
        <ele>193.36</ele>
        <time>2022-10-02T09:38:42Z</time>
      </trkpt>
      <trkpt lat="44.32787" lon="0.86194">
        <ele>190.48</ele>
        <time>2022-10-02T09:38:54Z</time>
      </trkpt>
      <trkpt lat="44.32787" lon="0.86173">
        <ele>189.04</ele>
        <time>2022-10-02T09:38:58Z</time>
      </trkpt>
      <trkpt lat="44.32788" lon="0.86153">
        <ele>188.08</ele>
        <time>2022-10-02T09:39:01Z</time>
      </trkpt>
      <trkpt lat="44.3279" lon="0.86133">
        <ele>186.63</ele>
        <time>2022-10-02T09:39:04Z</time>
      </trkpt>
      <trkpt lat="44.32792" lon="0.86108">
        <ele>183.27</ele>
        <time>2022-10-02T09:39:09Z</time>
      </trkpt>
      <trkpt lat="44.32788" lon="0.86098">
        <ele>181.83</ele>
        <time>2022-10-02T09:39:17Z</time>
      </trkpt>
      <trkpt lat="44.32756" lon="0.86055">
        <ele>179.42</ele>
        <time>2022-10-02T09:39:29Z</time>
      </trkpt>
      <trkpt lat="44.32728" lon="0.86026">
        <ele>176.06</ele>
        <time>2022-10-02T09:39:36Z</time>
      </trkpt>
      <trkpt lat="44.32724" lon="0.86021">
        <ele>176.06</ele>
        <time>2022-10-02T09:39:37Z</time>
      </trkpt>
      <trkpt lat="44.32707" lon="0.85994">
        <ele>173.66</ele>
        <time>2022-10-02T09:39:42Z</time>
      </trkpt>
      <trkpt lat="44.327" lon="0.85981">
        <ele>172.69</ele>
        <time>2022-10-02T09:39:44Z</time>
      </trkpt>
      <trkpt lat="44.32692" lon="0.85954">
        <ele>173.17</ele>
        <time>2022-10-02T09:39:49Z</time>
      </trkpt>
      <trkpt lat="44.3269" lon="0.85937">
        <ele>174.62</ele>
        <time>2022-10-02T09:39:53Z</time>
      </trkpt>
      <trkpt lat="44.32679" lon="0.85879">
        <ele>177.5</ele>
        <time>2022-10-02T09:40:10Z</time>
      </trkpt>
      <trkpt lat="44.32663" lon="0.85836">
        <ele>180.87</ele>
        <time>2022-10-02T09:40:25Z</time>
      </trkpt>
      <trkpt lat="44.32651" lon="0.85788">
        <ele>183.27</ele>
        <time>2022-10-02T09:40:43Z</time>
      </trkpt>
      <trkpt lat="44.32654" lon="0.85741">
        <ele>186.15</ele>
        <time>2022-10-02T09:41:00Z</time>
      </trkpt>
      <trkpt lat="44.32671" lon="0.857">
        <ele>189.04</ele>
        <time>2022-10-02T09:41:19Z</time>
      </trkpt>
      <trkpt lat="44.32691" lon="0.85668">
        <ele>191.44</ele>
        <time>2022-10-02T09:41:37Z</time>
      </trkpt>
      <trkpt lat="44.32715" lon="0.8564">
        <ele>194.32</ele>
        <time>2022-10-02T09:41:57Z</time>
      </trkpt>
      <trkpt lat="44.32741" lon="0.85626">
        <ele>196.25</ele>
        <time>2022-10-02T09:42:14Z</time>
      </trkpt>
      <trkpt lat="44.32767" lon="0.85603">
        <ele>199.13</ele>
        <time>2022-10-02T09:42:32Z</time>
      </trkpt>
      <trkpt lat="44.32776" lon="0.85562">
        <ele>201.53</ele>
        <time>2022-10-02T09:42:50Z</time>
      </trkpt>
      <trkpt lat="44.3277" lon="0.85521">
        <ele>204.42</ele>
        <time>2022-10-02T09:43:09Z</time>
      </trkpt>
      <trkpt lat="44.32756" lon="0.85487">
        <ele>203.94</ele>
        <time>2022-10-02T09:43:23Z</time>
      </trkpt>
      <trkpt lat="44.3275" lon="0.85454">
        <ele>202.98</ele>
        <time>2022-10-02T09:43:32Z</time>
      </trkpt>
      <trkpt lat="44.32739" lon="0.854">
        <ele>204.42</ele>
        <time>2022-10-02T09:43:46Z</time>
      </trkpt>
      <trkpt lat="44.32691" lon="0.85359">
        <ele>202.98</ele>
        <time>2022-10-02T09:44:00Z</time>
      </trkpt>
      <trkpt lat="44.32624" lon="0.85334">
        <ele>202.98</ele>
        <time>2022-10-02T09:44:15Z</time>
      </trkpt>
      <trkpt lat="44.32594" lon="0.85313">
        <ele>204.9</ele>
        <time>2022-10-02T09:44:24Z</time>
      </trkpt>
      <trkpt lat="44.32577" lon="0.853">
        <ele>204.9</ele>
        <time>2022-10-02T09:44:30Z</time>
      </trkpt>
      <trkpt lat="44.32576" lon="0.85274">
        <ele>205.38</ele>
        <time>2022-10-02T09:44:36Z</time>
      </trkpt>
      <trkpt lat="44.32598" lon="0.85209">
        <ele>208.26</ele>
        <time>2022-10-02T09:44:57Z</time>
      </trkpt>
      <trkpt lat="44.32629" lon="0.85182">
        <ele>210.67</ele>
        <time>2022-10-02T09:45:15Z</time>
      </trkpt>
      <trkpt lat="44.32659" lon="0.85146">
        <ele>212.11</ele>
        <time>2022-10-02T09:45:32Z</time>
      </trkpt>
      <trkpt lat="44.32696" lon="0.85101">
        <ele>213.55</ele>
        <time>2022-10-02T09:45:47Z</time>
      </trkpt>
      <trkpt lat="44.32713" lon="0.85045">
        <ele>213.55</ele>
        <time>2022-10-02T09:45:59Z</time>
      </trkpt>
      <trkpt lat="44.32722" lon="0.84979">
        <ele>212.11</ele>
        <time>2022-10-02T09:46:11Z</time>
      </trkpt>
      <trkpt lat="44.32735" lon="0.84937">
        <ele>210.19</ele>
        <time>2022-10-02T09:46:17Z</time>
      </trkpt>
      <trkpt lat="44.32731" lon="0.84902">
        <ele>208.74</ele>
        <time>2022-10-02T09:46:24Z</time>
      </trkpt>
      <trkpt lat="44.32701" lon="0.84851">
        <ele>207.3</ele>
        <time>2022-10-02T09:46:37Z</time>
      </trkpt>
      <trkpt lat="44.3267" lon="0.84766">
        <ele>204.9</ele>
        <time>2022-10-02T09:46:51Z</time>
      </trkpt>
      <trkpt lat="44.32651" lon="0.84704">
        <ele>204.9</ele>
        <time>2022-10-02T09:47:04Z</time>
      </trkpt>
      <trkpt lat="44.32618" lon="0.8465">
        <ele>206.34</ele>
        <time>2022-10-02T09:47:18Z</time>
      </trkpt>
      <trkpt lat="44.32606" lon="0.84634">
        <ele>204.42</ele>
        <time>2022-10-02T09:47:22Z</time>
      </trkpt>
      <trkpt lat="44.32599" lon="0.84625">
        <ele>206.34</ele>
        <time>2022-10-02T09:47:25Z</time>
      </trkpt>
      <trkpt lat="44.32595" lon="0.84616">
        <ele>204.9</ele>
        <time>2022-10-02T09:47:27Z</time>
      </trkpt>
      <trkpt lat="44.32588" lon="0.8458">
        <ele>203.46</ele>
        <time>2022-10-02T09:47:34Z</time>
      </trkpt>
      <trkpt lat="44.32587" lon="0.84568">
        <ele>202.01</ele>
        <time>2022-10-02T09:47:36Z</time>
      </trkpt>
      <trkpt lat="44.32581" lon="0.84536">
        <ele>200.57</ele>
        <time>2022-10-02T09:47:41Z</time>
      </trkpt>
      <trkpt lat="44.3258" lon="0.84522">
        <ele>200.09</ele>
        <time>2022-10-02T09:47:43Z</time>
      </trkpt>
      <trkpt lat="44.32573" lon="0.845">
        <ele>196.73</ele>
        <time>2022-10-02T09:47:47Z</time>
      </trkpt>
      <trkpt lat="44.32565" lon="0.84486">
        <ele>194.32</ele>
        <time>2022-10-02T09:47:50Z</time>
      </trkpt>
      <trkpt lat="44.3256" lon="0.84476">
        <ele>192.88</ele>
        <time>2022-10-02T09:47:52Z</time>
      </trkpt>
      <trkpt lat="44.32554" lon="0.84467">
        <ele>191.44</ele>
        <time>2022-10-02T09:47:54Z</time>
      </trkpt>
      <trkpt lat="44.32546" lon="0.84459">
        <ele>188.56</ele>
        <time>2022-10-02T09:47:56Z</time>
      </trkpt>
      <trkpt lat="44.32533" lon="0.8445">
        <ele>186.15</ele>
        <time>2022-10-02T09:47:59Z</time>
      </trkpt>
      <trkpt lat="44.32526" lon="0.84447">
        <ele>184.23</ele>
        <time>2022-10-02T09:48:01Z</time>
      </trkpt>
      <trkpt lat="44.32519" lon="0.84447">
        <ele>183.27</ele>
        <time>2022-10-02T09:48:03Z</time>
      </trkpt>
      <trkpt lat="44.32509" lon="0.84451">
        <ele>183.27</ele>
        <time>2022-10-02T09:48:06Z</time>
      </trkpt>
      <trkpt lat="44.32499" lon="0.84475">
        <ele>183.75</ele>
        <time>2022-10-02T09:48:14Z</time>
      </trkpt>
      <trkpt lat="44.32499" lon="0.84479">
        <ele>182.31</ele>
        <time>2022-10-02T09:48:22Z</time>
      </trkpt>
      <trkpt lat="44.32499" lon="0.84483">
        <ele>183.75</ele>
        <time>2022-10-02T09:48:33Z</time>
      </trkpt>
      <trkpt lat="44.32499" lon="0.84485">
        <ele>184.23</ele>
        <time>2022-10-02T09:48:39Z</time>
      </trkpt>
      <trkpt lat="44.32499" lon="0.84489">
        <ele>184.71</ele>
        <time>2022-10-02T09:48:45Z</time>
      </trkpt>
      <trkpt lat="44.32499" lon="0.84491">
        <ele>183.27</ele>
        <time>2022-10-02T09:48:47Z</time>
      </trkpt>
      <trkpt lat="44.32501" lon="0.84495">
        <ele>183.27</ele>
        <time>2022-10-02T09:48:53Z</time>
      </trkpt>
      <trkpt lat="44.32501" lon="0.84504">
        <ele>184.71</ele>
        <time>2022-10-02T09:48:57Z</time>
      </trkpt>
      <trkpt lat="44.32505" lon="0.84531">
        <ele>183.27</ele>
        <time>2022-10-02T09:49:07Z</time>
      </trkpt>
      <trkpt lat="44.32505" lon="0.84545">
        <ele>185.19</ele>
        <time>2022-10-02T09:49:10Z</time>
      </trkpt>
      <trkpt lat="44.32507" lon="0.84553">
        <ele>185.19</ele>
        <time>2022-10-02T09:49:13Z</time>
      </trkpt>
      <trkpt lat="44.32496" lon="0.84587">
        <ele>183.27</ele>
        <time>2022-10-02T09:49:24Z</time>
      </trkpt>
      <trkpt lat="44.32495" lon="0.84597">
        <ele>181.35</ele>
        <time>2022-10-02T09:49:31Z</time>
      </trkpt>
      <trkpt lat="44.32496" lon="0.84601">
        <ele>183.75</ele>
        <time>2022-10-02T09:49:35Z</time>
      </trkpt>
      <trkpt lat="44.32494" lon="0.84606">
        <ele>184.71</ele>
        <time>2022-10-02T09:49:41Z</time>
      </trkpt>
      <trkpt lat="44.32493" lon="0.84608">
        <ele>183.75</ele>
        <time>2022-10-02T09:49:44Z</time>
      </trkpt>
      <trkpt lat="44.32489" lon="0.84612">
        <ele>182.31</ele>
        <time>2022-10-02T09:49:50Z</time>
      </trkpt>
      <trkpt lat="44.32485" lon="0.84625">
        <ele>183.27</ele>
        <time>2022-10-02T09:49:57Z</time>
      </trkpt>
      <trkpt lat="44.32483" lon="0.84628">
        <ele>183.27</ele>
        <time>2022-10-02T09:49:59Z</time>
      </trkpt>
      <trkpt lat="44.32473" lon="0.84653">
        <ele>186.15</ele>
        <time>2022-10-02T09:50:12Z</time>
      </trkpt>
      <trkpt lat="44.32469" lon="0.84665">
        <ele>186.63</ele>
        <time>2022-10-02T09:50:19Z</time>
      </trkpt>
      <trkpt lat="44.32452" lon="0.84686">
        <ele>187.11</ele>
        <time>2022-10-02T09:50:33Z</time>
      </trkpt>
      <trkpt lat="44.32451" lon="0.84688">
        <ele>188.56</ele>
        <time>2022-10-02T09:50:35Z</time>
      </trkpt>
      <trkpt lat="44.32448" lon="0.8469">
        <ele>188.56</ele>
        <time>2022-10-02T09:50:37Z</time>
      </trkpt>
      <trkpt lat="44.32442" lon="0.84692">
        <ele>188.56</ele>
        <time>2022-10-02T09:50:41Z</time>
      </trkpt>
      <trkpt lat="44.32432" lon="0.84702">
        <ele>188.56</ele>
        <time>2022-10-02T09:50:46Z</time>
      </trkpt>
      <trkpt lat="44.32419" lon="0.84702">
        <ele>188.56</ele>
        <time>2022-10-02T09:50:51Z</time>
      </trkpt>
      <trkpt lat="44.32406" lon="0.84701">
        <ele>187.11</ele>
        <time>2022-10-02T09:50:56Z</time>
      </trkpt>
      <trkpt lat="44.32396" lon="0.84698">
        <ele>187.11</ele>
        <time>2022-10-02T09:50:59Z</time>
      </trkpt>
      <trkpt lat="44.3239" lon="0.84692">
        <ele>185.19</ele>
        <time>2022-10-02T09:51:07Z</time>
      </trkpt>
      <trkpt lat="44.32387" lon="0.84678">
        <ele>181.83</ele>
        <time>2022-10-02T09:51:14Z</time>
      </trkpt>
      <trkpt lat="44.32384" lon="0.84675">
        <ele>180.38</ele>
        <time>2022-10-02T09:51:16Z</time>
      </trkpt>
      <trkpt lat="44.32384" lon="0.84674">
        <ele>180.87</ele>
        <time>2022-10-02T09:51:19Z</time>
      </trkpt>
      <trkpt lat="44.3238" lon="0.84667">
        <ele>180.38</ele>
        <time>2022-10-02T09:51:28Z</time>
      </trkpt>
      <trkpt lat="44.32379" lon="0.84667">
        <ele>178.46</ele>
        <time>2022-10-02T09:51:30Z</time>
      </trkpt>
      <trkpt lat="44.32376" lon="0.84662">
        <ele>175.58</ele>
        <time>2022-10-02T09:51:39Z</time>
      </trkpt>
      <trkpt lat="44.32373" lon="0.84656">
        <ele>173.17</ele>
        <time>2022-10-02T09:51:52Z</time>
      </trkpt>
      <trkpt lat="44.32372" lon="0.84653">
        <ele>173.66</ele>
        <time>2022-10-02T09:52:00Z</time>
      </trkpt>
      <trkpt lat="44.32372" lon="0.84652">
        <ele>172.21</ele>
        <time>2022-10-02T09:52:02Z</time>
      </trkpt>
      <trkpt lat="44.32361" lon="0.84641">
        <ele>169.33</ele>
        <time>2022-10-02T09:52:10Z</time>
      </trkpt>
      <trkpt lat="44.32352" lon="0.84644">
        <ele>166.45</ele>
        <time>2022-10-02T09:52:14Z</time>
      </trkpt>
      <trkpt lat="44.32342" lon="0.84647">
        <ele>163.08</ele>
        <time>2022-10-02T09:52:19Z</time>
      </trkpt>
      <trkpt lat="44.32331" lon="0.84644">
        <ele>159.24</ele>
        <time>2022-10-02T09:52:23Z</time>
      </trkpt>
      <trkpt lat="44.32328" lon="0.84644">
        <ele>159.24</ele>
        <time>2022-10-02T09:52:24Z</time>
      </trkpt>
      <trkpt lat="44.32301" lon="0.84656">
        <ele>155.87</ele>
        <time>2022-10-02T09:52:33Z</time>
      </trkpt>
      <trkpt lat="44.32298" lon="0.84658">
        <ele>155.87</ele>
        <time>2022-10-02T09:52:34Z</time>
      </trkpt>
      <trkpt lat="44.3229" lon="0.84663">
        <ele>154.43</ele>
        <time>2022-10-02T09:52:37Z</time>
      </trkpt>
      <trkpt lat="44.32278" lon="0.84657">
        <ele>150.58</ele>
        <time>2022-10-02T09:52:42Z</time>
      </trkpt>
      <trkpt lat="44.3227" lon="0.84659">
        <ele>149.62</ele>
        <time>2022-10-02T09:52:44Z</time>
      </trkpt>
      <trkpt lat="44.32261" lon="0.84669">
        <ele>148.66</ele>
        <time>2022-10-02T09:52:48Z</time>
      </trkpt>
      <trkpt lat="44.32261" lon="0.84676">
        <ele>150.58</ele>
        <time>2022-10-02T09:52:51Z</time>
      </trkpt>
      <trkpt lat="44.32259" lon="0.84684">
        <ele>149.14</ele>
        <time>2022-10-02T09:53:05Z</time>
      </trkpt>
      <trkpt lat="44.32251" lon="0.84694">
        <ele>145.3</ele>
        <time>2022-10-02T09:53:15Z</time>
      </trkpt>
      <trkpt lat="44.32246" lon="0.84688">
        <ele>141.93</ele>
        <time>2022-10-02T09:53:30Z</time>
      </trkpt>
      <trkpt lat="44.32242" lon="0.84683">
        <ele>138.09</ele>
        <time>2022-10-02T09:53:44Z</time>
      </trkpt>
      <trkpt lat="44.32239" lon="0.84683">
        <ele>140.01</ele>
        <time>2022-10-02T09:53:46Z</time>
      </trkpt>
      <trkpt lat="44.32231" lon="0.84676">
        <ele>136.16</ele>
        <time>2022-10-02T09:53:50Z</time>
      </trkpt>
      <trkpt lat="44.32224" lon="0.84673">
        <ele>132.32</ele>
        <time>2022-10-02T09:53:53Z</time>
      </trkpt>
      <trkpt lat="44.32222" lon="0.84672">
        <ele>132.32</ele>
        <time>2022-10-02T09:53:54Z</time>
      </trkpt>
      <trkpt lat="44.32214" lon="0.84672">
        <ele>128.95</ele>
        <time>2022-10-02T09:53:57Z</time>
      </trkpt>
      <trkpt lat="44.32204" lon="0.84667">
        <ele>126.07</ele>
        <time>2022-10-02T09:54:01Z</time>
      </trkpt>
      <trkpt lat="44.32201" lon="0.84663">
        <ele>125.11</ele>
        <time>2022-10-02T09:54:03Z</time>
      </trkpt>
      <trkpt lat="44.32194" lon="0.8466">
        <ele>122.71</ele>
        <time>2022-10-02T09:54:06Z</time>
      </trkpt>
      <trkpt lat="44.32189" lon="0.84658">
        <ele>121.74</ele>
        <time>2022-10-02T09:54:08Z</time>
      </trkpt>
      <trkpt lat="44.32181" lon="0.84658">
        <ele>119.34</ele>
        <time>2022-10-02T09:54:11Z</time>
      </trkpt>
      <trkpt lat="44.32173" lon="0.84656">
        <ele>117.9</ele>
        <time>2022-10-02T09:54:14Z</time>
      </trkpt>
      <trkpt lat="44.32163" lon="0.84645">
        <ele>115.98</ele>
        <time>2022-10-02T09:54:19Z</time>
      </trkpt>
      <trkpt lat="44.3216" lon="0.84644">
        <ele>114.53</ele>
        <time>2022-10-02T09:54:21Z</time>
      </trkpt>
      <trkpt lat="44.32155" lon="0.84648">
        <ele>113.09</ele>
        <time>2022-10-02T09:54:25Z</time>
      </trkpt>
      <trkpt lat="44.32154" lon="0.8465">
        <ele>116.46</ele>
        <time>2022-10-02T09:54:26Z</time>
      </trkpt>
      <trkpt lat="44.32145" lon="0.84717">
        <ele>114.53</ele>
        <time>2022-10-02T09:54:42Z</time>
      </trkpt>
      <trkpt lat="44.32151" lon="0.8477">
        <ele>117.9</ele>
        <time>2022-10-02T09:54:54Z</time>
      </trkpt>
      <trkpt lat="44.32151" lon="0.84773">
        <ele>117.9</ele>
        <time>2022-10-02T09:54:55Z</time>
      </trkpt>
      <trkpt lat="44.32158" lon="0.84805">
        <ele>118.86</ele>
        <time>2022-10-02T09:55:08Z</time>
      </trkpt>
      <trkpt lat="44.32146" lon="0.84787">
        <ele>116.94</ele>
        <time>2022-10-02T09:55:12Z</time>
      </trkpt>
      <trkpt lat="44.32134" lon="0.84744">
        <ele>114.53</ele>
        <time>2022-10-02T09:55:17Z</time>
      </trkpt>
      <trkpt lat="44.32132" lon="0.84734">
        <ele>113.09</ele>
        <time>2022-10-02T09:55:18Z</time>
      </trkpt>
      <trkpt lat="44.32124" lon="0.84717">
        <ele>112.13</ele>
        <time>2022-10-02T09:55:20Z</time>
      </trkpt>
      <trkpt lat="44.3211" lon="0.84709">
        <ele>111.17</ele>
        <time>2022-10-02T09:55:22Z</time>
      </trkpt>
      <trkpt lat="44.32054" lon="0.84689">
        <ele>108.77</ele>
        <time>2022-10-02T09:55:30Z</time>
      </trkpt>
      <trkpt lat="44.31958" lon="0.84658">
        <ele>106.36</ele>
        <time>2022-10-02T09:55:45Z</time>
      </trkpt>
      <trkpt lat="44.31926" lon="0.84649">
        <ele>108.29</ele>
        <time>2022-10-02T09:55:52Z</time>
      </trkpt>
      <trkpt lat="44.31917" lon="0.84618">
        <ele>108.77</ele>
        <time>2022-10-02T09:56:00Z</time>
      </trkpt>
      <trkpt lat="44.31933" lon="0.84511">
        <ele>108.77</ele>
        <time>2022-10-02T09:56:15Z</time>
      </trkpt>
      <trkpt lat="44.31938" lon="0.84468">
        <ele>107.32</ele>
        <time>2022-10-02T09:56:21Z</time>
      </trkpt>
      <trkpt lat="44.31957" lon="0.84345">
        <ele>106.36</ele>
        <time>2022-10-02T09:56:39Z</time>
      </trkpt>
      <trkpt lat="44.31976" lon="0.84216">
        <ele>105.88</ele>
        <time>2022-10-02T09:56:59Z</time>
      </trkpt>
      <trkpt lat="44.31996" lon="0.84091">
        <ele>104.44</ele>
        <time>2022-10-02T09:57:17Z</time>
      </trkpt>
      <trkpt lat="44.32014" lon="0.8397">
        <ele>103.48</ele>
        <time>2022-10-02T09:57:33Z</time>
      </trkpt>
      <trkpt lat="44.3202" lon="0.8392">
        <ele>103.48</ele>
        <time>2022-10-02T09:57:41Z</time>
      </trkpt>
      <trkpt lat="44.3203" lon="0.8385">
        <ele>104.44</ele>
        <time>2022-10-02T09:57:52Z</time>
      </trkpt>
      <trkpt lat="44.32038" lon="0.83825">
        <ele>103</ele>
        <time>2022-10-02T09:57:56Z</time>
      </trkpt>
      <trkpt lat="44.32057" lon="0.83768">
        <ele>103</ele>
        <time>2022-10-02T09:58:05Z</time>
      </trkpt>
      <trkpt lat="44.32093" lon="0.83657">
        <ele>103</ele>
        <time>2022-10-02T09:58:23Z</time>
      </trkpt>
      <trkpt lat="44.32094" lon="0.83651">
        <ele>103</ele>
        <time>2022-10-02T09:58:24Z</time>
      </trkpt>
      <trkpt lat="44.3209" lon="0.83561">
        <ele>103</ele>
        <time>2022-10-02T09:58:39Z</time>
      </trkpt>
      <trkpt lat="44.32088" lon="0.83545">
        <ele>104.44</ele>
        <time>2022-10-02T09:58:42Z</time>
      </trkpt>
      <trkpt lat="44.32084" lon="0.83509">
        <ele>106.36</ele>
        <time>2022-10-02T09:58:53Z</time>
      </trkpt>
      <trkpt lat="44.32112" lon="0.8348">
        <ele>105.4</ele>
        <time>2022-10-02T09:59:04Z</time>
      </trkpt>
      <trkpt lat="44.32115" lon="0.83475">
        <ele>105.4</ele>
        <time>2022-10-02T09:59:05Z</time>
      </trkpt>
      <trkpt lat="44.32146" lon="0.83382">
        <ele>103.48</ele>
        <time>2022-10-02T09:59:20Z</time>
      </trkpt>
      <trkpt lat="44.32151" lon="0.83343">
        <ele>103.48</ele>
        <time>2022-10-02T09:59:25Z</time>
      </trkpt>
      <trkpt lat="44.32162" lon="0.83243">
        <ele>102.04</ele>
        <time>2022-10-02T09:59:40Z</time>
      </trkpt>
      <trkpt lat="44.32166" lon="0.83213">
        <ele>102.04</ele>
        <time>2022-10-02T09:59:45Z</time>
      </trkpt>
      <trkpt lat="44.32168" lon="0.83108">
        <ele>101.56</ele>
        <time>2022-10-02T10:00:03Z</time>
      </trkpt>
      <trkpt lat="44.32169" lon="0.83078">
        <ele>102.52</ele>
        <time>2022-10-02T10:00:08Z</time>
      </trkpt>
      <trkpt lat="44.32179" lon="0.82996">
        <ele>103</ele>
        <time>2022-10-02T10:00:24Z</time>
      </trkpt>
      <trkpt lat="44.32194" lon="0.82969">
        <ele>101.56</ele>
        <time>2022-10-02T10:00:30Z</time>
      </trkpt>
      <trkpt lat="44.32239" lon="0.82861">
        <ele>100.6</ele>
        <time>2022-10-02T10:00:47Z</time>
      </trkpt>
      <trkpt lat="44.32266" lon="0.82776">
        <ele>99.63</ele>
        <time>2022-10-02T10:01:02Z</time>
      </trkpt>
      <trkpt lat="44.32271" lon="0.82766">
        <ele>99.63</ele>
        <time>2022-10-02T10:01:04Z</time>
      </trkpt>
      <trkpt lat="44.32295" lon="0.82736">
        <ele>100.6</ele>
        <time>2022-10-02T10:01:11Z</time>
      </trkpt>
      <trkpt lat="44.32306" lon="0.82725">
        <ele>99.15</ele>
        <time>2022-10-02T10:01:14Z</time>
      </trkpt>
      <trkpt lat="44.32367" lon="0.8263">
        <ele>98.19</ele>
        <time>2022-10-02T10:01:34Z</time>
      </trkpt>
      <trkpt lat="44.32395" lon="0.82577">
        <ele>98.19</ele>
        <time>2022-10-02T10:01:44Z</time>
      </trkpt>
      <trkpt lat="44.32415" lon="0.82479">
        <ele>99.63</ele>
        <time>2022-10-02T10:02:01Z</time>
      </trkpt>
      <trkpt lat="44.32417" lon="0.82402">
        <ele>100.6</ele>
        <time>2022-10-02T10:02:18Z</time>
      </trkpt>
      <trkpt lat="44.32426" lon="0.82324">
        <ele>102.04</ele>
        <time>2022-10-02T10:02:37Z</time>
      </trkpt>
      <trkpt lat="44.32437" lon="0.82257">
        <ele>100.6</ele>
        <time>2022-10-02T10:02:50Z</time>
      </trkpt>
      <trkpt lat="44.32446" lon="0.82176">
        <ele>100.11</ele>
        <time>2022-10-02T10:03:05Z</time>
      </trkpt>
      <trkpt lat="44.32439" lon="0.82144">
        <ele>101.56</ele>
        <time>2022-10-02T10:03:12Z</time>
      </trkpt>
      <trkpt lat="44.32413" lon="0.82099">
        <ele>103.48</ele>
        <time>2022-10-02T10:03:28Z</time>
      </trkpt>
      <trkpt lat="44.3239" lon="0.82067">
        <ele>104.92</ele>
        <time>2022-10-02T10:03:47Z</time>
      </trkpt>
      <trkpt lat="44.32383" lon="0.82063">
        <ele>106.36</ele>
        <time>2022-10-02T10:03:53Z</time>
      </trkpt>
      <trkpt lat="44.32375" lon="0.82084">
        <ele>107.81</ele>
        <time>2022-10-02T10:04:07Z</time>
      </trkpt>
      <trkpt lat="44.32353" lon="0.82117">
        <ele>110.69</ele>
        <time>2022-10-02T10:04:27Z</time>
      </trkpt>
      <trkpt lat="44.32342" lon="0.82143">
        <ele>113.57</ele>
        <time>2022-10-02T10:04:44Z</time>
      </trkpt>
      <trkpt lat="44.32337" lon="0.82151">
        <ele>115.01</ele>
        <time>2022-10-02T10:04:51Z</time>
      </trkpt>
      <trkpt lat="44.32318" lon="0.8218">
        <ele>117.9</ele>
        <time>2022-10-02T10:05:13Z</time>
      </trkpt>
      <trkpt lat="44.32297" lon="0.82197">
        <ele>120.78</ele>
        <time>2022-10-02T10:05:29Z</time>
      </trkpt>
      <trkpt lat="44.32271" lon="0.8221">
        <ele>122.71</ele>
        <time>2022-10-02T10:05:48Z</time>
      </trkpt>
      <trkpt lat="44.32262" lon="0.82203">
        <ele>123.19</ele>
        <time>2022-10-02T10:05:56Z</time>
      </trkpt>
      <trkpt lat="44.32256" lon="0.82198">
        <ele>124.15</ele>
        <time>2022-10-02T10:06:01Z</time>
      </trkpt>
      <trkpt lat="44.32252" lon="0.82197">
        <ele>124.15</ele>
        <time>2022-10-02T10:06:03Z</time>
      </trkpt>
      <trkpt lat="44.32243" lon="0.82207">
        <ele>124.63</ele>
        <time>2022-10-02T10:06:09Z</time>
      </trkpt>
      <trkpt lat="44.32212" lon="0.8224">
        <ele>126.55</ele>
        <time>2022-10-02T10:06:30Z</time>
      </trkpt>
      <trkpt lat="44.32187" lon="0.82277">
        <ele>127.99</ele>
        <time>2022-10-02T10:06:51Z</time>
      </trkpt>
      <trkpt lat="44.32161" lon="0.82303">
        <ele>131.36</ele>
        <time>2022-10-02T10:07:11Z</time>
      </trkpt>
      <trkpt lat="44.32137" lon="0.82322">
        <ele>133.28</ele>
        <time>2022-10-02T10:07:32Z</time>
      </trkpt>
      <trkpt lat="44.32134" lon="0.82323">
        <ele>133.76</ele>
        <time>2022-10-02T10:07:34Z</time>
      </trkpt>
      <trkpt lat="44.32101" lon="0.82335">
        <ele>136.64</ele>
        <time>2022-10-02T10:07:56Z</time>
      </trkpt>
      <trkpt lat="44.32069" lon="0.82354">
        <ele>138.57</ele>
        <time>2022-10-02T10:08:18Z</time>
      </trkpt>
      <trkpt lat="44.32037" lon="0.8237">
        <ele>141.45</ele>
        <time>2022-10-02T10:08:40Z</time>
      </trkpt>
      <trkpt lat="44.32017" lon="0.82378">
        <ele>142.89</ele>
        <time>2022-10-02T10:08:58Z</time>
      </trkpt>
      <trkpt lat="44.32" lon="0.82391">
        <ele>145.3</ele>
        <time>2022-10-02T10:09:16Z</time>
      </trkpt>
      <trkpt lat="44.31981" lon="0.82408">
        <ele>147.7</ele>
        <time>2022-10-02T10:09:36Z</time>
      </trkpt>
      <trkpt lat="44.31974" lon="0.82434">
        <ele>150.58</ele>
        <time>2022-10-02T10:09:55Z</time>
      </trkpt>
      <trkpt lat="44.31973" lon="0.82444">
        <ele>151.06</ele>
        <time>2022-10-02T10:10:00Z</time>
      </trkpt>
      <trkpt lat="44.31973" lon="0.82456">
        <ele>150.1</ele>
        <time>2022-10-02T10:10:05Z</time>
      </trkpt>
      <trkpt lat="44.3197" lon="0.82491">
        <ele>152.03</ele>
        <time>2022-10-02T10:10:16Z</time>
      </trkpt>
      <trkpt lat="44.31969" lon="0.82504">
        <ele>150.58</ele>
        <time>2022-10-02T10:10:20Z</time>
      </trkpt>
      <trkpt lat="44.31969" lon="0.82557">
        <ele>150.1</ele>
        <time>2022-10-02T10:10:36Z</time>
      </trkpt>
      <trkpt lat="44.31965" lon="0.82613">
        <ele>152.03</ele>
        <time>2022-10-02T10:10:55Z</time>
      </trkpt>
      <trkpt lat="44.31952" lon="0.82656">
        <ele>152.99</ele>
        <time>2022-10-02T10:11:12Z</time>
      </trkpt>
      <trkpt lat="44.31931" lon="0.82669">
        <ele>155.39</ele>
        <time>2022-10-02T10:11:24Z</time>
      </trkpt>
      <trkpt lat="44.31919" lon="0.82676">
        <ele>155.39</ele>
        <time>2022-10-02T10:11:32Z</time>
      </trkpt>
      <trkpt lat="44.31912" lon="0.82666">
        <ele>157.31</ele>
        <time>2022-10-02T10:11:39Z</time>
      </trkpt>
      <trkpt lat="44.31899" lon="0.82645">
        <ele>160.2</ele>
        <time>2022-10-02T10:11:57Z</time>
      </trkpt>
      <trkpt lat="44.31886" lon="0.82624">
        <ele>163.08</ele>
        <time>2022-10-02T10:12:16Z</time>
      </trkpt>
      <trkpt lat="44.31881" lon="0.82613">
        <ele>162.12</ele>
        <time>2022-10-02T10:12:28Z</time>
      </trkpt>
      <trkpt lat="44.3188" lon="0.82607">
        <ele>164.52</ele>
        <time>2022-10-02T10:12:40Z</time>
      </trkpt>
      <trkpt lat="44.31876" lon="0.82596">
        <ele>166.45</ele>
        <time>2022-10-02T10:13:02Z</time>
      </trkpt>
      <trkpt lat="44.31873" lon="0.82591">
        <ele>167.89</ele>
        <time>2022-10-02T10:13:15Z</time>
      </trkpt>
      <trkpt lat="44.31865" lon="0.82588">
        <ele>169.81</ele>
        <time>2022-10-02T10:13:35Z</time>
      </trkpt>
      <trkpt lat="44.31855" lon="0.82586">
        <ele>171.73</ele>
        <time>2022-10-02T10:13:57Z</time>
      </trkpt>
      <trkpt lat="44.31849" lon="0.82582">
        <ele>173.66</ele>
        <time>2022-10-02T10:14:13Z</time>
      </trkpt>
      <trkpt lat="44.31837" lon="0.82575">
        <ele>177.02</ele>
        <time>2022-10-02T10:14:34Z</time>
      </trkpt>
      <trkpt lat="44.31834" lon="0.82569">
        <ele>177.02</ele>
        <time>2022-10-02T10:14:46Z</time>
      </trkpt>
      <trkpt lat="44.31829" lon="0.82561">
        <ele>178.46</ele>
        <time>2022-10-02T10:15:08Z</time>
      </trkpt>
      <trkpt lat="44.31823" lon="0.82549">
        <ele>180.38</ele>
        <time>2022-10-02T10:15:28Z</time>
      </trkpt>
      <trkpt lat="44.31817" lon="0.82539">
        <ele>182.31</ele>
        <time>2022-10-02T10:15:49Z</time>
      </trkpt>
      <trkpt lat="44.31821" lon="0.82528">
        <ele>184.23</ele>
        <time>2022-10-02T10:16:11Z</time>
      </trkpt>
      <trkpt lat="44.31829" lon="0.82521">
        <ele>186.63</ele>
        <time>2022-10-02T10:16:31Z</time>
      </trkpt>
      <trkpt lat="44.31831" lon="0.8251">
        <ele>188.56</ele>
        <time>2022-10-02T10:16:47Z</time>
      </trkpt>
      <trkpt lat="44.31831" lon="0.82507">
        <ele>189.04</ele>
        <time>2022-10-02T10:16:53Z</time>
      </trkpt>
      <trkpt lat="44.31827" lon="0.82504">
        <ele>189.04</ele>
        <time>2022-10-02T10:17:02Z</time>
      </trkpt>
      <trkpt lat="44.31825" lon="0.82501">
        <ele>190.96</ele>
        <time>2022-10-02T10:17:07Z</time>
      </trkpt>
      <trkpt lat="44.31825" lon="0.825">
        <ele>189.04</ele>
        <time>2022-10-02T10:17:10Z</time>
      </trkpt>
      <trkpt lat="44.31824" lon="0.82498">
        <ele>190.48</ele>
        <time>2022-10-02T10:17:13Z</time>
      </trkpt>
      <trkpt lat="44.3182" lon="0.82488">
        <ele>192.4</ele>
        <time>2022-10-02T10:17:33Z</time>
      </trkpt>
      <trkpt lat="44.31812" lon="0.82472">
        <ele>195.28</ele>
        <time>2022-10-02T10:17:55Z</time>
      </trkpt>
      <trkpt lat="44.31812" lon="0.82471">
        <ele>193.36</ele>
        <time>2022-10-02T10:17:57Z</time>
      </trkpt>
      <trkpt lat="44.31812" lon="0.82469">
        <ele>194.8</ele>
        <time>2022-10-02T10:18:00Z</time>
      </trkpt>
      <trkpt lat="44.31812" lon="0.82461">
        <ele>196.25</ele>
        <time>2022-10-02T10:18:09Z</time>
      </trkpt>
      <trkpt lat="44.31811" lon="0.82457">
        <ele>194.8</ele>
        <time>2022-10-02T10:18:11Z</time>
      </trkpt>
      <trkpt lat="44.3181" lon="0.82456">
        <ele>194.8</ele>
        <time>2022-10-02T10:18:12Z</time>
      </trkpt>
      <trkpt lat="44.31806" lon="0.82442">
        <ele>196.25</ele>
        <time>2022-10-02T10:18:19Z</time>
      </trkpt>
      <trkpt lat="44.31792" lon="0.82401">
        <ele>197.21</ele>
        <time>2022-10-02T10:18:34Z</time>
      </trkpt>
      <trkpt lat="44.31784" lon="0.82353">
        <ele>198.17</ele>
        <time>2022-10-02T10:18:48Z</time>
      </trkpt>
      <trkpt lat="44.31761" lon="0.82311">
        <ele>198.17</ele>
        <time>2022-10-02T10:19:03Z</time>
      </trkpt>
      <trkpt lat="44.31743" lon="0.82271">
        <ele>198.65</ele>
        <time>2022-10-02T10:19:16Z</time>
      </trkpt>
      <trkpt lat="44.31712" lon="0.82239">
        <ele>199.13</ele>
        <time>2022-10-02T10:19:30Z</time>
      </trkpt>
      <trkpt lat="44.31658" lon="0.82211">
        <ele>199.13</ele>
        <time>2022-10-02T10:19:48Z</time>
      </trkpt>
      <trkpt lat="44.31635" lon="0.82176">
        <ele>199.61</ele>
        <time>2022-10-02T10:20:01Z</time>
      </trkpt>
      <trkpt lat="44.31631" lon="0.82161">
        <ele>199.13</ele>
        <time>2022-10-02T10:20:06Z</time>
      </trkpt>
      <trkpt lat="44.31628" lon="0.8215">
        <ele>200.57</ele>
        <time>2022-10-02T10:20:09Z</time>
      </trkpt>
      <trkpt lat="44.31612" lon="0.82087">
        <ele>202.49</ele>
        <time>2022-10-02T10:20:27Z</time>
      </trkpt>
      <trkpt lat="44.316" lon="0.82031">
        <ele>203.94</ele>
        <time>2022-10-02T10:20:44Z</time>
      </trkpt>
      <trkpt lat="44.31588" lon="0.8196">
        <ele>204.9</ele>
        <time>2022-10-02T10:21:02Z</time>
      </trkpt>
      <trkpt lat="44.3158" lon="0.81907">
        <ele>206.82</ele>
        <time>2022-10-02T10:21:19Z</time>
      </trkpt>
      <trkpt lat="44.31568" lon="0.81856">
        <ele>208.26</ele>
        <time>2022-10-02T10:21:38Z</time>
      </trkpt>
      <trkpt lat="44.31558" lon="0.81822">
        <ele>210.19</ele>
        <time>2022-10-02T10:21:53Z</time>
      </trkpt>
      <trkpt lat="44.31541" lon="0.8182">
        <ele>211.15</ele>
        <time>2022-10-02T10:22:02Z</time>
      </trkpt>
      <trkpt lat="44.31508" lon="0.81824">
        <ele>209.7</ele>
        <time>2022-10-02T10:22:12Z</time>
      </trkpt>
      <trkpt lat="44.31438" lon="0.81838">
        <ele>209.22</ele>
        <time>2022-10-02T10:22:29Z</time>
      </trkpt>
      <trkpt lat="44.31363" lon="0.81867">
        <ele>207.78</ele>
        <time>2022-10-02T10:22:45Z</time>
      </trkpt>
      <trkpt lat="44.31281" lon="0.81913">
        <ele>206.34</ele>
        <time>2022-10-02T10:23:02Z</time>
      </trkpt>
      <trkpt lat="44.31208" lon="0.81916">
        <ele>205.38</ele>
        <time>2022-10-02T10:23:17Z</time>
      </trkpt>
      <trkpt lat="44.31133" lon="0.81901">
        <ele>205.38</ele>
        <time>2022-10-02T10:23:33Z</time>
      </trkpt>
      <trkpt lat="44.3109" lon="0.8189">
        <ele>205.38</ele>
        <time>2022-10-02T10:23:43Z</time>
      </trkpt>
      <trkpt lat="44.30999" lon="0.81856">
        <ele>204.9</ele>
        <time>2022-10-02T10:24:04Z</time>
      </trkpt>
      <trkpt lat="44.30995" lon="0.81854">
        <ele>204.9</ele>
        <time>2022-10-02T10:24:05Z</time>
      </trkpt>
      <trkpt lat="44.30976" lon="0.81855">
        <ele>205.86</ele>
        <time>2022-10-02T10:24:10Z</time>
      </trkpt>
      <trkpt lat="44.30927" lon="0.81886">
        <ele>205.86</ele>
        <time>2022-10-02T10:24:23Z</time>
      </trkpt>
      <trkpt lat="44.30911" lon="0.81888">
        <ele>205.86</ele>
        <time>2022-10-02T10:24:27Z</time>
      </trkpt>
      <trkpt lat="44.30878" lon="0.8188">
        <ele>206.82</ele>
        <time>2022-10-02T10:24:36Z</time>
      </trkpt>
      <trkpt lat="44.30856" lon="0.81859">
        <ele>205.86</ele>
        <time>2022-10-02T10:24:44Z</time>
      </trkpt>
      <trkpt lat="44.30833" lon="0.81841">
        <ele>206.82</ele>
        <time>2022-10-02T10:24:52Z</time>
      </trkpt>
      <trkpt lat="44.30721" lon="0.81796">
        <ele>206.34</ele>
        <time>2022-10-02T10:26:17Z</time>
      </trkpt>
      <trkpt lat="44.30718" lon="0.8182">
        <ele>209.1</ele>
      </trkpt>
      <trkpt lat="44.30734" lon="0.8185">
        <ele>207.8</ele>
      </trkpt>
      <trkpt lat="44.30774" lon="0.81855">
        <ele>206.8</ele>
      </trkpt>
      <trkpt lat="44.30776" lon="0.8196">
        <ele>204.9</ele>
      </trkpt>
      <trkpt lat="44.30628" lon="0.82277">
        <ele>213.4</ele>
      </trkpt>
      <trkpt lat="44.30688" lon="0.82303">
        <ele>212</ele>
      </trkpt>
      <trkpt lat="44.308" lon="0.82406">
        <ele>212.5</ele>
      </trkpt>
      <trkpt lat="44.30906" lon="0.82488">
        <ele>214.7</ele>
      </trkpt>
      <trkpt lat="44.3067" lon="0.8229">
        <ele>212</ele>
      </trkpt>
      <trkpt lat="44.30628" lon="0.82284">
        <ele>213.2</ele>
      </trkpt>
      <trkpt lat="44.30779" lon="0.81958">
        <ele>205</ele>
      </trkpt>
      <trkpt lat="44.30779" lon="0.81859">
        <ele>206.9</ele>
      </trkpt>
      <trkpt lat="44.30716" lon="0.81855">
        <ele>208.4</ele>
      </trkpt>
      <trkpt lat="44.30684" lon="0.81719">
        <ele>208.7</ele>
      </trkpt>
      <trkpt lat="44.30681" lon="0.81649">
        <ele>209.3</ele>
      </trkpt>
      <trkpt lat="44.30705" lon="0.81597">
        <ele>210.2</ele>
      </trkpt>
      <trkpt lat="44.30678" lon="0.81494">
        <ele>213</ele>
      </trkpt>
      <trkpt lat="44.30681" lon="0.81413">
        <ele>209.7</ele>
      </trkpt>
      <trkpt lat="44.30682" lon="0.8132">
        <ele>201.5</ele>
      </trkpt>
      <trkpt lat="44.30636" lon="0.81305">
        <ele>205.4</ele>
      </trkpt>
      <trkpt lat="44.30589" lon="0.81275">
        <ele>209.4</ele>
      </trkpt>
      <trkpt lat="44.30523" lon="0.81288">
        <ele>210.8</ele>
      </trkpt>
      <trkpt lat="44.30469" lon="0.8126">
        <ele>209.9</ele>
      </trkpt>
      <trkpt lat="44.30401" lon="0.81398">
        <ele>207.3</ele>
      </trkpt>
      <trkpt lat="44.30318" lon="0.81398">
        <ele>206</ele>
      </trkpt>
      <trkpt lat="44.30281" lon="0.8141">
        <ele>198.6</ele>
      </trkpt>
      <trkpt lat="44.30198" lon="0.81634">
        <ele>205.2</ele>
      </trkpt>
      <trkpt lat="44.30054" lon="0.81754">
        <ele>212.1</ele>
      </trkpt>
      <trkpt lat="44.29815" lon="0.81625">
        <ele>213</ele>
      </trkpt>
      <trkpt lat="44.29846" lon="0.81437">
        <ele>210.2</ele>
      </trkpt>
      <trkpt lat="44.29777" lon="0.81536">
        <ele>198.1</ele>
      </trkpt>
      <trkpt lat="44.29692" lon="0.81523">
        <ele>177.5</ele>
      </trkpt>
      <trkpt lat="44.2964" lon="0.81523">
        <ele>176.9</ele>
      </trkpt>
      <trkpt lat="44.29617" lon="0.81519">
        <ele>173.9</ele>
      </trkpt>
      <trkpt lat="44.29577" lon="0.81476">
        <ele>167</ele>
      </trkpt>
      <trkpt lat="44.29588" lon="0.81448">
        <ele>162.8</ele>
      </trkpt>
      <trkpt lat="44.2957" lon="0.81409">
        <ele>155</ele>
      </trkpt>
      <trkpt lat="44.29548" lon="0.81424">
        <ele>154.3</ele>
      </trkpt>
      <trkpt lat="44.29476" lon="0.81375">
        <ele>145.9</ele>
      </trkpt>
      <trkpt lat="44.29467" lon="0.81296">
        <ele>149.5</ele>
      </trkpt>
      <trkpt lat="44.2951" lon="0.81229">
        <ele>151.1</ele>
      </trkpt>
      <trkpt lat="44.29522" lon="0.81167">
        <ele>150.4</ele>
      </trkpt>
      <trkpt lat="44.29531" lon="0.81103">
        <ele>147.8</ele>
      </trkpt>
      <trkpt lat="44.2956" lon="0.80965">
        <ele>148.5</ele>
      </trkpt>
      <trkpt lat="44.29576" lon="0.80888">
        <ele>147.4</ele>
      </trkpt>
      <trkpt lat="44.29559" lon="0.80824">
        <ele>148.8</ele>
      </trkpt>
      <trkpt lat="44.29474" lon="0.80768">
        <ele>151.8</ele>
      </trkpt>
      <trkpt lat="44.29467" lon="0.80673">
        <ele>142.4</ele>
      </trkpt>
      <trkpt lat="44.29476" lon="0.80637">
        <ele>145.1</ele>
      </trkpt>
      <trkpt lat="44.29263" lon="0.80638">
        <ele>173</ele>
      </trkpt>
      <trkpt lat="44.29093" lon="0.80636">
        <ele>197.7</ele>
      </trkpt>
      <trkpt lat="44.29065" lon="0.80556">
        <ele>209.6</ele>
      </trkpt>
      <trkpt lat="44.29057" lon="0.80471">
        <ele>212</ele>
      </trkpt>
    </trkseg>
  </trk>
</gpx>